<?xml version="1.0" encoding="UTF-8" standalone="no" ?>
<gpx xmlns="http://www.topografix.com/GPX/1/1" xmlns:xsi="http://www.w3.org/2001/XMLSchema-instance" xsi:schemaLocation="http://www.topografix.com/GPX/1/1 http://www.topografix.com/GPX/1/1/gpx.xsd" version="1.1" creator="VisuGPX - https://www.visugpx.com">
  <metadata>
    <name>18 mars 2021 mont olympe</name>
    <desc><![CDATA[grp_trc:]]></desc>
  </metadata>
  <trk>
    <name><![CDATA[18 mars 2021]]></name>
    <cmt><![CDATA[09:05:30]]></cmt>
    <desc><![CDATA[comment ...]]></desc>
    <trkseg>
      <trkpt lat="43.46723" lon="5.74535">
        <ele>299</ele>
        <time>2021-03-18T08:05:29Z</time>
      </trkpt>
      <trkpt lat="43.46723" lon="5.74535">
        <ele>299</ele>
        <time>2021-03-18T08:05:30Z</time>
      </trkpt>
      <trkpt lat="43.46723" lon="5.74533">
        <ele>299</ele>
        <time>2021-03-18T08:06:12Z</time>
      </trkpt>
      <trkpt lat="43.46721" lon="5.74531">
        <ele>299</ele>
        <time>2021-03-18T08:06:37Z</time>
      </trkpt>
      <trkpt lat="43.4672" lon="5.74533">
        <ele>298</ele>
        <time>2021-03-18T08:06:40Z</time>
      </trkpt>
      <trkpt lat="43.46718" lon="5.74535">
        <ele>297</ele>
        <time>2021-03-18T08:06:44Z</time>
      </trkpt>
      <trkpt lat="43.46717" lon="5.7454">
        <ele>297</ele>
        <time>2021-03-18T08:08:18Z</time>
      </trkpt>
      <trkpt lat="43.46716" lon="5.74543">
        <ele>298</ele>
        <time>2021-03-18T08:08:24Z</time>
      </trkpt>
      <trkpt lat="43.46715" lon="5.74547">
        <ele>299</ele>
        <time>2021-03-18T08:08:29Z</time>
      </trkpt>
      <trkpt lat="43.46713" lon="5.74551">
        <ele>299</ele>
        <time>2021-03-18T08:08:32Z</time>
      </trkpt>
      <trkpt lat="43.46711" lon="5.7456">
        <ele>301</ele>
        <time>2021-03-18T08:08:40Z</time>
      </trkpt>
      <trkpt lat="43.46709" lon="5.74569">
        <ele>303</ele>
        <time>2021-03-18T08:08:48Z</time>
      </trkpt>
      <trkpt lat="43.46706" lon="5.74572">
        <ele>304</ele>
        <time>2021-03-18T08:08:52Z</time>
      </trkpt>
      <trkpt lat="43.46706" lon="5.74577">
        <ele>305</ele>
        <time>2021-03-18T08:09:01Z</time>
      </trkpt>
      <trkpt lat="43.46702" lon="5.74579">
        <ele>307</ele>
        <time>2021-03-18T08:09:07Z</time>
      </trkpt>
      <trkpt lat="43.46698" lon="5.74585">
        <ele>307</ele>
        <time>2021-03-18T08:09:11Z</time>
      </trkpt>
      <trkpt lat="43.46696" lon="5.74598">
        <ele>305</ele>
        <time>2021-03-18T08:09:18Z</time>
      </trkpt>
      <trkpt lat="43.46693" lon="5.74602">
        <ele>305</ele>
        <time>2021-03-18T08:09:23Z</time>
      </trkpt>
      <trkpt lat="43.46691" lon="5.74606">
        <ele>305</ele>
        <time>2021-03-18T08:09:26Z</time>
      </trkpt>
      <trkpt lat="43.4669" lon="5.74612">
        <ele>306</ele>
        <time>2021-03-18T08:09:31Z</time>
      </trkpt>
      <trkpt lat="43.46689" lon="5.74617">
        <ele>306</ele>
        <time>2021-03-18T08:09:35Z</time>
      </trkpt>
      <trkpt lat="43.46689" lon="5.74623">
        <ele>306</ele>
        <time>2021-03-18T08:09:39Z</time>
      </trkpt>
      <trkpt lat="43.4669" lon="5.74636">
        <ele>307</ele>
        <time>2021-03-18T08:09:46Z</time>
      </trkpt>
      <trkpt lat="43.46689" lon="5.74647">
        <ele>307</ele>
        <time>2021-03-18T08:09:52Z</time>
      </trkpt>
      <trkpt lat="43.46683" lon="5.74656">
        <ele>306</ele>
        <time>2021-03-18T08:10:00Z</time>
      </trkpt>
      <trkpt lat="43.4668" lon="5.74658">
        <ele>307</ele>
        <time>2021-03-18T08:10:03Z</time>
      </trkpt>
      <trkpt lat="43.46677" lon="5.7466">
        <ele>307</ele>
        <time>2021-03-18T08:10:05Z</time>
      </trkpt>
      <trkpt lat="43.46675" lon="5.74664">
        <ele>308</ele>
        <time>2021-03-18T08:10:14Z</time>
      </trkpt>
      <trkpt lat="43.46672" lon="5.74671">
        <ele>308</ele>
        <time>2021-03-18T08:10:20Z</time>
      </trkpt>
      <trkpt lat="43.4667" lon="5.74674">
        <ele>309</ele>
        <time>2021-03-18T08:10:23Z</time>
      </trkpt>
      <trkpt lat="43.46666" lon="5.74693">
        <ele>308</ele>
        <time>2021-03-18T08:10:37Z</time>
      </trkpt>
      <trkpt lat="43.46666" lon="5.74696">
        <ele>308</ele>
        <time>2021-03-18T08:10:40Z</time>
      </trkpt>
      <trkpt lat="43.46665" lon="5.74701">
        <ele>308</ele>
        <time>2021-03-18T08:10:45Z</time>
      </trkpt>
      <trkpt lat="43.46664" lon="5.74706">
        <ele>306</ele>
        <time>2021-03-18T08:10:50Z</time>
      </trkpt>
      <trkpt lat="43.46665" lon="5.74712">
        <ele>306</ele>
        <time>2021-03-18T08:10:55Z</time>
      </trkpt>
      <trkpt lat="43.46665" lon="5.74725">
        <ele>308</ele>
        <time>2021-03-18T08:11:08Z</time>
      </trkpt>
      <trkpt lat="43.46666" lon="5.74731">
        <ele>309</ele>
        <time>2021-03-18T08:11:12Z</time>
      </trkpt>
      <trkpt lat="43.46667" lon="5.74735">
        <ele>308</ele>
        <time>2021-03-18T08:11:25Z</time>
      </trkpt>
      <trkpt lat="43.46669" lon="5.74743">
        <ele>307</ele>
        <time>2021-03-18T08:11:32Z</time>
      </trkpt>
      <trkpt lat="43.46671" lon="5.74746">
        <ele>307</ele>
        <time>2021-03-18T08:11:36Z</time>
      </trkpt>
      <trkpt lat="43.46669" lon="5.74748">
        <ele>309</ele>
        <time>2021-03-18T08:12:19Z</time>
      </trkpt>
      <trkpt lat="43.46666" lon="5.74746">
        <ele>309</ele>
        <time>2021-03-18T08:12:26Z</time>
      </trkpt>
      <trkpt lat="43.46664" lon="5.74744">
        <ele>310</ele>
        <time>2021-03-18T08:12:33Z</time>
      </trkpt>
      <trkpt lat="43.46662" lon="5.74742">
        <ele>310</ele>
        <time>2021-03-18T08:12:55Z</time>
      </trkpt>
      <trkpt lat="43.4666" lon="5.74742">
        <ele>312</ele>
        <time>2021-03-18T08:13:03Z</time>
      </trkpt>
      <trkpt lat="43.46656" lon="5.74752">
        <ele>314</ele>
        <time>2021-03-18T08:13:13Z</time>
      </trkpt>
      <trkpt lat="43.46653" lon="5.74755">
        <ele>313</ele>
        <time>2021-03-18T08:13:17Z</time>
      </trkpt>
      <trkpt lat="43.46647" lon="5.74754">
        <ele>314</ele>
        <time>2021-03-18T08:13:23Z</time>
      </trkpt>
      <trkpt lat="43.46639" lon="5.74746">
        <ele>313</ele>
        <time>2021-03-18T08:13:31Z</time>
      </trkpt>
      <trkpt lat="43.46629" lon="5.74742">
        <ele>311</ele>
        <time>2021-03-18T08:14:06Z</time>
      </trkpt>
      <trkpt lat="43.4663" lon="5.7474">
        <ele>310</ele>
        <time>2021-03-18T08:14:13Z</time>
      </trkpt>
      <trkpt lat="43.46632" lon="5.74738">
        <ele>309</ele>
        <time>2021-03-18T08:14:24Z</time>
      </trkpt>
      <trkpt lat="43.46635" lon="5.74739">
        <ele>308</ele>
        <time>2021-03-18T08:14:29Z</time>
      </trkpt>
      <trkpt lat="43.46637" lon="5.74741">
        <ele>308</ele>
        <time>2021-03-18T08:14:34Z</time>
      </trkpt>
      <trkpt lat="43.4664" lon="5.74742">
        <ele>309</ele>
        <time>2021-03-18T08:14:37Z</time>
      </trkpt>
      <trkpt lat="43.46643" lon="5.74746">
        <ele>309</ele>
        <time>2021-03-18T08:14:44Z</time>
      </trkpt>
      <trkpt lat="43.46648" lon="5.74749">
        <ele>311</ele>
        <time>2021-03-18T08:14:49Z</time>
      </trkpt>
      <trkpt lat="43.46651" lon="5.74747">
        <ele>310</ele>
        <time>2021-03-18T08:14:54Z</time>
      </trkpt>
      <trkpt lat="43.46657" lon="5.74736">
        <ele>309</ele>
        <time>2021-03-18T08:15:30Z</time>
      </trkpt>
      <trkpt lat="43.46657" lon="5.74725">
        <ele>312</ele>
        <time>2021-03-18T08:15:40Z</time>
      </trkpt>
      <trkpt lat="43.46654" lon="5.74723">
        <ele>311</ele>
        <time>2021-03-18T08:15:47Z</time>
      </trkpt>
      <trkpt lat="43.4665" lon="5.74723">
        <ele>309</ele>
        <time>2021-03-18T08:15:53Z</time>
      </trkpt>
      <trkpt lat="43.46646" lon="5.74721">
        <ele>308</ele>
        <time>2021-03-18T08:15:57Z</time>
      </trkpt>
      <trkpt lat="43.46642" lon="5.74722">
        <ele>308</ele>
        <time>2021-03-18T08:16:03Z</time>
      </trkpt>
      <trkpt lat="43.46637" lon="5.74718">
        <ele>309</ele>
        <time>2021-03-18T08:16:08Z</time>
      </trkpt>
      <trkpt lat="43.46635" lon="5.74714">
        <ele>310</ele>
        <time>2021-03-18T08:16:11Z</time>
      </trkpt>
      <trkpt lat="43.46633" lon="5.74704">
        <ele>311</ele>
        <time>2021-03-18T08:16:17Z</time>
      </trkpt>
      <trkpt lat="43.46632" lon="5.74694">
        <ele>313</ele>
        <time>2021-03-18T08:16:25Z</time>
      </trkpt>
      <trkpt lat="43.46632" lon="5.74687">
        <ele>314</ele>
        <time>2021-03-18T08:16:29Z</time>
      </trkpt>
      <trkpt lat="43.46635" lon="5.74684">
        <ele>314</ele>
        <time>2021-03-18T08:16:31Z</time>
      </trkpt>
      <trkpt lat="43.46643" lon="5.74677">
        <ele>312</ele>
        <time>2021-03-18T08:16:39Z</time>
      </trkpt>
      <trkpt lat="43.46645" lon="5.74672">
        <ele>311</ele>
        <time>2021-03-18T08:16:42Z</time>
      </trkpt>
      <trkpt lat="43.46648" lon="5.74668">
        <ele>310</ele>
        <time>2021-03-18T08:16:45Z</time>
      </trkpt>
      <trkpt lat="43.46651" lon="5.74663">
        <ele>310</ele>
        <time>2021-03-18T08:16:48Z</time>
      </trkpt>
      <trkpt lat="43.46656" lon="5.7466">
        <ele>309</ele>
        <time>2021-03-18T08:16:52Z</time>
      </trkpt>
      <trkpt lat="43.46662" lon="5.74654">
        <ele>307</ele>
        <time>2021-03-18T08:16:58Z</time>
      </trkpt>
      <trkpt lat="43.46667" lon="5.74652">
        <ele>308</ele>
        <time>2021-03-18T08:17:03Z</time>
      </trkpt>
      <trkpt lat="43.46671" lon="5.74649">
        <ele>310</ele>
        <time>2021-03-18T08:17:09Z</time>
      </trkpt>
      <trkpt lat="43.46675" lon="5.74647">
        <ele>311</ele>
        <time>2021-03-18T08:17:12Z</time>
      </trkpt>
      <trkpt lat="43.46678" lon="5.74635">
        <ele>310</ele>
        <time>2021-03-18T08:17:18Z</time>
      </trkpt>
      <trkpt lat="43.46677" lon="5.7463">
        <ele>309</ele>
        <time>2021-03-18T08:17:26Z</time>
      </trkpt>
      <trkpt lat="43.46677" lon="5.74625">
        <ele>308</ele>
        <time>2021-03-18T08:17:30Z</time>
      </trkpt>
      <trkpt lat="43.46678" lon="5.7462">
        <ele>309</ele>
        <time>2021-03-18T08:17:34Z</time>
      </trkpt>
      <trkpt lat="43.46677" lon="5.74615">
        <ele>308</ele>
        <time>2021-03-18T08:17:39Z</time>
      </trkpt>
      <trkpt lat="43.46671" lon="5.74608">
        <ele>307</ele>
        <time>2021-03-18T08:17:48Z</time>
      </trkpt>
      <trkpt lat="43.46667" lon="5.74608">
        <ele>306</ele>
        <time>2021-03-18T08:17:52Z</time>
      </trkpt>
      <trkpt lat="43.46664" lon="5.74606">
        <ele>306</ele>
        <time>2021-03-18T08:17:55Z</time>
      </trkpt>
      <trkpt lat="43.4666" lon="5.74603">
        <ele>306</ele>
        <time>2021-03-18T08:18:00Z</time>
      </trkpt>
      <trkpt lat="43.46651" lon="5.74597">
        <ele>306</ele>
        <time>2021-03-18T08:18:10Z</time>
      </trkpt>
      <trkpt lat="43.46629" lon="5.74599">
        <ele>305</ele>
        <time>2021-03-18T08:18:32Z</time>
      </trkpt>
      <trkpt lat="43.46625" lon="5.74601">
        <ele>305</ele>
        <time>2021-03-18T08:18:36Z</time>
      </trkpt>
      <trkpt lat="43.46622" lon="5.74603">
        <ele>305</ele>
        <time>2021-03-18T08:18:40Z</time>
      </trkpt>
      <trkpt lat="43.46618" lon="5.74605">
        <ele>306</ele>
        <time>2021-03-18T08:18:47Z</time>
      </trkpt>
      <trkpt lat="43.46614" lon="5.74607">
        <ele>306</ele>
        <time>2021-03-18T08:18:50Z</time>
      </trkpt>
      <trkpt lat="43.46604" lon="5.74611">
        <ele>306</ele>
        <time>2021-03-18T08:19:01Z</time>
      </trkpt>
      <trkpt lat="43.46601" lon="5.74614">
        <ele>306</ele>
        <time>2021-03-18T08:19:05Z</time>
      </trkpt>
      <trkpt lat="43.46596" lon="5.74617">
        <ele>306</ele>
        <time>2021-03-18T08:19:10Z</time>
      </trkpt>
      <trkpt lat="43.46585" lon="5.74621">
        <ele>308</ele>
        <time>2021-03-18T08:19:21Z</time>
      </trkpt>
      <trkpt lat="43.4655" lon="5.74635">
        <ele>311</ele>
        <time>2021-03-18T08:19:55Z</time>
      </trkpt>
      <trkpt lat="43.46534" lon="5.74638">
        <ele>309</ele>
        <time>2021-03-18T08:20:11Z</time>
      </trkpt>
      <trkpt lat="43.46529" lon="5.7464">
        <ele>309</ele>
        <time>2021-03-18T08:20:16Z</time>
      </trkpt>
      <trkpt lat="43.46525" lon="5.74641">
        <ele>310</ele>
        <time>2021-03-18T08:20:20Z</time>
      </trkpt>
      <trkpt lat="43.46521" lon="5.74644">
        <ele>310</ele>
        <time>2021-03-18T08:20:25Z</time>
      </trkpt>
      <trkpt lat="43.4651" lon="5.7465">
        <ele>313</ele>
        <time>2021-03-18T08:20:38Z</time>
      </trkpt>
      <trkpt lat="43.46506" lon="5.7465">
        <ele>313</ele>
        <time>2021-03-18T08:20:42Z</time>
      </trkpt>
      <trkpt lat="43.46487" lon="5.74658">
        <ele>313</ele>
        <time>2021-03-18T08:21:04Z</time>
      </trkpt>
      <trkpt lat="43.46477" lon="5.74664">
        <ele>314</ele>
        <time>2021-03-18T08:21:16Z</time>
      </trkpt>
      <trkpt lat="43.46472" lon="5.74665">
        <ele>314</ele>
        <time>2021-03-18T08:21:20Z</time>
      </trkpt>
      <trkpt lat="43.46467" lon="5.74665">
        <ele>314</ele>
        <time>2021-03-18T08:21:25Z</time>
      </trkpt>
      <trkpt lat="43.46437" lon="5.74674">
        <ele>317</ele>
        <time>2021-03-18T08:21:54Z</time>
      </trkpt>
      <trkpt lat="43.46411" lon="5.74687">
        <ele>316</ele>
        <time>2021-03-18T08:22:21Z</time>
      </trkpt>
      <trkpt lat="43.46405" lon="5.74691">
        <ele>318</ele>
        <time>2021-03-18T08:22:28Z</time>
      </trkpt>
      <trkpt lat="43.46385" lon="5.74702">
        <ele>320</ele>
        <time>2021-03-18T08:22:48Z</time>
      </trkpt>
      <trkpt lat="43.46381" lon="5.74702">
        <ele>320</ele>
        <time>2021-03-18T08:22:52Z</time>
      </trkpt>
      <trkpt lat="43.46372" lon="5.74707">
        <ele>319</ele>
        <time>2021-03-18T08:23:01Z</time>
      </trkpt>
      <trkpt lat="43.46339" lon="5.74717">
        <ele>323</ele>
        <time>2021-03-18T08:23:32Z</time>
      </trkpt>
      <trkpt lat="43.46331" lon="5.74717">
        <ele>322</ele>
        <time>2021-03-18T08:23:39Z</time>
      </trkpt>
      <trkpt lat="43.46327" lon="5.74718">
        <ele>322</ele>
        <time>2021-03-18T08:23:43Z</time>
      </trkpt>
      <trkpt lat="43.46324" lon="5.74719">
        <ele>322</ele>
        <time>2021-03-18T08:23:46Z</time>
      </trkpt>
      <trkpt lat="43.46304" lon="5.74729">
        <ele>322</ele>
        <time>2021-03-18T08:24:06Z</time>
      </trkpt>
      <trkpt lat="43.46296" lon="5.74729">
        <ele>322</ele>
        <time>2021-03-18T08:24:13Z</time>
      </trkpt>
      <trkpt lat="43.46285" lon="5.74735">
        <ele>322</ele>
        <time>2021-03-18T08:24:23Z</time>
      </trkpt>
      <trkpt lat="43.46278" lon="5.74738">
        <ele>323</ele>
        <time>2021-03-18T08:24:29Z</time>
      </trkpt>
      <trkpt lat="43.46264" lon="5.74744">
        <ele>325</ele>
        <time>2021-03-18T08:24:46Z</time>
      </trkpt>
      <trkpt lat="43.46261" lon="5.74744">
        <ele>326</ele>
        <time>2021-03-18T08:24:49Z</time>
      </trkpt>
      <trkpt lat="43.46253" lon="5.74747">
        <ele>326</ele>
        <time>2021-03-18T08:24:56Z</time>
      </trkpt>
      <trkpt lat="43.46245" lon="5.74751">
        <ele>326</ele>
        <time>2021-03-18T08:25:02Z</time>
      </trkpt>
      <trkpt lat="43.46241" lon="5.74753">
        <ele>327</ele>
        <time>2021-03-18T08:25:06Z</time>
      </trkpt>
      <trkpt lat="43.4623" lon="5.74757">
        <ele>328</ele>
        <time>2021-03-18T08:25:17Z</time>
      </trkpt>
      <trkpt lat="43.46226" lon="5.74758">
        <ele>328</ele>
        <time>2021-03-18T08:25:21Z</time>
      </trkpt>
      <trkpt lat="43.46201" lon="5.74772">
        <ele>328</ele>
        <time>2021-03-18T08:25:46Z</time>
      </trkpt>
      <trkpt lat="43.46194" lon="5.74779">
        <ele>329</ele>
        <time>2021-03-18T08:25:56Z</time>
      </trkpt>
      <trkpt lat="43.46181" lon="5.7479">
        <ele>330</ele>
        <time>2021-03-18T08:26:10Z</time>
      </trkpt>
      <trkpt lat="43.46174" lon="5.74792">
        <ele>329</ele>
        <time>2021-03-18T08:26:17Z</time>
      </trkpt>
      <trkpt lat="43.4617" lon="5.74792">
        <ele>330</ele>
        <time>2021-03-18T08:26:21Z</time>
      </trkpt>
      <trkpt lat="43.46162" lon="5.74793">
        <ele>332</ele>
        <time>2021-03-18T08:26:28Z</time>
      </trkpt>
      <trkpt lat="43.46159" lon="5.74794">
        <ele>333</ele>
        <time>2021-03-18T08:26:32Z</time>
      </trkpt>
      <trkpt lat="43.46155" lon="5.74795">
        <ele>334</ele>
        <time>2021-03-18T08:26:36Z</time>
      </trkpt>
      <trkpt lat="43.46145" lon="5.74795">
        <ele>336</ele>
        <time>2021-03-18T08:26:47Z</time>
      </trkpt>
      <trkpt lat="43.46143" lon="5.74797">
        <ele>337</ele>
        <time>2021-03-18T08:27:29Z</time>
      </trkpt>
      <trkpt lat="43.46138" lon="5.74797">
        <ele>335</ele>
        <time>2021-03-18T08:28:14Z</time>
      </trkpt>
      <trkpt lat="43.46137" lon="5.748">
        <ele>334</ele>
        <time>2021-03-18T08:29:06Z</time>
      </trkpt>
      <trkpt lat="43.46137" lon="5.74804">
        <ele>335</ele>
        <time>2021-03-18T08:29:12Z</time>
      </trkpt>
      <trkpt lat="43.46134" lon="5.7482">
        <ele>335</ele>
        <time>2021-03-18T08:29:26Z</time>
      </trkpt>
      <trkpt lat="43.46133" lon="5.7484">
        <ele>335</ele>
        <time>2021-03-18T08:29:41Z</time>
      </trkpt>
      <trkpt lat="43.46135" lon="5.74849">
        <ele>335</ele>
        <time>2021-03-18T08:29:47Z</time>
      </trkpt>
      <trkpt lat="43.46135" lon="5.74853">
        <ele>335</ele>
        <time>2021-03-18T08:29:51Z</time>
      </trkpt>
      <trkpt lat="43.46135" lon="5.74865">
        <ele>337</ele>
        <time>2021-03-18T08:30:01Z</time>
      </trkpt>
      <trkpt lat="43.46135" lon="5.7487">
        <ele>337</ele>
        <time>2021-03-18T08:30:05Z</time>
      </trkpt>
      <trkpt lat="43.46135" lon="5.74874">
        <ele>336</ele>
        <time>2021-03-18T08:30:09Z</time>
      </trkpt>
      <trkpt lat="43.46137" lon="5.74885">
        <ele>336</ele>
        <time>2021-03-18T08:30:16Z</time>
      </trkpt>
      <trkpt lat="43.46139" lon="5.74895">
        <ele>336</ele>
        <time>2021-03-18T08:30:22Z</time>
      </trkpt>
      <trkpt lat="43.46138" lon="5.74902">
        <ele>336</ele>
        <time>2021-03-18T08:30:26Z</time>
      </trkpt>
      <trkpt lat="43.46137" lon="5.74906">
        <ele>336</ele>
        <time>2021-03-18T08:30:29Z</time>
      </trkpt>
      <trkpt lat="43.46136" lon="5.7491">
        <ele>336</ele>
        <time>2021-03-18T08:30:32Z</time>
      </trkpt>
      <trkpt lat="43.46132" lon="5.74932">
        <ele>336</ele>
        <time>2021-03-18T08:30:48Z</time>
      </trkpt>
      <trkpt lat="43.46128" lon="5.74943">
        <ele>336</ele>
        <time>2021-03-18T08:30:54Z</time>
      </trkpt>
      <trkpt lat="43.46127" lon="5.74947">
        <ele>337</ele>
        <time>2021-03-18T08:30:57Z</time>
      </trkpt>
      <trkpt lat="43.46126" lon="5.74953">
        <ele>337</ele>
        <time>2021-03-18T08:31:01Z</time>
      </trkpt>
      <trkpt lat="43.46125" lon="5.74956">
        <ele>337</ele>
        <time>2021-03-18T08:31:06Z</time>
      </trkpt>
      <trkpt lat="43.46121" lon="5.74965">
        <ele>339</ele>
        <time>2021-03-18T08:31:13Z</time>
      </trkpt>
      <trkpt lat="43.46115" lon="5.74975">
        <ele>339</ele>
        <time>2021-03-18T08:31:22Z</time>
      </trkpt>
      <trkpt lat="43.46112" lon="5.74984">
        <ele>340</ele>
        <time>2021-03-18T08:31:30Z</time>
      </trkpt>
      <trkpt lat="43.46108" lon="5.74991">
        <ele>340</ele>
        <time>2021-03-18T08:31:36Z</time>
      </trkpt>
      <trkpt lat="43.46101" lon="5.75">
        <ele>342</ele>
        <time>2021-03-18T08:31:46Z</time>
      </trkpt>
      <trkpt lat="43.46095" lon="5.75012">
        <ele>343</ele>
        <time>2021-03-18T08:31:56Z</time>
      </trkpt>
      <trkpt lat="43.46083" lon="5.75031">
        <ele>344</ele>
        <time>2021-03-18T08:32:15Z</time>
      </trkpt>
      <trkpt lat="43.4608" lon="5.75035">
        <ele>344</ele>
        <time>2021-03-18T08:32:19Z</time>
      </trkpt>
      <trkpt lat="43.46075" lon="5.75038">
        <ele>345</ele>
        <time>2021-03-18T08:32:24Z</time>
      </trkpt>
      <trkpt lat="43.4607" lon="5.75043">
        <ele>346</ele>
        <time>2021-03-18T08:32:30Z</time>
      </trkpt>
      <trkpt lat="43.46068" lon="5.75046">
        <ele>347</ele>
        <time>2021-03-18T08:32:33Z</time>
      </trkpt>
      <trkpt lat="43.46065" lon="5.75049">
        <ele>346</ele>
        <time>2021-03-18T08:32:36Z</time>
      </trkpt>
      <trkpt lat="43.46062" lon="5.75052">
        <ele>347</ele>
        <time>2021-03-18T08:32:40Z</time>
      </trkpt>
      <trkpt lat="43.4606" lon="5.75054">
        <ele>347</ele>
        <time>2021-03-18T08:32:42Z</time>
      </trkpt>
      <trkpt lat="43.46058" lon="5.75056">
        <ele>348</ele>
        <time>2021-03-18T08:32:45Z</time>
      </trkpt>
      <trkpt lat="43.46046" lon="5.75064">
        <ele>349</ele>
        <time>2021-03-18T08:32:59Z</time>
      </trkpt>
      <trkpt lat="43.46043" lon="5.75065">
        <ele>349</ele>
        <time>2021-03-18T08:33:01Z</time>
      </trkpt>
      <trkpt lat="43.46033" lon="5.75066">
        <ele>351</ele>
        <time>2021-03-18T08:33:10Z</time>
      </trkpt>
      <trkpt lat="43.46027" lon="5.75064">
        <ele>352</ele>
        <time>2021-03-18T08:33:16Z</time>
      </trkpt>
      <trkpt lat="43.46019" lon="5.75061">
        <ele>353</ele>
        <time>2021-03-18T08:33:24Z</time>
      </trkpt>
      <trkpt lat="43.46013" lon="5.75057">
        <ele>353</ele>
        <time>2021-03-18T08:33:30Z</time>
      </trkpt>
      <trkpt lat="43.46012" lon="5.75054">
        <ele>354</ele>
        <time>2021-03-18T08:33:33Z</time>
      </trkpt>
      <trkpt lat="43.46005" lon="5.7504">
        <ele>355</ele>
        <time>2021-03-18T08:33:46Z</time>
      </trkpt>
      <trkpt lat="43.46002" lon="5.75027">
        <ele>356</ele>
        <time>2021-03-18T08:33:54Z</time>
      </trkpt>
      <trkpt lat="43.45999" lon="5.75023">
        <ele>356</ele>
        <time>2021-03-18T08:33:57Z</time>
      </trkpt>
      <trkpt lat="43.45995" lon="5.75016">
        <ele>356</ele>
        <time>2021-03-18T08:34:04Z</time>
      </trkpt>
      <trkpt lat="43.45993" lon="5.75013">
        <ele>356</ele>
        <time>2021-03-18T08:34:07Z</time>
      </trkpt>
      <trkpt lat="43.45992" lon="5.75008">
        <ele>357</ele>
        <time>2021-03-18T08:34:11Z</time>
      </trkpt>
      <trkpt lat="43.45988" lon="5.75006">
        <ele>356</ele>
        <time>2021-03-18T08:34:15Z</time>
      </trkpt>
      <trkpt lat="43.45986" lon="5.75003">
        <ele>355</ele>
        <time>2021-03-18T08:34:18Z</time>
      </trkpt>
      <trkpt lat="43.45981" lon="5.74999">
        <ele>355</ele>
        <time>2021-03-18T08:34:25Z</time>
      </trkpt>
      <trkpt lat="43.45978" lon="5.75">
        <ele>355</ele>
        <time>2021-03-18T08:34:30Z</time>
      </trkpt>
      <trkpt lat="43.45971" lon="5.75001">
        <ele>356</ele>
        <time>2021-03-18T08:34:44Z</time>
      </trkpt>
      <trkpt lat="43.45964" lon="5.75005">
        <ele>358</ele>
        <time>2021-03-18T08:35:00Z</time>
      </trkpt>
      <trkpt lat="43.45961" lon="5.75009">
        <ele>359</ele>
        <time>2021-03-18T08:35:03Z</time>
      </trkpt>
      <trkpt lat="43.45957" lon="5.75012">
        <ele>360</ele>
        <time>2021-03-18T08:35:09Z</time>
      </trkpt>
      <trkpt lat="43.45953" lon="5.75015">
        <ele>361</ele>
        <time>2021-03-18T08:35:12Z</time>
      </trkpt>
      <trkpt lat="43.45942" lon="5.7502">
        <ele>363</ele>
        <time>2021-03-18T08:35:22Z</time>
      </trkpt>
      <trkpt lat="43.45936" lon="5.75026">
        <ele>363</ele>
        <time>2021-03-18T08:35:28Z</time>
      </trkpt>
      <trkpt lat="43.45926" lon="5.75037">
        <ele>364</ele>
        <time>2021-03-18T08:35:39Z</time>
      </trkpt>
      <trkpt lat="43.45923" lon="5.7504">
        <ele>365</ele>
        <time>2021-03-18T08:35:44Z</time>
      </trkpt>
      <trkpt lat="43.45919" lon="5.75042">
        <ele>365</ele>
        <time>2021-03-18T08:35:47Z</time>
      </trkpt>
      <trkpt lat="43.45913" lon="5.75048">
        <ele>365</ele>
        <time>2021-03-18T08:35:53Z</time>
      </trkpt>
      <trkpt lat="43.45902" lon="5.75057">
        <ele>366</ele>
        <time>2021-03-18T08:36:04Z</time>
      </trkpt>
      <trkpt lat="43.45899" lon="5.75058">
        <ele>365</ele>
        <time>2021-03-18T08:36:08Z</time>
      </trkpt>
      <trkpt lat="43.45895" lon="5.75059">
        <ele>365</ele>
        <time>2021-03-18T08:36:11Z</time>
      </trkpt>
      <trkpt lat="43.45887" lon="5.75063">
        <ele>365</ele>
        <time>2021-03-18T08:36:19Z</time>
      </trkpt>
      <trkpt lat="43.45884" lon="5.75066">
        <ele>364</ele>
        <time>2021-03-18T08:36:22Z</time>
      </trkpt>
      <trkpt lat="43.45864" lon="5.75071">
        <ele>364</ele>
        <time>2021-03-18T08:36:57Z</time>
      </trkpt>
      <trkpt lat="43.45855" lon="5.75075">
        <ele>366</ele>
        <time>2021-03-18T08:37:09Z</time>
      </trkpt>
      <trkpt lat="43.45851" lon="5.75077">
        <ele>366</ele>
        <time>2021-03-18T08:37:14Z</time>
      </trkpt>
      <trkpt lat="43.45848" lon="5.7508">
        <ele>367</ele>
        <time>2021-03-18T08:37:18Z</time>
      </trkpt>
      <trkpt lat="43.45845" lon="5.75085">
        <ele>368</ele>
        <time>2021-03-18T08:37:23Z</time>
      </trkpt>
      <trkpt lat="43.45842" lon="5.75088">
        <ele>368</ele>
        <time>2021-03-18T08:37:26Z</time>
      </trkpt>
      <trkpt lat="43.4584" lon="5.75095">
        <ele>369</ele>
        <time>2021-03-18T08:37:32Z</time>
      </trkpt>
      <trkpt lat="43.45838" lon="5.75098">
        <ele>370</ele>
        <time>2021-03-18T08:37:35Z</time>
      </trkpt>
      <trkpt lat="43.45833" lon="5.75108">
        <ele>370</ele>
        <time>2021-03-18T08:37:46Z</time>
      </trkpt>
      <trkpt lat="43.45825" lon="5.75117">
        <ele>369</ele>
        <time>2021-03-18T08:37:56Z</time>
      </trkpt>
      <trkpt lat="43.45819" lon="5.75124">
        <ele>370</ele>
        <time>2021-03-18T08:38:06Z</time>
      </trkpt>
      <trkpt lat="43.4581" lon="5.75134">
        <ele>373</ele>
        <time>2021-03-18T08:38:21Z</time>
      </trkpt>
      <trkpt lat="43.45803" lon="5.7514">
        <ele>374</ele>
        <time>2021-03-18T08:38:29Z</time>
      </trkpt>
      <trkpt lat="43.45797" lon="5.75147">
        <ele>374</ele>
        <time>2021-03-18T08:38:38Z</time>
      </trkpt>
      <trkpt lat="43.45793" lon="5.75149">
        <ele>374</ele>
        <time>2021-03-18T08:38:44Z</time>
      </trkpt>
      <trkpt lat="43.45788" lon="5.75153">
        <ele>376</ele>
        <time>2021-03-18T08:38:53Z</time>
      </trkpt>
      <trkpt lat="43.45785" lon="5.75156">
        <ele>377</ele>
        <time>2021-03-18T08:38:57Z</time>
      </trkpt>
      <trkpt lat="43.45781" lon="5.7516">
        <ele>378</ele>
        <time>2021-03-18T08:39:01Z</time>
      </trkpt>
      <trkpt lat="43.45774" lon="5.75164">
        <ele>378</ele>
        <time>2021-03-18T08:39:09Z</time>
      </trkpt>
      <trkpt lat="43.4577" lon="5.75166">
        <ele>378</ele>
        <time>2021-03-18T08:39:15Z</time>
      </trkpt>
      <trkpt lat="43.45767" lon="5.75169">
        <ele>378</ele>
        <time>2021-03-18T08:39:19Z</time>
      </trkpt>
      <trkpt lat="43.45763" lon="5.75172">
        <ele>379</ele>
        <time>2021-03-18T08:39:23Z</time>
      </trkpt>
      <trkpt lat="43.4576" lon="5.75176">
        <ele>378</ele>
        <time>2021-03-18T08:39:33Z</time>
      </trkpt>
      <trkpt lat="43.45757" lon="5.75179">
        <ele>378</ele>
        <time>2021-03-18T08:39:36Z</time>
      </trkpt>
      <trkpt lat="43.45753" lon="5.75181">
        <ele>379</ele>
        <time>2021-03-18T08:39:39Z</time>
      </trkpt>
      <trkpt lat="43.4575" lon="5.75184">
        <ele>379</ele>
        <time>2021-03-18T08:39:43Z</time>
      </trkpt>
      <trkpt lat="43.45744" lon="5.75192">
        <ele>380</ele>
        <time>2021-03-18T08:40:01Z</time>
      </trkpt>
      <trkpt lat="43.45743" lon="5.75198">
        <ele>380</ele>
        <time>2021-03-18T08:40:15Z</time>
      </trkpt>
      <trkpt lat="43.45742" lon="5.75203">
        <ele>379</ele>
        <time>2021-03-18T08:40:21Z</time>
      </trkpt>
      <trkpt lat="43.45742" lon="5.75208">
        <ele>378</ele>
        <time>2021-03-18T08:40:26Z</time>
      </trkpt>
      <trkpt lat="43.4574" lon="5.75221">
        <ele>377</ele>
        <time>2021-03-18T08:40:42Z</time>
      </trkpt>
      <trkpt lat="43.45739" lon="5.75225">
        <ele>377</ele>
        <time>2021-03-18T08:41:32Z</time>
      </trkpt>
      <trkpt lat="43.45737" lon="5.75225">
        <ele>376</ele>
        <time>2021-03-18T08:42:17Z</time>
      </trkpt>
      <trkpt lat="43.45734" lon="5.75225">
        <ele>378</ele>
        <time>2021-03-18T08:42:57Z</time>
      </trkpt>
      <trkpt lat="43.45734" lon="5.75216">
        <ele>380</ele>
        <time>2021-03-18T08:43:06Z</time>
      </trkpt>
      <trkpt lat="43.45734" lon="5.75212">
        <ele>379</ele>
        <time>2021-03-18T08:43:09Z</time>
      </trkpt>
      <trkpt lat="43.45735" lon="5.75211">
        <ele>377</ele>
        <time>2021-03-18T08:43:20Z</time>
      </trkpt>
      <trkpt lat="43.45738" lon="5.75209">
        <ele>375</ele>
        <time>2021-03-18T08:44:33Z</time>
      </trkpt>
      <trkpt lat="43.4574" lon="5.7521">
        <ele>375</ele>
        <time>2021-03-18T08:46:48Z</time>
      </trkpt>
      <trkpt lat="43.45741" lon="5.75214">
        <ele>375</ele>
        <time>2021-03-18T08:47:28Z</time>
      </trkpt>
      <trkpt lat="43.45741" lon="5.75224">
        <ele>378</ele>
        <time>2021-03-18T08:47:41Z</time>
      </trkpt>
      <trkpt lat="43.45738" lon="5.75237">
        <ele>380</ele>
        <time>2021-03-18T08:47:52Z</time>
      </trkpt>
      <trkpt lat="43.45738" lon="5.75242">
        <ele>379</ele>
        <time>2021-03-18T08:47:57Z</time>
      </trkpt>
      <trkpt lat="43.45737" lon="5.75256">
        <ele>380</ele>
        <time>2021-03-18T08:48:08Z</time>
      </trkpt>
      <trkpt lat="43.45735" lon="5.7527">
        <ele>382</ele>
        <time>2021-03-18T08:48:19Z</time>
      </trkpt>
      <trkpt lat="43.45731" lon="5.7528">
        <ele>382</ele>
        <time>2021-03-18T08:48:26Z</time>
      </trkpt>
      <trkpt lat="43.4573" lon="5.75285">
        <ele>383</ele>
        <time>2021-03-18T08:48:31Z</time>
      </trkpt>
      <trkpt lat="43.45729" lon="5.7529">
        <ele>384</ele>
        <time>2021-03-18T08:48:35Z</time>
      </trkpt>
      <trkpt lat="43.45712" lon="5.75322">
        <ele>385</ele>
        <time>2021-03-18T08:49:04Z</time>
      </trkpt>
      <trkpt lat="43.45709" lon="5.75326">
        <ele>384</ele>
        <time>2021-03-18T08:49:09Z</time>
      </trkpt>
      <trkpt lat="43.45704" lon="5.75331">
        <ele>386</ele>
        <time>2021-03-18T08:49:14Z</time>
      </trkpt>
      <trkpt lat="43.45702" lon="5.75333">
        <ele>386</ele>
        <time>2021-03-18T08:49:17Z</time>
      </trkpt>
      <trkpt lat="43.45701" lon="5.75336">
        <ele>386</ele>
        <time>2021-03-18T08:49:40Z</time>
      </trkpt>
      <trkpt lat="43.45699" lon="5.75337">
        <ele>386</ele>
        <time>2021-03-18T08:49:45Z</time>
      </trkpt>
      <trkpt lat="43.45697" lon="5.75335">
        <ele>386</ele>
        <time>2021-03-18T08:49:48Z</time>
      </trkpt>
      <trkpt lat="43.45696" lon="5.75333">
        <ele>388</ele>
        <time>2021-03-18T08:51:16Z</time>
      </trkpt>
      <trkpt lat="43.45693" lon="5.75332">
        <ele>388</ele>
        <time>2021-03-18T08:51:28Z</time>
      </trkpt>
      <trkpt lat="43.45693" lon="5.75336">
        <ele>388</ele>
        <time>2021-03-18T08:51:40Z</time>
      </trkpt>
      <trkpt lat="43.45694" lon="5.7534">
        <ele>387</ele>
        <time>2021-03-18T08:51:45Z</time>
      </trkpt>
      <trkpt lat="43.45693" lon="5.75346">
        <ele>386</ele>
        <time>2021-03-18T08:51:50Z</time>
      </trkpt>
      <trkpt lat="43.45691" lon="5.75356">
        <ele>386</ele>
        <time>2021-03-18T08:51:57Z</time>
      </trkpt>
      <trkpt lat="43.45686" lon="5.75364">
        <ele>386</ele>
        <time>2021-03-18T08:52:04Z</time>
      </trkpt>
      <trkpt lat="43.45686" lon="5.75368">
        <ele>386</ele>
        <time>2021-03-18T08:52:07Z</time>
      </trkpt>
      <trkpt lat="43.45686" lon="5.75379">
        <ele>386</ele>
        <time>2021-03-18T08:52:15Z</time>
      </trkpt>
      <trkpt lat="43.45686" lon="5.75384">
        <ele>386</ele>
        <time>2021-03-18T08:52:19Z</time>
      </trkpt>
      <trkpt lat="43.45688" lon="5.75389">
        <ele>387</ele>
        <time>2021-03-18T08:52:24Z</time>
      </trkpt>
      <trkpt lat="43.45692" lon="5.75392">
        <ele>389</ele>
        <time>2021-03-18T08:52:29Z</time>
      </trkpt>
      <trkpt lat="43.45697" lon="5.75393">
        <ele>392</ele>
        <time>2021-03-18T08:52:34Z</time>
      </trkpt>
      <trkpt lat="43.457" lon="5.75392">
        <ele>393</ele>
        <time>2021-03-18T08:52:40Z</time>
      </trkpt>
      <trkpt lat="43.45711" lon="5.75394">
        <ele>395</ele>
        <time>2021-03-18T08:52:50Z</time>
      </trkpt>
      <trkpt lat="43.45716" lon="5.75393">
        <ele>395</ele>
        <time>2021-03-18T08:52:55Z</time>
      </trkpt>
      <trkpt lat="43.45719" lon="5.75391">
        <ele>395</ele>
        <time>2021-03-18T08:52:58Z</time>
      </trkpt>
      <trkpt lat="43.45723" lon="5.75393">
        <ele>394</ele>
        <time>2021-03-18T08:53:01Z</time>
      </trkpt>
      <trkpt lat="43.45726" lon="5.75394">
        <ele>394</ele>
        <time>2021-03-18T08:53:03Z</time>
      </trkpt>
      <trkpt lat="43.45731" lon="5.75399">
        <ele>394</ele>
        <time>2021-03-18T08:53:09Z</time>
      </trkpt>
      <trkpt lat="43.45737" lon="5.75404">
        <ele>393</ele>
        <time>2021-03-18T08:53:16Z</time>
      </trkpt>
      <trkpt lat="43.4574" lon="5.75413">
        <ele>392</ele>
        <time>2021-03-18T08:53:25Z</time>
      </trkpt>
      <trkpt lat="43.45738" lon="5.75424">
        <ele>391</ele>
        <time>2021-03-18T08:53:33Z</time>
      </trkpt>
      <trkpt lat="43.45737" lon="5.75429">
        <ele>390</ele>
        <time>2021-03-18T08:53:37Z</time>
      </trkpt>
      <trkpt lat="43.45733" lon="5.75442">
        <ele>388</ele>
        <time>2021-03-18T08:53:47Z</time>
      </trkpt>
      <trkpt lat="43.45726" lon="5.75451">
        <ele>387</ele>
        <time>2021-03-18T08:53:57Z</time>
      </trkpt>
      <trkpt lat="43.4572" lon="5.75467">
        <ele>390</ele>
        <time>2021-03-18T08:54:11Z</time>
      </trkpt>
      <trkpt lat="43.45718" lon="5.75476">
        <ele>392</ele>
        <time>2021-03-18T08:54:20Z</time>
      </trkpt>
      <trkpt lat="43.45716" lon="5.7548">
        <ele>393</ele>
        <time>2021-03-18T08:54:23Z</time>
      </trkpt>
      <trkpt lat="43.45713" lon="5.75484">
        <ele>394</ele>
        <time>2021-03-18T08:54:26Z</time>
      </trkpt>
      <trkpt lat="43.45714" lon="5.75492">
        <ele>394</ele>
        <time>2021-03-18T08:54:35Z</time>
      </trkpt>
      <trkpt lat="43.45713" lon="5.75497">
        <ele>396</ele>
        <time>2021-03-18T08:54:40Z</time>
      </trkpt>
      <trkpt lat="43.45711" lon="5.75501">
        <ele>397</ele>
        <time>2021-03-18T08:54:44Z</time>
      </trkpt>
      <trkpt lat="43.4571" lon="5.75506">
        <ele>397</ele>
        <time>2021-03-18T08:54:48Z</time>
      </trkpt>
      <trkpt lat="43.45707" lon="5.75517">
        <ele>400</ele>
        <time>2021-03-18T08:54:56Z</time>
      </trkpt>
      <trkpt lat="43.45705" lon="5.75521">
        <ele>401</ele>
        <time>2021-03-18T08:55:01Z</time>
      </trkpt>
      <trkpt lat="43.45705" lon="5.75533">
        <ele>403</ele>
        <time>2021-03-18T08:55:11Z</time>
      </trkpt>
      <trkpt lat="43.45705" lon="5.75545">
        <ele>405</ele>
        <time>2021-03-18T08:55:22Z</time>
      </trkpt>
      <trkpt lat="43.45703" lon="5.75555">
        <ele>406</ele>
        <time>2021-03-18T08:55:30Z</time>
      </trkpt>
      <trkpt lat="43.45703" lon="5.75559">
        <ele>406</ele>
        <time>2021-03-18T08:55:33Z</time>
      </trkpt>
      <trkpt lat="43.45703" lon="5.75564">
        <ele>405</ele>
        <time>2021-03-18T08:55:36Z</time>
      </trkpt>
      <trkpt lat="43.45696" lon="5.7559">
        <ele>407</ele>
        <time>2021-03-18T08:55:58Z</time>
      </trkpt>
      <trkpt lat="43.45697" lon="5.75595">
        <ele>407</ele>
        <time>2021-03-18T08:56:03Z</time>
      </trkpt>
      <trkpt lat="43.45696" lon="5.75615">
        <ele>410</ele>
        <time>2021-03-18T08:56:17Z</time>
      </trkpt>
      <trkpt lat="43.45695" lon="5.75619">
        <ele>410</ele>
        <time>2021-03-18T08:56:21Z</time>
      </trkpt>
      <trkpt lat="43.45698" lon="5.75631">
        <ele>410</ele>
        <time>2021-03-18T08:56:30Z</time>
      </trkpt>
      <trkpt lat="43.45694" lon="5.75656">
        <ele>412</ele>
        <time>2021-03-18T08:56:54Z</time>
      </trkpt>
      <trkpt lat="43.45693" lon="5.7566">
        <ele>412</ele>
        <time>2021-03-18T08:56:58Z</time>
      </trkpt>
      <trkpt lat="43.45689" lon="5.75669">
        <ele>414</ele>
        <time>2021-03-18T08:57:09Z</time>
      </trkpt>
      <trkpt lat="43.45684" lon="5.75678">
        <ele>415</ele>
        <time>2021-03-18T08:57:16Z</time>
      </trkpt>
      <trkpt lat="43.45682" lon="5.75681">
        <ele>415</ele>
        <time>2021-03-18T08:57:20Z</time>
      </trkpt>
      <trkpt lat="43.45682" lon="5.7569">
        <ele>415</ele>
        <time>2021-03-18T08:57:28Z</time>
      </trkpt>
      <trkpt lat="43.45679" lon="5.75699">
        <ele>418</ele>
        <time>2021-03-18T08:57:38Z</time>
      </trkpt>
      <trkpt lat="43.45677" lon="5.75711">
        <ele>421</ele>
        <time>2021-03-18T08:57:49Z</time>
      </trkpt>
      <trkpt lat="43.45676" lon="5.75715">
        <ele>421</ele>
        <time>2021-03-18T08:57:52Z</time>
      </trkpt>
      <trkpt lat="43.45675" lon="5.7572">
        <ele>421</ele>
        <time>2021-03-18T08:57:56Z</time>
      </trkpt>
      <trkpt lat="43.45676" lon="5.7573">
        <ele>421</ele>
        <time>2021-03-18T08:58:05Z</time>
      </trkpt>
      <trkpt lat="43.45675" lon="5.75739">
        <ele>423</ele>
        <time>2021-03-18T08:58:13Z</time>
      </trkpt>
      <trkpt lat="43.45675" lon="5.75757">
        <ele>424</ele>
        <time>2021-03-18T08:58:27Z</time>
      </trkpt>
      <trkpt lat="43.45676" lon="5.75765">
        <ele>424</ele>
        <time>2021-03-18T08:58:34Z</time>
      </trkpt>
      <trkpt lat="43.45675" lon="5.75774">
        <ele>424</ele>
        <time>2021-03-18T08:58:41Z</time>
      </trkpt>
      <trkpt lat="43.45675" lon="5.75778">
        <ele>424</ele>
        <time>2021-03-18T08:58:44Z</time>
      </trkpt>
      <trkpt lat="43.45676" lon="5.75783">
        <ele>423</ele>
        <time>2021-03-18T08:58:47Z</time>
      </trkpt>
      <trkpt lat="43.45679" lon="5.75793">
        <ele>422</ele>
        <time>2021-03-18T08:58:57Z</time>
      </trkpt>
      <trkpt lat="43.45685" lon="5.75803">
        <ele>423</ele>
        <time>2021-03-18T08:59:06Z</time>
      </trkpt>
      <trkpt lat="43.4569" lon="5.75807">
        <ele>424</ele>
        <time>2021-03-18T08:59:14Z</time>
      </trkpt>
      <trkpt lat="43.457" lon="5.7581">
        <ele>426</ele>
        <time>2021-03-18T08:59:24Z</time>
      </trkpt>
      <trkpt lat="43.45703" lon="5.75809">
        <ele>426</ele>
        <time>2021-03-18T08:59:27Z</time>
      </trkpt>
      <trkpt lat="43.45728" lon="5.75826">
        <ele>428</ele>
        <time>2021-03-18T08:59:52Z</time>
      </trkpt>
      <trkpt lat="43.4573" lon="5.7583">
        <ele>428</ele>
        <time>2021-03-18T08:59:56Z</time>
      </trkpt>
      <trkpt lat="43.45732" lon="5.75833">
        <ele>427</ele>
        <time>2021-03-18T08:59:59Z</time>
      </trkpt>
      <trkpt lat="43.45736" lon="5.75843">
        <ele>426</ele>
        <time>2021-03-18T09:00:06Z</time>
      </trkpt>
      <trkpt lat="43.45737" lon="5.75845">
        <ele>426</ele>
        <time>2021-03-18T09:00:08Z</time>
      </trkpt>
      <trkpt lat="43.45742" lon="5.75851">
        <ele>425</ele>
        <time>2021-03-18T09:00:12Z</time>
      </trkpt>
      <trkpt lat="43.45743" lon="5.75855">
        <ele>424</ele>
        <time>2021-03-18T09:00:15Z</time>
      </trkpt>
      <trkpt lat="43.45743" lon="5.75859">
        <ele>424</ele>
        <time>2021-03-18T09:00:19Z</time>
      </trkpt>
      <trkpt lat="43.45741" lon="5.75863">
        <ele>423</ele>
        <time>2021-03-18T09:00:35Z</time>
      </trkpt>
      <trkpt lat="43.45741" lon="5.75865">
        <ele>421</ele>
        <time>2021-03-18T09:03:18Z</time>
      </trkpt>
      <trkpt lat="43.45735" lon="5.75865">
        <ele>422</ele>
        <time>2021-03-18T09:03:23Z</time>
      </trkpt>
      <trkpt lat="43.45732" lon="5.75866">
        <ele>422</ele>
        <time>2021-03-18T09:03:27Z</time>
      </trkpt>
      <trkpt lat="43.45729" lon="5.75866">
        <ele>422</ele>
        <time>2021-03-18T09:03:32Z</time>
      </trkpt>
      <trkpt lat="43.45724" lon="5.75868">
        <ele>422</ele>
        <time>2021-03-18T09:03:39Z</time>
      </trkpt>
      <trkpt lat="43.45717" lon="5.75875">
        <ele>421</ele>
        <time>2021-03-18T09:03:52Z</time>
      </trkpt>
      <trkpt lat="43.45712" lon="5.75881">
        <ele>422</ele>
        <time>2021-03-18T09:04:01Z</time>
      </trkpt>
      <trkpt lat="43.45708" lon="5.75883">
        <ele>423</ele>
        <time>2021-03-18T09:04:08Z</time>
      </trkpt>
      <trkpt lat="43.45701" lon="5.75887">
        <ele>427</ele>
        <time>2021-03-18T09:04:22Z</time>
      </trkpt>
      <trkpt lat="43.45698" lon="5.75889">
        <ele>428</ele>
        <time>2021-03-18T09:04:26Z</time>
      </trkpt>
      <trkpt lat="43.45691" lon="5.75892">
        <ele>429</ele>
        <time>2021-03-18T09:04:32Z</time>
      </trkpt>
      <trkpt lat="43.45688" lon="5.75894">
        <ele>429</ele>
        <time>2021-03-18T09:04:36Z</time>
      </trkpt>
      <trkpt lat="43.45673" lon="5.75899">
        <ele>433</ele>
        <time>2021-03-18T09:04:56Z</time>
      </trkpt>
      <trkpt lat="43.45659" lon="5.75898">
        <ele>435</ele>
        <time>2021-03-18T09:05:15Z</time>
      </trkpt>
      <trkpt lat="43.45648" lon="5.75902">
        <ele>439</ele>
        <time>2021-03-18T09:05:28Z</time>
      </trkpt>
      <trkpt lat="43.45644" lon="5.75901">
        <ele>439</ele>
        <time>2021-03-18T09:05:32Z</time>
      </trkpt>
      <trkpt lat="43.4564" lon="5.75899">
        <ele>440</ele>
        <time>2021-03-18T09:05:36Z</time>
      </trkpt>
      <trkpt lat="43.45634" lon="5.75897">
        <ele>442</ele>
        <time>2021-03-18T09:05:45Z</time>
      </trkpt>
      <trkpt lat="43.45626" lon="5.75893">
        <ele>443</ele>
        <time>2021-03-18T09:05:57Z</time>
      </trkpt>
      <trkpt lat="43.45622" lon="5.75891">
        <ele>445</ele>
        <time>2021-03-18T09:06:06Z</time>
      </trkpt>
      <trkpt lat="43.45617" lon="5.75892">
        <ele>446</ele>
        <time>2021-03-18T09:06:11Z</time>
      </trkpt>
      <trkpt lat="43.45614" lon="5.75892">
        <ele>446</ele>
        <time>2021-03-18T09:06:14Z</time>
      </trkpt>
      <trkpt lat="43.4561" lon="5.75892">
        <ele>447</ele>
        <time>2021-03-18T09:06:19Z</time>
      </trkpt>
      <trkpt lat="43.45606" lon="5.75894">
        <ele>446</ele>
        <time>2021-03-18T09:06:26Z</time>
      </trkpt>
      <trkpt lat="43.45598" lon="5.75896">
        <ele>448</ele>
        <time>2021-03-18T09:06:35Z</time>
      </trkpt>
      <trkpt lat="43.45589" lon="5.75908">
        <ele>449</ele>
        <time>2021-03-18T09:06:49Z</time>
      </trkpt>
      <trkpt lat="43.45587" lon="5.75912">
        <ele>450</ele>
        <time>2021-03-18T09:06:55Z</time>
      </trkpt>
      <trkpt lat="43.45584" lon="5.75917">
        <ele>452</ele>
        <time>2021-03-18T09:07:03Z</time>
      </trkpt>
      <trkpt lat="43.45582" lon="5.7592">
        <ele>453</ele>
        <time>2021-03-18T09:07:07Z</time>
      </trkpt>
      <trkpt lat="43.45581" lon="5.75924">
        <ele>453</ele>
        <time>2021-03-18T09:07:12Z</time>
      </trkpt>
      <trkpt lat="43.45578" lon="5.75928">
        <ele>454</ele>
        <time>2021-03-18T09:07:18Z</time>
      </trkpt>
      <trkpt lat="43.45576" lon="5.75932">
        <ele>454</ele>
        <time>2021-03-18T09:07:22Z</time>
      </trkpt>
      <trkpt lat="43.45573" lon="5.75935">
        <ele>454</ele>
        <time>2021-03-18T09:07:27Z</time>
      </trkpt>
      <trkpt lat="43.45572" lon="5.75938">
        <ele>456</ele>
        <time>2021-03-18T09:07:32Z</time>
      </trkpt>
      <trkpt lat="43.4557" lon="5.75943">
        <ele>456</ele>
        <time>2021-03-18T09:07:37Z</time>
      </trkpt>
      <trkpt lat="43.45567" lon="5.75946">
        <ele>456</ele>
        <time>2021-03-18T09:07:42Z</time>
      </trkpt>
      <trkpt lat="43.45564" lon="5.75949">
        <ele>457</ele>
        <time>2021-03-18T09:07:47Z</time>
      </trkpt>
      <trkpt lat="43.45562" lon="5.75951">
        <ele>458</ele>
        <time>2021-03-18T09:07:52Z</time>
      </trkpt>
      <trkpt lat="43.45558" lon="5.75952">
        <ele>458</ele>
        <time>2021-03-18T09:07:56Z</time>
      </trkpt>
      <trkpt lat="43.45554" lon="5.75952">
        <ele>458</ele>
        <time>2021-03-18T09:07:59Z</time>
      </trkpt>
      <trkpt lat="43.45545" lon="5.75949">
        <ele>459</ele>
        <time>2021-03-18T09:08:12Z</time>
      </trkpt>
      <trkpt lat="43.45543" lon="5.75952">
        <ele>459</ele>
        <time>2021-03-18T09:08:27Z</time>
      </trkpt>
      <trkpt lat="43.45541" lon="5.75956">
        <ele>459</ele>
        <time>2021-03-18T09:08:32Z</time>
      </trkpt>
      <trkpt lat="43.45538" lon="5.75958">
        <ele>463</ele>
        <time>2021-03-18T09:08:39Z</time>
      </trkpt>
      <trkpt lat="43.45536" lon="5.75963">
        <ele>463</ele>
        <time>2021-03-18T09:08:44Z</time>
      </trkpt>
      <trkpt lat="43.45534" lon="5.75968">
        <ele>464</ele>
        <time>2021-03-18T09:08:49Z</time>
      </trkpt>
      <trkpt lat="43.45532" lon="5.75978">
        <ele>466</ele>
        <time>2021-03-18T09:09:00Z</time>
      </trkpt>
      <trkpt lat="43.4553" lon="5.75982">
        <ele>467</ele>
        <time>2021-03-18T09:09:06Z</time>
      </trkpt>
      <trkpt lat="43.45525" lon="5.7599">
        <ele>467</ele>
        <time>2021-03-18T09:09:15Z</time>
      </trkpt>
      <trkpt lat="43.45523" lon="5.75992">
        <ele>467</ele>
        <time>2021-03-18T09:09:17Z</time>
      </trkpt>
      <trkpt lat="43.45514" lon="5.76">
        <ele>467</ele>
        <time>2021-03-18T09:09:36Z</time>
      </trkpt>
      <trkpt lat="43.45507" lon="5.76001">
        <ele>469</ele>
        <time>2021-03-18T09:09:46Z</time>
      </trkpt>
      <trkpt lat="43.45505" lon="5.76006">
        <ele>470</ele>
        <time>2021-03-18T09:09:55Z</time>
      </trkpt>
      <trkpt lat="43.45502" lon="5.76009">
        <ele>471</ele>
        <time>2021-03-18T09:10:02Z</time>
      </trkpt>
      <trkpt lat="43.45498" lon="5.76011">
        <ele>472</ele>
        <time>2021-03-18T09:10:08Z</time>
      </trkpt>
      <trkpt lat="43.45495" lon="5.76012">
        <ele>475</ele>
        <time>2021-03-18T09:10:13Z</time>
      </trkpt>
      <trkpt lat="43.45492" lon="5.76014">
        <ele>475</ele>
        <time>2021-03-18T09:10:22Z</time>
      </trkpt>
      <trkpt lat="43.45484" lon="5.76025">
        <ele>482</ele>
        <time>2021-03-18T09:10:52Z</time>
      </trkpt>
      <trkpt lat="43.45482" lon="5.76028">
        <ele>483</ele>
        <time>2021-03-18T09:10:56Z</time>
      </trkpt>
      <trkpt lat="43.4548" lon="5.76033">
        <ele>483</ele>
        <time>2021-03-18T09:11:02Z</time>
      </trkpt>
      <trkpt lat="43.45478" lon="5.76037">
        <ele>483</ele>
        <time>2021-03-18T09:11:06Z</time>
      </trkpt>
      <trkpt lat="43.45471" lon="5.76046">
        <ele>484</ele>
        <time>2021-03-18T09:11:23Z</time>
      </trkpt>
      <trkpt lat="43.45467" lon="5.76047">
        <ele>484</ele>
        <time>2021-03-18T09:11:31Z</time>
      </trkpt>
      <trkpt lat="43.45465" lon="5.7605">
        <ele>485</ele>
        <time>2021-03-18T09:11:38Z</time>
      </trkpt>
      <trkpt lat="43.45464" lon="5.76054">
        <ele>486</ele>
        <time>2021-03-18T09:11:43Z</time>
      </trkpt>
      <trkpt lat="43.45464" lon="5.76058">
        <ele>488</ele>
        <time>2021-03-18T09:11:49Z</time>
      </trkpt>
      <trkpt lat="43.45463" lon="5.76062">
        <ele>489</ele>
        <time>2021-03-18T09:11:52Z</time>
      </trkpt>
      <trkpt lat="43.45464" lon="5.76066">
        <ele>491</ele>
        <time>2021-03-18T09:11:56Z</time>
      </trkpt>
      <trkpt lat="43.45463" lon="5.76071">
        <ele>492</ele>
        <time>2021-03-18T09:12:01Z</time>
      </trkpt>
      <trkpt lat="43.45463" lon="5.76075">
        <ele>494</ele>
        <time>2021-03-18T09:12:06Z</time>
      </trkpt>
      <trkpt lat="43.45462" lon="5.76084">
        <ele>496</ele>
        <time>2021-03-18T09:12:19Z</time>
      </trkpt>
      <trkpt lat="43.45461" lon="5.76087">
        <ele>497</ele>
        <time>2021-03-18T09:12:23Z</time>
      </trkpt>
      <trkpt lat="43.4546" lon="5.76096">
        <ele>497</ele>
        <time>2021-03-18T09:12:34Z</time>
      </trkpt>
      <trkpt lat="43.45462" lon="5.76107">
        <ele>498</ele>
        <time>2021-03-18T09:12:44Z</time>
      </trkpt>
      <trkpt lat="43.45461" lon="5.76113">
        <ele>499</ele>
        <time>2021-03-18T09:12:56Z</time>
      </trkpt>
      <trkpt lat="43.45461" lon="5.76118">
        <ele>502</ele>
        <time>2021-03-18T09:13:04Z</time>
      </trkpt>
      <trkpt lat="43.45461" lon="5.76124">
        <ele>503</ele>
        <time>2021-03-18T09:13:12Z</time>
      </trkpt>
      <trkpt lat="43.4546" lon="5.76129">
        <ele>503</ele>
        <time>2021-03-18T09:13:17Z</time>
      </trkpt>
      <trkpt lat="43.45459" lon="5.76133">
        <ele>502</ele>
        <time>2021-03-18T09:13:22Z</time>
      </trkpt>
      <trkpt lat="43.45458" lon="5.76147">
        <ele>507</ele>
        <time>2021-03-18T09:13:46Z</time>
      </trkpt>
      <trkpt lat="43.45457" lon="5.76152">
        <ele>510</ele>
        <time>2021-03-18T09:13:52Z</time>
      </trkpt>
      <trkpt lat="43.45457" lon="5.76158">
        <ele>511</ele>
        <time>2021-03-18T09:13:59Z</time>
      </trkpt>
      <trkpt lat="43.45457" lon="5.76164">
        <ele>512</ele>
        <time>2021-03-18T09:14:12Z</time>
      </trkpt>
      <trkpt lat="43.45456" lon="5.7617">
        <ele>511</ele>
        <time>2021-03-18T09:14:19Z</time>
      </trkpt>
      <trkpt lat="43.45453" lon="5.76174">
        <ele>510</ele>
        <time>2021-03-18T09:14:23Z</time>
      </trkpt>
      <trkpt lat="43.4545" lon="5.7618">
        <ele>510</ele>
        <time>2021-03-18T09:14:32Z</time>
      </trkpt>
      <trkpt lat="43.45448" lon="5.76184">
        <ele>512</ele>
        <time>2021-03-18T09:14:54Z</time>
      </trkpt>
      <trkpt lat="43.45442" lon="5.76192">
        <ele>514</ele>
        <time>2021-03-18T09:15:08Z</time>
      </trkpt>
      <trkpt lat="43.45442" lon="5.76197">
        <ele>517</ele>
        <time>2021-03-18T09:15:18Z</time>
      </trkpt>
      <trkpt lat="43.45438" lon="5.76206">
        <ele>525</ele>
        <time>2021-03-18T09:15:38Z</time>
      </trkpt>
      <trkpt lat="43.45427" lon="5.76212">
        <ele>528</ele>
        <time>2021-03-18T09:16:04Z</time>
      </trkpt>
      <trkpt lat="43.45424" lon="5.76215">
        <ele>528</ele>
        <time>2021-03-18T09:16:16Z</time>
      </trkpt>
      <trkpt lat="43.4542" lon="5.76216">
        <ele>529</ele>
        <time>2021-03-18T09:16:28Z</time>
      </trkpt>
      <trkpt lat="43.45418" lon="5.76221">
        <ele>530</ele>
        <time>2021-03-18T09:16:39Z</time>
      </trkpt>
      <trkpt lat="43.45415" lon="5.76223">
        <ele>533</ele>
        <time>2021-03-18T09:16:50Z</time>
      </trkpt>
      <trkpt lat="43.4541" lon="5.76233">
        <ele>535</ele>
        <time>2021-03-18T09:17:05Z</time>
      </trkpt>
      <trkpt lat="43.45401" lon="5.76238">
        <ele>539</ele>
        <time>2021-03-18T09:17:41Z</time>
      </trkpt>
      <trkpt lat="43.45401" lon="5.76244">
        <ele>541</ele>
        <time>2021-03-18T09:17:49Z</time>
      </trkpt>
      <trkpt lat="43.45397" lon="5.7625">
        <ele>545</ele>
        <time>2021-03-18T09:17:58Z</time>
      </trkpt>
      <trkpt lat="43.45399" lon="5.76254">
        <ele>547</ele>
        <time>2021-03-18T09:18:08Z</time>
      </trkpt>
      <trkpt lat="43.45396" lon="5.7626">
        <ele>549</ele>
        <time>2021-03-18T09:18:23Z</time>
      </trkpt>
      <trkpt lat="43.45397" lon="5.76265">
        <ele>550</ele>
        <time>2021-03-18T09:18:34Z</time>
      </trkpt>
      <trkpt lat="43.45395" lon="5.7627">
        <ele>549</ele>
        <time>2021-03-18T09:18:44Z</time>
      </trkpt>
      <trkpt lat="43.45393" lon="5.76269">
        <ele>547</ele>
        <time>2021-03-18T09:22:06Z</time>
      </trkpt>
      <trkpt lat="43.45392" lon="5.76271">
        <ele>546</ele>
        <time>2021-03-18T09:23:25Z</time>
      </trkpt>
      <trkpt lat="43.45395" lon="5.76276">
        <ele>546</ele>
        <time>2021-03-18T09:25:44Z</time>
      </trkpt>
      <trkpt lat="43.45392" lon="5.7628">
        <ele>545</ele>
        <time>2021-03-18T09:28:09Z</time>
      </trkpt>
      <trkpt lat="43.45388" lon="5.7628">
        <ele>545</ele>
        <time>2021-03-18T09:28:18Z</time>
      </trkpt>
      <trkpt lat="43.4538" lon="5.76279">
        <ele>550</ele>
        <time>2021-03-18T09:28:32Z</time>
      </trkpt>
      <trkpt lat="43.45377" lon="5.76276">
        <ele>551</ele>
        <time>2021-03-18T09:28:42Z</time>
      </trkpt>
      <trkpt lat="43.45373" lon="5.76274">
        <ele>552</ele>
        <time>2021-03-18T09:28:48Z</time>
      </trkpt>
      <trkpt lat="43.4537" lon="5.76272">
        <ele>554</ele>
        <time>2021-03-18T09:28:59Z</time>
      </trkpt>
      <trkpt lat="43.45369" lon="5.76278">
        <ele>555</ele>
        <time>2021-03-18T09:29:16Z</time>
      </trkpt>
      <trkpt lat="43.45369" lon="5.76288">
        <ele>562</ele>
        <time>2021-03-18T09:29:34Z</time>
      </trkpt>
      <trkpt lat="43.4537" lon="5.76293">
        <ele>563</ele>
        <time>2021-03-18T09:29:39Z</time>
      </trkpt>
      <trkpt lat="43.45371" lon="5.76298">
        <ele>566</ele>
        <time>2021-03-18T09:29:45Z</time>
      </trkpt>
      <trkpt lat="43.4537" lon="5.76302">
        <ele>567</ele>
        <time>2021-03-18T09:29:52Z</time>
      </trkpt>
      <trkpt lat="43.4537" lon="5.76307">
        <ele>568</ele>
        <time>2021-03-18T09:29:57Z</time>
      </trkpt>
      <trkpt lat="43.4537" lon="5.76312">
        <ele>568</ele>
        <time>2021-03-18T09:30:06Z</time>
      </trkpt>
      <trkpt lat="43.4537" lon="5.76317">
        <ele>569</ele>
        <time>2021-03-18T09:30:14Z</time>
      </trkpt>
      <trkpt lat="43.45369" lon="5.76323">
        <ele>568</ele>
        <time>2021-03-18T09:30:28Z</time>
      </trkpt>
      <trkpt lat="43.45368" lon="5.7633">
        <ele>572</ele>
        <time>2021-03-18T09:30:38Z</time>
      </trkpt>
      <trkpt lat="43.45367" lon="5.76333">
        <ele>572</ele>
        <time>2021-03-18T09:30:42Z</time>
      </trkpt>
      <trkpt lat="43.45368" lon="5.76338">
        <ele>573</ele>
        <time>2021-03-18T09:30:46Z</time>
      </trkpt>
      <trkpt lat="43.45367" lon="5.76343">
        <ele>574</ele>
        <time>2021-03-18T09:30:53Z</time>
      </trkpt>
      <trkpt lat="43.45366" lon="5.76348">
        <ele>576</ele>
        <time>2021-03-18T09:31:09Z</time>
      </trkpt>
      <trkpt lat="43.45368" lon="5.76357">
        <ele>577</ele>
        <time>2021-03-18T09:31:24Z</time>
      </trkpt>
      <trkpt lat="43.45371" lon="5.7636">
        <ele>578</ele>
        <time>2021-03-18T09:31:30Z</time>
      </trkpt>
      <trkpt lat="43.45373" lon="5.76373">
        <ele>583</ele>
        <time>2021-03-18T09:31:52Z</time>
      </trkpt>
      <trkpt lat="43.45374" lon="5.76376">
        <ele>584</ele>
        <time>2021-03-18T09:31:56Z</time>
      </trkpt>
      <trkpt lat="43.45376" lon="5.76378">
        <ele>587</ele>
        <time>2021-03-18T09:32:08Z</time>
      </trkpt>
      <trkpt lat="43.45377" lon="5.76383">
        <ele>588</ele>
        <time>2021-03-18T09:32:13Z</time>
      </trkpt>
      <trkpt lat="43.45377" lon="5.76387">
        <ele>590</ele>
        <time>2021-03-18T09:32:16Z</time>
      </trkpt>
      <trkpt lat="43.45378" lon="5.76391">
        <ele>590</ele>
        <time>2021-03-18T09:32:19Z</time>
      </trkpt>
      <trkpt lat="43.45378" lon="5.76396">
        <ele>589</ele>
        <time>2021-03-18T09:32:27Z</time>
      </trkpt>
      <trkpt lat="43.45379" lon="5.764">
        <ele>590</ele>
        <time>2021-03-18T09:32:35Z</time>
      </trkpt>
      <trkpt lat="43.45383" lon="5.76412">
        <ele>593</ele>
        <time>2021-03-18T09:32:47Z</time>
      </trkpt>
      <trkpt lat="43.45385" lon="5.76416">
        <ele>594</ele>
        <time>2021-03-18T09:32:50Z</time>
      </trkpt>
      <trkpt lat="43.45385" lon="5.7642">
        <ele>595</ele>
        <time>2021-03-18T09:32:53Z</time>
      </trkpt>
      <trkpt lat="43.45384" lon="5.76422">
        <ele>594</ele>
        <time>2021-03-18T09:33:00Z</time>
      </trkpt>
      <trkpt lat="43.45383" lon="5.76424">
        <ele>594</ele>
        <time>2021-03-18T09:33:14Z</time>
      </trkpt>
      <trkpt lat="43.45382" lon="5.76425">
        <ele>593</ele>
        <time>2021-03-18T09:34:14Z</time>
      </trkpt>
      <trkpt lat="43.45379" lon="5.76424">
        <ele>592</ele>
        <time>2021-03-18T09:34:46Z</time>
      </trkpt>
      <trkpt lat="43.45381" lon="5.76423">
        <ele>592</ele>
        <time>2021-03-18T09:35:21Z</time>
      </trkpt>
      <trkpt lat="43.45382" lon="5.76423">
        <ele>591</ele>
        <time>2021-03-18T09:35:45Z</time>
      </trkpt>
      <trkpt lat="43.45382" lon="5.76426">
        <ele>591</ele>
        <time>2021-03-18T09:36:45Z</time>
      </trkpt>
      <trkpt lat="43.45381" lon="5.76428">
        <ele>591</ele>
        <time>2021-03-18T09:36:51Z</time>
      </trkpt>
      <trkpt lat="43.45379" lon="5.76426">
        <ele>591</ele>
        <time>2021-03-18T09:37:08Z</time>
      </trkpt>
      <trkpt lat="43.4538" lon="5.76423">
        <ele>592</ele>
        <time>2021-03-18T09:40:23Z</time>
      </trkpt>
      <trkpt lat="43.45372" lon="5.76419">
        <ele>591</ele>
        <time>2021-03-18T09:40:34Z</time>
      </trkpt>
      <trkpt lat="43.45367" lon="5.76416">
        <ele>590</ele>
        <time>2021-03-18T09:40:39Z</time>
      </trkpt>
      <trkpt lat="43.45365" lon="5.76415">
        <ele>590</ele>
        <time>2021-03-18T09:40:42Z</time>
      </trkpt>
      <trkpt lat="43.45361" lon="5.7641">
        <ele>590</ele>
        <time>2021-03-18T09:40:48Z</time>
      </trkpt>
      <trkpt lat="43.45358" lon="5.76403">
        <ele>591</ele>
        <time>2021-03-18T09:40:55Z</time>
      </trkpt>
      <trkpt lat="43.45356" lon="5.764">
        <ele>591</ele>
        <time>2021-03-18T09:40:58Z</time>
      </trkpt>
      <trkpt lat="43.4535" lon="5.76392">
        <ele>590</ele>
        <time>2021-03-18T09:41:07Z</time>
      </trkpt>
      <trkpt lat="43.45348" lon="5.76389">
        <ele>590</ele>
        <time>2021-03-18T09:41:10Z</time>
      </trkpt>
      <trkpt lat="43.45346" lon="5.76387">
        <ele>590</ele>
        <time>2021-03-18T09:41:13Z</time>
      </trkpt>
      <trkpt lat="43.45345" lon="5.76384">
        <ele>590</ele>
        <time>2021-03-18T09:41:17Z</time>
      </trkpt>
      <trkpt lat="43.45343" lon="5.76381">
        <ele>591</ele>
        <time>2021-03-18T09:41:21Z</time>
      </trkpt>
      <trkpt lat="43.45334" lon="5.76367">
        <ele>592</ele>
        <time>2021-03-18T09:41:40Z</time>
      </trkpt>
      <trkpt lat="43.45334" lon="5.76362">
        <ele>593</ele>
        <time>2021-03-18T09:41:46Z</time>
      </trkpt>
      <trkpt lat="43.45332" lon="5.76359">
        <ele>593</ele>
        <time>2021-03-18T09:41:49Z</time>
      </trkpt>
      <trkpt lat="43.45327" lon="5.76353">
        <ele>594</ele>
        <time>2021-03-18T09:41:57Z</time>
      </trkpt>
      <trkpt lat="43.45321" lon="5.76336">
        <ele>595</ele>
        <time>2021-03-18T09:42:14Z</time>
      </trkpt>
      <trkpt lat="43.4532" lon="5.76332">
        <ele>594</ele>
        <time>2021-03-18T09:42:17Z</time>
      </trkpt>
      <trkpt lat="43.45317" lon="5.76329">
        <ele>593</ele>
        <time>2021-03-18T09:42:20Z</time>
      </trkpt>
      <trkpt lat="43.45315" lon="5.76326">
        <ele>593</ele>
        <time>2021-03-18T09:42:24Z</time>
      </trkpt>
      <trkpt lat="43.45312" lon="5.76322">
        <ele>592</ele>
        <time>2021-03-18T09:42:28Z</time>
      </trkpt>
      <trkpt lat="43.45311" lon="5.76318">
        <ele>592</ele>
        <time>2021-03-18T09:42:31Z</time>
      </trkpt>
      <trkpt lat="43.4531" lon="5.76315">
        <ele>593</ele>
        <time>2021-03-18T09:42:34Z</time>
      </trkpt>
      <trkpt lat="43.45307" lon="5.76308">
        <ele>594</ele>
        <time>2021-03-18T09:42:41Z</time>
      </trkpt>
      <trkpt lat="43.45305" lon="5.76307">
        <ele>594</ele>
        <time>2021-03-18T09:42:44Z</time>
      </trkpt>
      <trkpt lat="43.453" lon="5.76303">
        <ele>595</ele>
        <time>2021-03-18T09:42:51Z</time>
      </trkpt>
      <trkpt lat="43.45298" lon="5.763">
        <ele>596</ele>
        <time>2021-03-18T09:42:55Z</time>
      </trkpt>
      <trkpt lat="43.45292" lon="5.76296">
        <ele>595</ele>
        <time>2021-03-18T09:43:02Z</time>
      </trkpt>
      <trkpt lat="43.45284" lon="5.76279">
        <ele>598</ele>
        <time>2021-03-18T09:43:22Z</time>
      </trkpt>
      <trkpt lat="43.45285" lon="5.76275">
        <ele>598</ele>
        <time>2021-03-18T09:43:25Z</time>
      </trkpt>
      <trkpt lat="43.45284" lon="5.76269">
        <ele>599</ele>
        <time>2021-03-18T09:43:30Z</time>
      </trkpt>
      <trkpt lat="43.45284" lon="5.76264">
        <ele>600</ele>
        <time>2021-03-18T09:43:34Z</time>
      </trkpt>
      <trkpt lat="43.45282" lon="5.76262">
        <ele>600</ele>
        <time>2021-03-18T09:43:37Z</time>
      </trkpt>
      <trkpt lat="43.45283" lon="5.76254">
        <ele>601</ele>
        <time>2021-03-18T09:43:44Z</time>
      </trkpt>
      <trkpt lat="43.45283" lon="5.76251">
        <ele>601</ele>
        <time>2021-03-18T09:43:47Z</time>
      </trkpt>
      <trkpt lat="43.45284" lon="5.76241">
        <ele>602</ele>
        <time>2021-03-18T09:43:57Z</time>
      </trkpt>
      <trkpt lat="43.45282" lon="5.76239">
        <ele>603</ele>
        <time>2021-03-18T09:44:00Z</time>
      </trkpt>
      <trkpt lat="43.4528" lon="5.76236">
        <ele>604</ele>
        <time>2021-03-18T09:44:03Z</time>
      </trkpt>
      <trkpt lat="43.4528" lon="5.76233">
        <ele>604</ele>
        <time>2021-03-18T09:44:06Z</time>
      </trkpt>
      <trkpt lat="43.45279" lon="5.7623">
        <ele>604</ele>
        <time>2021-03-18T09:44:10Z</time>
      </trkpt>
      <trkpt lat="43.45276" lon="5.76223">
        <ele>604</ele>
        <time>2021-03-18T09:44:17Z</time>
      </trkpt>
      <trkpt lat="43.45276" lon="5.7622">
        <ele>604</ele>
        <time>2021-03-18T09:44:22Z</time>
      </trkpt>
      <trkpt lat="43.45274" lon="5.76218">
        <ele>604</ele>
        <time>2021-03-18T09:44:27Z</time>
      </trkpt>
      <trkpt lat="43.45273" lon="5.76215">
        <ele>604</ele>
        <time>2021-03-18T09:44:31Z</time>
      </trkpt>
      <trkpt lat="43.45269" lon="5.76211">
        <ele>607</ele>
        <time>2021-03-18T09:44:37Z</time>
      </trkpt>
      <trkpt lat="43.45263" lon="5.76207">
        <ele>608</ele>
        <time>2021-03-18T09:44:47Z</time>
      </trkpt>
      <trkpt lat="43.45261" lon="5.76207">
        <ele>608</ele>
        <time>2021-03-18T09:44:49Z</time>
      </trkpt>
      <trkpt lat="43.45256" lon="5.76206">
        <ele>609</ele>
        <time>2021-03-18T09:44:54Z</time>
      </trkpt>
      <trkpt lat="43.45253" lon="5.76206">
        <ele>609</ele>
        <time>2021-03-18T09:44:57Z</time>
      </trkpt>
      <trkpt lat="43.4525" lon="5.76204">
        <ele>609</ele>
        <time>2021-03-18T09:45:00Z</time>
      </trkpt>
      <trkpt lat="43.45245" lon="5.76199">
        <ele>608</ele>
        <time>2021-03-18T09:45:06Z</time>
      </trkpt>
      <trkpt lat="43.45242" lon="5.76193">
        <ele>608</ele>
        <time>2021-03-18T09:45:13Z</time>
      </trkpt>
      <trkpt lat="43.45239" lon="5.76191">
        <ele>608</ele>
        <time>2021-03-18T09:45:17Z</time>
      </trkpt>
      <trkpt lat="43.45237" lon="5.76189">
        <ele>608</ele>
        <time>2021-03-18T09:45:20Z</time>
      </trkpt>
      <trkpt lat="43.45234" lon="5.76189">
        <ele>607</ele>
        <time>2021-03-18T09:45:23Z</time>
      </trkpt>
      <trkpt lat="43.4523" lon="5.76187">
        <ele>606</ele>
        <time>2021-03-18T09:45:27Z</time>
      </trkpt>
      <trkpt lat="43.45227" lon="5.76183">
        <ele>606</ele>
        <time>2021-03-18T09:45:32Z</time>
      </trkpt>
      <trkpt lat="43.45222" lon="5.76178">
        <ele>605</ele>
        <time>2021-03-18T09:45:39Z</time>
      </trkpt>
      <trkpt lat="43.4522" lon="5.76174">
        <ele>605</ele>
        <time>2021-03-18T09:45:42Z</time>
      </trkpt>
      <trkpt lat="43.45215" lon="5.76165">
        <ele>604</ele>
        <time>2021-03-18T09:45:53Z</time>
      </trkpt>
      <trkpt lat="43.45211" lon="5.76156">
        <ele>603</ele>
        <time>2021-03-18T09:46:01Z</time>
      </trkpt>
      <trkpt lat="43.45209" lon="5.76153">
        <ele>602</ele>
        <time>2021-03-18T09:46:05Z</time>
      </trkpt>
      <trkpt lat="43.45207" lon="5.76143">
        <ele>602</ele>
        <time>2021-03-18T09:46:14Z</time>
      </trkpt>
      <trkpt lat="43.45204" lon="5.76139">
        <ele>602</ele>
        <time>2021-03-18T09:46:19Z</time>
      </trkpt>
      <trkpt lat="43.45202" lon="5.76138">
        <ele>602</ele>
        <time>2021-03-18T09:46:22Z</time>
      </trkpt>
      <trkpt lat="43.45198" lon="5.76132">
        <ele>602</ele>
        <time>2021-03-18T09:46:30Z</time>
      </trkpt>
      <trkpt lat="43.45194" lon="5.7612">
        <ele>601</ele>
        <time>2021-03-18T09:46:40Z</time>
      </trkpt>
      <trkpt lat="43.45192" lon="5.76116">
        <ele>599</ele>
        <time>2021-03-18T09:46:44Z</time>
      </trkpt>
      <trkpt lat="43.45191" lon="5.76112">
        <ele>599</ele>
        <time>2021-03-18T09:46:49Z</time>
      </trkpt>
      <trkpt lat="43.45189" lon="5.76107">
        <ele>598</ele>
        <time>2021-03-18T09:46:54Z</time>
      </trkpt>
      <trkpt lat="43.45188" lon="5.76103">
        <ele>598</ele>
        <time>2021-03-18T09:46:59Z</time>
      </trkpt>
      <trkpt lat="43.45185" lon="5.76102">
        <ele>598</ele>
        <time>2021-03-18T09:47:04Z</time>
      </trkpt>
      <trkpt lat="43.45178" lon="5.76097">
        <ele>598</ele>
        <time>2021-03-18T09:47:11Z</time>
      </trkpt>
      <trkpt lat="43.4517" lon="5.76082">
        <ele>598</ele>
        <time>2021-03-18T09:47:24Z</time>
      </trkpt>
      <trkpt lat="43.45168" lon="5.76076">
        <ele>598</ele>
        <time>2021-03-18T09:47:28Z</time>
      </trkpt>
      <trkpt lat="43.45167" lon="5.76071">
        <ele>598</ele>
        <time>2021-03-18T09:47:35Z</time>
      </trkpt>
      <trkpt lat="43.45169" lon="5.76067">
        <ele>598</ele>
        <time>2021-03-18T09:47:39Z</time>
      </trkpt>
      <trkpt lat="43.45168" lon="5.76062">
        <ele>599</ele>
        <time>2021-03-18T09:47:42Z</time>
      </trkpt>
      <trkpt lat="43.45168" lon="5.76058">
        <ele>599</ele>
        <time>2021-03-18T09:47:47Z</time>
      </trkpt>
      <trkpt lat="43.45169" lon="5.76052">
        <ele>600</ele>
        <time>2021-03-18T09:47:52Z</time>
      </trkpt>
      <trkpt lat="43.45168" lon="5.76015">
        <ele>608</ele>
        <time>2021-03-18T09:48:25Z</time>
      </trkpt>
      <trkpt lat="43.45162" lon="5.76">
        <ele>610</ele>
        <time>2021-03-18T09:48:39Z</time>
      </trkpt>
      <trkpt lat="43.45162" lon="5.75986">
        <ele>611</ele>
        <time>2021-03-18T09:48:52Z</time>
      </trkpt>
      <trkpt lat="43.45159" lon="5.75979">
        <ele>611</ele>
        <time>2021-03-18T09:48:59Z</time>
      </trkpt>
      <trkpt lat="43.45158" lon="5.75975">
        <ele>610</ele>
        <time>2021-03-18T09:49:04Z</time>
      </trkpt>
      <trkpt lat="43.45157" lon="5.75973">
        <ele>612</ele>
        <time>2021-03-18T09:49:30Z</time>
      </trkpt>
      <trkpt lat="43.45155" lon="5.75971">
        <ele>612</ele>
        <time>2021-03-18T09:50:25Z</time>
      </trkpt>
      <trkpt lat="43.45152" lon="5.7597">
        <ele>611</ele>
        <time>2021-03-18T09:50:29Z</time>
      </trkpt>
      <trkpt lat="43.45149" lon="5.75969">
        <ele>611</ele>
        <time>2021-03-18T09:50:32Z</time>
      </trkpt>
      <trkpt lat="43.4514" lon="5.75965">
        <ele>611</ele>
        <time>2021-03-18T09:50:41Z</time>
      </trkpt>
      <trkpt lat="43.45133" lon="5.75963">
        <ele>610</ele>
        <time>2021-03-18T09:50:47Z</time>
      </trkpt>
      <trkpt lat="43.45121" lon="5.75952">
        <ele>609</ele>
        <time>2021-03-18T09:51:00Z</time>
      </trkpt>
      <trkpt lat="43.45115" lon="5.7594">
        <ele>611</ele>
        <time>2021-03-18T09:51:10Z</time>
      </trkpt>
      <trkpt lat="43.45113" lon="5.75935">
        <ele>611</ele>
        <time>2021-03-18T09:51:13Z</time>
      </trkpt>
      <trkpt lat="43.45111" lon="5.75931">
        <ele>611</ele>
        <time>2021-03-18T09:51:16Z</time>
      </trkpt>
      <trkpt lat="43.45108" lon="5.75929">
        <ele>612</ele>
        <time>2021-03-18T09:51:19Z</time>
      </trkpt>
      <trkpt lat="43.45093" lon="5.75922">
        <ele>610</ele>
        <time>2021-03-18T09:51:33Z</time>
      </trkpt>
      <trkpt lat="43.4508" lon="5.7592">
        <ele>610</ele>
        <time>2021-03-18T09:51:44Z</time>
      </trkpt>
      <trkpt lat="43.45077" lon="5.75917">
        <ele>609</ele>
        <time>2021-03-18T09:51:47Z</time>
      </trkpt>
      <trkpt lat="43.45072" lon="5.75915">
        <ele>609</ele>
        <time>2021-03-18T09:51:56Z</time>
      </trkpt>
      <trkpt lat="43.4507" lon="5.75915">
        <ele>610</ele>
        <time>2021-03-18T09:51:58Z</time>
      </trkpt>
      <trkpt lat="43.45068" lon="5.75913">
        <ele>610</ele>
        <time>2021-03-18T09:52:01Z</time>
      </trkpt>
      <trkpt lat="43.45062" lon="5.75912">
        <ele>611</ele>
        <time>2021-03-18T09:52:06Z</time>
      </trkpt>
      <trkpt lat="43.45048" lon="5.75902">
        <ele>609</ele>
        <time>2021-03-18T09:52:21Z</time>
      </trkpt>
      <trkpt lat="43.45045" lon="5.75899">
        <ele>609</ele>
        <time>2021-03-18T09:52:24Z</time>
      </trkpt>
      <trkpt lat="43.45043" lon="5.75896">
        <ele>609</ele>
        <time>2021-03-18T09:52:27Z</time>
      </trkpt>
      <trkpt lat="43.45041" lon="5.75893">
        <ele>609</ele>
        <time>2021-03-18T09:52:30Z</time>
      </trkpt>
      <trkpt lat="43.45035" lon="5.75888">
        <ele>609</ele>
        <time>2021-03-18T09:52:35Z</time>
      </trkpt>
      <trkpt lat="43.45034" lon="5.75885">
        <ele>609</ele>
        <time>2021-03-18T09:52:38Z</time>
      </trkpt>
      <trkpt lat="43.45032" lon="5.75876">
        <ele>608</ele>
        <time>2021-03-18T09:52:43Z</time>
      </trkpt>
      <trkpt lat="43.45029" lon="5.75871">
        <ele>608</ele>
        <time>2021-03-18T09:52:47Z</time>
      </trkpt>
      <trkpt lat="43.45029" lon="5.75867">
        <ele>609</ele>
        <time>2021-03-18T09:52:50Z</time>
      </trkpt>
      <trkpt lat="43.4503" lon="5.75839">
        <ele>609</ele>
        <time>2021-03-18T09:53:11Z</time>
      </trkpt>
      <trkpt lat="43.45031" lon="5.75835">
        <ele>609</ele>
        <time>2021-03-18T09:53:15Z</time>
      </trkpt>
      <trkpt lat="43.45028" lon="5.75823">
        <ele>610</ele>
        <time>2021-03-18T09:53:24Z</time>
      </trkpt>
      <trkpt lat="43.45027" lon="5.75819">
        <ele>612</ele>
        <time>2021-03-18T09:53:28Z</time>
      </trkpt>
      <trkpt lat="43.45024" lon="5.75816">
        <ele>612</ele>
        <time>2021-03-18T09:53:31Z</time>
      </trkpt>
      <trkpt lat="43.45023" lon="5.75812">
        <ele>613</ele>
        <time>2021-03-18T09:53:34Z</time>
      </trkpt>
      <trkpt lat="43.45023" lon="5.75803">
        <ele>614</ele>
        <time>2021-03-18T09:53:40Z</time>
      </trkpt>
      <trkpt lat="43.45023" lon="5.75801">
        <ele>615</ele>
        <time>2021-03-18T09:56:33Z</time>
      </trkpt>
      <trkpt lat="43.45022" lon="5.75798">
        <ele>615</ele>
        <time>2021-03-18T09:58:38Z</time>
      </trkpt>
      <trkpt lat="43.4502" lon="5.75795">
        <ele>615</ele>
        <time>2021-03-18T09:58:42Z</time>
      </trkpt>
      <trkpt lat="43.45018" lon="5.75793">
        <ele>616</ele>
        <time>2021-03-18T09:58:52Z</time>
      </trkpt>
      <trkpt lat="43.45016" lon="5.7579">
        <ele>616</ele>
        <time>2021-03-18T09:58:55Z</time>
      </trkpt>
      <trkpt lat="43.45004" lon="5.75778">
        <ele>615</ele>
        <time>2021-03-18T09:59:07Z</time>
      </trkpt>
      <trkpt lat="43.44995" lon="5.75763">
        <ele>614</ele>
        <time>2021-03-18T09:59:20Z</time>
      </trkpt>
      <trkpt lat="43.44993" lon="5.7576">
        <ele>615</ele>
        <time>2021-03-18T09:59:23Z</time>
      </trkpt>
      <trkpt lat="43.4498" lon="5.75751">
        <ele>616</ele>
        <time>2021-03-18T09:59:36Z</time>
      </trkpt>
      <trkpt lat="43.44976" lon="5.75745">
        <ele>616</ele>
        <time>2021-03-18T09:59:58Z</time>
      </trkpt>
      <trkpt lat="43.44976" lon="5.7574">
        <ele>615</ele>
        <time>2021-03-18T10:00:01Z</time>
      </trkpt>
      <trkpt lat="43.44975" lon="5.75735">
        <ele>615</ele>
        <time>2021-03-18T10:00:04Z</time>
      </trkpt>
      <trkpt lat="43.44972" lon="5.75731">
        <ele>615</ele>
        <time>2021-03-18T10:00:07Z</time>
      </trkpt>
      <trkpt lat="43.44966" lon="5.75702">
        <ele>616</ele>
        <time>2021-03-18T10:00:26Z</time>
      </trkpt>
      <trkpt lat="43.4496" lon="5.75684">
        <ele>614</ele>
        <time>2021-03-18T10:00:40Z</time>
      </trkpt>
      <trkpt lat="43.44953" lon="5.75674">
        <ele>614</ele>
        <time>2021-03-18T10:00:49Z</time>
      </trkpt>
      <trkpt lat="43.44949" lon="5.75667">
        <ele>615</ele>
        <time>2021-03-18T10:00:56Z</time>
      </trkpt>
      <trkpt lat="43.44939" lon="5.75653">
        <ele>620</ele>
        <time>2021-03-18T10:01:09Z</time>
      </trkpt>
      <trkpt lat="43.44936" lon="5.7565">
        <ele>621</ele>
        <time>2021-03-18T10:01:12Z</time>
      </trkpt>
      <trkpt lat="43.44929" lon="5.75639">
        <ele>623</ele>
        <time>2021-03-18T10:01:23Z</time>
      </trkpt>
      <trkpt lat="43.44926" lon="5.75635">
        <ele>623</ele>
        <time>2021-03-18T10:01:27Z</time>
      </trkpt>
      <trkpt lat="43.44924" lon="5.75631">
        <ele>623</ele>
        <time>2021-03-18T10:01:30Z</time>
      </trkpt>
      <trkpt lat="43.44918" lon="5.75625">
        <ele>622</ele>
        <time>2021-03-18T10:01:36Z</time>
      </trkpt>
      <trkpt lat="43.44914" lon="5.75616">
        <ele>622</ele>
        <time>2021-03-18T10:01:43Z</time>
      </trkpt>
      <trkpt lat="43.44912" lon="5.75612">
        <ele>623</ele>
        <time>2021-03-18T10:01:47Z</time>
      </trkpt>
      <trkpt lat="43.44903" lon="5.75606">
        <ele>623</ele>
        <time>2021-03-18T10:01:56Z</time>
      </trkpt>
      <trkpt lat="43.44892" lon="5.75595">
        <ele>624</ele>
        <time>2021-03-18T10:02:09Z</time>
      </trkpt>
      <trkpt lat="43.44886" lon="5.75593">
        <ele>623</ele>
        <time>2021-03-18T10:02:14Z</time>
      </trkpt>
      <trkpt lat="43.44873" lon="5.75581">
        <ele>623</ele>
        <time>2021-03-18T10:02:30Z</time>
      </trkpt>
      <trkpt lat="43.44847" lon="5.75575">
        <ele>622</ele>
        <time>2021-03-18T10:03:03Z</time>
      </trkpt>
      <trkpt lat="43.44844" lon="5.75573">
        <ele>621</ele>
        <time>2021-03-18T10:03:07Z</time>
      </trkpt>
      <trkpt lat="43.44841" lon="5.75571">
        <ele>621</ele>
        <time>2021-03-18T10:03:11Z</time>
      </trkpt>
      <trkpt lat="43.44838" lon="5.75569">
        <ele>622</ele>
        <time>2021-03-18T10:03:15Z</time>
      </trkpt>
      <trkpt lat="43.44836" lon="5.75567">
        <ele>622</ele>
        <time>2021-03-18T10:03:20Z</time>
      </trkpt>
      <trkpt lat="43.44832" lon="5.75564">
        <ele>624</ele>
        <time>2021-03-18T10:03:25Z</time>
      </trkpt>
      <trkpt lat="43.44829" lon="5.75563">
        <ele>626</ele>
        <time>2021-03-18T10:03:32Z</time>
      </trkpt>
      <trkpt lat="43.44827" lon="5.75564">
        <ele>631</ele>
        <time>2021-03-18T10:03:47Z</time>
      </trkpt>
      <trkpt lat="43.44826" lon="5.75566">
        <ele>632</ele>
        <time>2021-03-18T10:04:54Z</time>
      </trkpt>
      <trkpt lat="43.44824" lon="5.75567">
        <ele>631</ele>
        <time>2021-03-18T10:10:51Z</time>
      </trkpt>
      <trkpt lat="43.44823" lon="5.75571">
        <ele>631</ele>
        <time>2021-03-18T10:10:56Z</time>
      </trkpt>
      <trkpt lat="43.448" lon="5.75582">
        <ele>635</ele>
        <time>2021-03-18T10:11:25Z</time>
      </trkpt>
      <trkpt lat="43.44768" lon="5.75585">
        <ele>634</ele>
        <time>2021-03-18T10:11:56Z</time>
      </trkpt>
      <trkpt lat="43.44758" lon="5.75585">
        <ele>635</ele>
        <time>2021-03-18T10:12:06Z</time>
      </trkpt>
      <trkpt lat="43.44755" lon="5.75586">
        <ele>635</ele>
        <time>2021-03-18T10:12:08Z</time>
      </trkpt>
      <trkpt lat="43.44748" lon="5.75588">
        <ele>635</ele>
        <time>2021-03-18T10:12:14Z</time>
      </trkpt>
      <trkpt lat="43.44745" lon="5.75587">
        <ele>636</ele>
        <time>2021-03-18T10:12:18Z</time>
      </trkpt>
      <trkpt lat="43.44741" lon="5.75588">
        <ele>637</ele>
        <time>2021-03-18T10:12:24Z</time>
      </trkpt>
      <trkpt lat="43.44738" lon="5.7559">
        <ele>638</ele>
        <time>2021-03-18T10:12:30Z</time>
      </trkpt>
      <trkpt lat="43.44734" lon="5.75589">
        <ele>638</ele>
        <time>2021-03-18T10:12:34Z</time>
      </trkpt>
      <trkpt lat="43.44731" lon="5.75588">
        <ele>637</ele>
        <time>2021-03-18T10:12:44Z</time>
      </trkpt>
      <trkpt lat="43.44728" lon="5.75591">
        <ele>637</ele>
        <time>2021-03-18T10:12:47Z</time>
      </trkpt>
      <trkpt lat="43.44724" lon="5.75591">
        <ele>638</ele>
        <time>2021-03-18T10:12:53Z</time>
      </trkpt>
      <trkpt lat="43.44721" lon="5.75591">
        <ele>638</ele>
        <time>2021-03-18T10:12:57Z</time>
      </trkpt>
      <trkpt lat="43.4471" lon="5.7559">
        <ele>638</ele>
        <time>2021-03-18T10:13:10Z</time>
      </trkpt>
      <trkpt lat="43.44699" lon="5.75598">
        <ele>637</ele>
        <time>2021-03-18T10:13:23Z</time>
      </trkpt>
      <trkpt lat="43.44695" lon="5.75599">
        <ele>638</ele>
        <time>2021-03-18T10:13:28Z</time>
      </trkpt>
      <trkpt lat="43.44691" lon="5.75603">
        <ele>638</ele>
        <time>2021-03-18T10:13:33Z</time>
      </trkpt>
      <trkpt lat="43.44688" lon="5.75606">
        <ele>638</ele>
        <time>2021-03-18T10:13:36Z</time>
      </trkpt>
      <trkpt lat="43.44671" lon="5.75614">
        <ele>640</ele>
        <time>2021-03-18T10:13:58Z</time>
      </trkpt>
      <trkpt lat="43.44656" lon="5.75627">
        <ele>639</ele>
        <time>2021-03-18T10:14:17Z</time>
      </trkpt>
      <trkpt lat="43.44653" lon="5.75628">
        <ele>639</ele>
        <time>2021-03-18T10:14:19Z</time>
      </trkpt>
      <trkpt lat="43.4465" lon="5.75629">
        <ele>639</ele>
        <time>2021-03-18T10:14:22Z</time>
      </trkpt>
      <trkpt lat="43.44644" lon="5.75627">
        <ele>639</ele>
        <time>2021-03-18T10:14:29Z</time>
      </trkpt>
      <trkpt lat="43.44636" lon="5.75626">
        <ele>638</ele>
        <time>2021-03-18T10:14:37Z</time>
      </trkpt>
      <trkpt lat="43.44633" lon="5.75629">
        <ele>638</ele>
        <time>2021-03-18T10:14:41Z</time>
      </trkpt>
      <trkpt lat="43.44627" lon="5.75632">
        <ele>638</ele>
        <time>2021-03-18T10:14:51Z</time>
      </trkpt>
      <trkpt lat="43.44624" lon="5.75634">
        <ele>640</ele>
        <time>2021-03-18T10:14:56Z</time>
      </trkpt>
      <trkpt lat="43.4462" lon="5.75639">
        <ele>641</ele>
        <time>2021-03-18T10:15:01Z</time>
      </trkpt>
      <trkpt lat="43.44609" lon="5.75663">
        <ele>641</ele>
        <time>2021-03-18T10:15:23Z</time>
      </trkpt>
      <trkpt lat="43.44607" lon="5.75667">
        <ele>641</ele>
        <time>2021-03-18T10:15:26Z</time>
      </trkpt>
      <trkpt lat="43.44604" lon="5.75671">
        <ele>642</ele>
        <time>2021-03-18T10:15:29Z</time>
      </trkpt>
      <trkpt lat="43.44601" lon="5.75673">
        <ele>642</ele>
        <time>2021-03-18T10:15:32Z</time>
      </trkpt>
      <trkpt lat="43.4459" lon="5.75673">
        <ele>642</ele>
        <time>2021-03-18T10:15:43Z</time>
      </trkpt>
      <trkpt lat="43.4457" lon="5.75665">
        <ele>640</ele>
        <time>2021-03-18T10:16:04Z</time>
      </trkpt>
      <trkpt lat="43.44567" lon="5.75664">
        <ele>639</ele>
        <time>2021-03-18T10:16:07Z</time>
      </trkpt>
      <trkpt lat="43.44561" lon="5.75662">
        <ele>639</ele>
        <time>2021-03-18T10:16:16Z</time>
      </trkpt>
      <trkpt lat="43.44557" lon="5.75663">
        <ele>639</ele>
        <time>2021-03-18T10:16:20Z</time>
      </trkpt>
      <trkpt lat="43.44553" lon="5.75665">
        <ele>638</ele>
        <time>2021-03-18T10:16:25Z</time>
      </trkpt>
      <trkpt lat="43.4455" lon="5.75668">
        <ele>637</ele>
        <time>2021-03-18T10:16:30Z</time>
      </trkpt>
      <trkpt lat="43.44545" lon="5.75671">
        <ele>638</ele>
        <time>2021-03-18T10:16:36Z</time>
      </trkpt>
      <trkpt lat="43.44542" lon="5.75671">
        <ele>639</ele>
        <time>2021-03-18T10:16:39Z</time>
      </trkpt>
      <trkpt lat="43.44539" lon="5.75673">
        <ele>639</ele>
        <time>2021-03-18T10:16:42Z</time>
      </trkpt>
      <trkpt lat="43.44535" lon="5.75672">
        <ele>640</ele>
        <time>2021-03-18T10:16:46Z</time>
      </trkpt>
      <trkpt lat="43.44531" lon="5.75674">
        <ele>641</ele>
        <time>2021-03-18T10:16:51Z</time>
      </trkpt>
      <trkpt lat="43.44527" lon="5.75673">
        <ele>642</ele>
        <time>2021-03-18T10:16:58Z</time>
      </trkpt>
      <trkpt lat="43.4452" lon="5.75674">
        <ele>643</ele>
        <time>2021-03-18T10:17:07Z</time>
      </trkpt>
      <trkpt lat="43.44513" lon="5.75673">
        <ele>644</ele>
        <time>2021-03-18T10:17:16Z</time>
      </trkpt>
      <trkpt lat="43.44509" lon="5.75675">
        <ele>644</ele>
        <time>2021-03-18T10:17:20Z</time>
      </trkpt>
      <trkpt lat="43.44497" lon="5.75669">
        <ele>644</ele>
        <time>2021-03-18T10:17:35Z</time>
      </trkpt>
      <trkpt lat="43.44476" lon="5.7567">
        <ele>647</ele>
        <time>2021-03-18T10:18:01Z</time>
      </trkpt>
      <trkpt lat="43.44465" lon="5.75677">
        <ele>647</ele>
        <time>2021-03-18T10:18:15Z</time>
      </trkpt>
      <trkpt lat="43.44457" lon="5.75676">
        <ele>648</ele>
        <time>2021-03-18T10:18:23Z</time>
      </trkpt>
      <trkpt lat="43.44454" lon="5.75673">
        <ele>650</ele>
        <time>2021-03-18T10:18:27Z</time>
      </trkpt>
      <trkpt lat="43.44449" lon="5.75673">
        <ele>651</ele>
        <time>2021-03-18T10:18:31Z</time>
      </trkpt>
      <trkpt lat="43.44445" lon="5.75672">
        <ele>651</ele>
        <time>2021-03-18T10:18:36Z</time>
      </trkpt>
      <trkpt lat="43.4444" lon="5.75671">
        <ele>651</ele>
        <time>2021-03-18T10:18:43Z</time>
      </trkpt>
      <trkpt lat="43.44436" lon="5.75668">
        <ele>652</ele>
        <time>2021-03-18T10:18:48Z</time>
      </trkpt>
      <trkpt lat="43.44432" lon="5.75668">
        <ele>653</ele>
        <time>2021-03-18T10:18:55Z</time>
      </trkpt>
      <trkpt lat="43.4443" lon="5.75664">
        <ele>654</ele>
        <time>2021-03-18T10:19:02Z</time>
      </trkpt>
      <trkpt lat="43.44426" lon="5.75662">
        <ele>655</ele>
        <time>2021-03-18T10:19:06Z</time>
      </trkpt>
      <trkpt lat="43.44423" lon="5.75657">
        <ele>655</ele>
        <time>2021-03-18T10:19:12Z</time>
      </trkpt>
      <trkpt lat="43.44419" lon="5.75655">
        <ele>655</ele>
        <time>2021-03-18T10:19:18Z</time>
      </trkpt>
      <trkpt lat="43.44416" lon="5.75654">
        <ele>654</ele>
        <time>2021-03-18T10:19:21Z</time>
      </trkpt>
      <trkpt lat="43.44413" lon="5.75653">
        <ele>655</ele>
        <time>2021-03-18T10:19:26Z</time>
      </trkpt>
      <trkpt lat="43.4441" lon="5.7565">
        <ele>656</ele>
        <time>2021-03-18T10:19:31Z</time>
      </trkpt>
      <trkpt lat="43.44405" lon="5.75648">
        <ele>656</ele>
        <time>2021-03-18T10:19:36Z</time>
      </trkpt>
      <trkpt lat="43.44402" lon="5.75646">
        <ele>656</ele>
        <time>2021-03-18T10:19:42Z</time>
      </trkpt>
      <trkpt lat="43.44399" lon="5.75646">
        <ele>658</ele>
        <time>2021-03-18T10:19:51Z</time>
      </trkpt>
      <trkpt lat="43.44395" lon="5.75646">
        <ele>660</ele>
        <time>2021-03-18T10:19:57Z</time>
      </trkpt>
      <trkpt lat="43.44388" lon="5.75645">
        <ele>662</ele>
        <time>2021-03-18T10:20:08Z</time>
      </trkpt>
      <trkpt lat="43.44381" lon="5.75649">
        <ele>663</ele>
        <time>2021-03-18T10:20:19Z</time>
      </trkpt>
      <trkpt lat="43.44377" lon="5.75652">
        <ele>664</ele>
        <time>2021-03-18T10:20:24Z</time>
      </trkpt>
      <trkpt lat="43.44373" lon="5.75655">
        <ele>666</ele>
        <time>2021-03-18T10:20:31Z</time>
      </trkpt>
      <trkpt lat="43.44353" lon="5.75674">
        <ele>672</ele>
        <time>2021-03-18T10:21:02Z</time>
      </trkpt>
      <trkpt lat="43.44347" lon="5.75687">
        <ele>671</ele>
        <time>2021-03-18T10:21:16Z</time>
      </trkpt>
      <trkpt lat="43.44343" lon="5.75691">
        <ele>670</ele>
        <time>2021-03-18T10:21:21Z</time>
      </trkpt>
      <trkpt lat="43.44336" lon="5.75689">
        <ele>672</ele>
        <time>2021-03-18T10:21:30Z</time>
      </trkpt>
      <trkpt lat="43.44333" lon="5.75687">
        <ele>673</ele>
        <time>2021-03-18T10:21:34Z</time>
      </trkpt>
      <trkpt lat="43.4433" lon="5.75684">
        <ele>675</ele>
        <time>2021-03-18T10:21:39Z</time>
      </trkpt>
      <trkpt lat="43.44314" lon="5.75675">
        <ele>675</ele>
        <time>2021-03-18T10:22:05Z</time>
      </trkpt>
      <trkpt lat="43.44302" lon="5.75676">
        <ele>676</ele>
        <time>2021-03-18T10:22:18Z</time>
      </trkpt>
      <trkpt lat="43.44299" lon="5.75678">
        <ele>677</ele>
        <time>2021-03-18T10:22:21Z</time>
      </trkpt>
      <trkpt lat="43.44297" lon="5.7568">
        <ele>676</ele>
        <time>2021-03-18T10:22:34Z</time>
      </trkpt>
      <trkpt lat="43.44294" lon="5.75681">
        <ele>676</ele>
        <time>2021-03-18T10:22:37Z</time>
      </trkpt>
      <trkpt lat="43.44292" lon="5.75684">
        <ele>676</ele>
        <time>2021-03-18T10:23:21Z</time>
      </trkpt>
      <trkpt lat="43.44289" lon="5.75685">
        <ele>679</ele>
        <time>2021-03-18T10:23:31Z</time>
      </trkpt>
      <trkpt lat="43.44282" lon="5.75694">
        <ele>681</ele>
        <time>2021-03-18T10:23:41Z</time>
      </trkpt>
      <trkpt lat="43.44279" lon="5.75696">
        <ele>682</ele>
        <time>2021-03-18T10:23:46Z</time>
      </trkpt>
      <trkpt lat="43.44276" lon="5.757">
        <ele>683</ele>
        <time>2021-03-18T10:23:50Z</time>
      </trkpt>
      <trkpt lat="43.44268" lon="5.75704">
        <ele>683</ele>
        <time>2021-03-18T10:23:59Z</time>
      </trkpt>
      <trkpt lat="43.44264" lon="5.75703">
        <ele>683</ele>
        <time>2021-03-18T10:24:04Z</time>
      </trkpt>
      <trkpt lat="43.4426" lon="5.757">
        <ele>685</ele>
        <time>2021-03-18T10:24:09Z</time>
      </trkpt>
      <trkpt lat="43.44256" lon="5.75696">
        <ele>686</ele>
        <time>2021-03-18T10:24:12Z</time>
      </trkpt>
      <trkpt lat="43.44253" lon="5.7569">
        <ele>688</ele>
        <time>2021-03-18T10:24:16Z</time>
      </trkpt>
      <trkpt lat="43.44251" lon="5.75687">
        <ele>688</ele>
        <time>2021-03-18T10:24:20Z</time>
      </trkpt>
      <trkpt lat="43.44248" lon="5.75682">
        <ele>688</ele>
        <time>2021-03-18T10:24:26Z</time>
      </trkpt>
      <trkpt lat="43.44247" lon="5.75677">
        <ele>690</ele>
        <time>2021-03-18T10:24:31Z</time>
      </trkpt>
      <trkpt lat="43.44245" lon="5.75673">
        <ele>689</ele>
        <time>2021-03-18T10:24:35Z</time>
      </trkpt>
      <trkpt lat="43.44243" lon="5.75671">
        <ele>688</ele>
        <time>2021-03-18T10:24:38Z</time>
      </trkpt>
      <trkpt lat="43.44242" lon="5.75667">
        <ele>688</ele>
        <time>2021-03-18T10:24:41Z</time>
      </trkpt>
      <trkpt lat="43.4424" lon="5.75663">
        <ele>689</ele>
        <time>2021-03-18T10:24:46Z</time>
      </trkpt>
      <trkpt lat="43.44239" lon="5.75659">
        <ele>689</ele>
        <time>2021-03-18T10:24:49Z</time>
      </trkpt>
      <trkpt lat="43.44229" lon="5.75648">
        <ele>691</ele>
        <time>2021-03-18T10:25:06Z</time>
      </trkpt>
      <trkpt lat="43.44222" lon="5.75644">
        <ele>693</ele>
        <time>2021-03-18T10:25:16Z</time>
      </trkpt>
      <trkpt lat="43.4422" lon="5.75645">
        <ele>694</ele>
        <time>2021-03-18T10:25:20Z</time>
      </trkpt>
      <trkpt lat="43.44218" lon="5.75644">
        <ele>691</ele>
        <time>2021-03-18T10:25:32Z</time>
      </trkpt>
      <trkpt lat="43.44216" lon="5.75649">
        <ele>691</ele>
        <time>2021-03-18T10:26:14Z</time>
      </trkpt>
      <trkpt lat="43.44215" lon="5.7565">
        <ele>693</ele>
        <time>2021-03-18T10:28:37Z</time>
      </trkpt>
      <trkpt lat="43.44213" lon="5.75647">
        <ele>693</ele>
        <time>2021-03-18T10:29:58Z</time>
      </trkpt>
      <trkpt lat="43.44212" lon="5.75649">
        <ele>693</ele>
        <time>2021-03-18T10:30:06Z</time>
      </trkpt>
      <trkpt lat="43.4421" lon="5.7565">
        <ele>694</ele>
        <time>2021-03-18T10:30:10Z</time>
      </trkpt>
      <trkpt lat="43.44208" lon="5.75653">
        <ele>695</ele>
        <time>2021-03-18T10:30:14Z</time>
      </trkpt>
      <trkpt lat="43.44204" lon="5.75659">
        <ele>696</ele>
        <time>2021-03-18T10:30:20Z</time>
      </trkpt>
      <trkpt lat="43.44178" lon="5.75679">
        <ele>699</ele>
        <time>2021-03-18T10:30:52Z</time>
      </trkpt>
      <trkpt lat="43.44176" lon="5.75681">
        <ele>699</ele>
        <time>2021-03-18T10:30:55Z</time>
      </trkpt>
      <trkpt lat="43.44173" lon="5.75682">
        <ele>699</ele>
        <time>2021-03-18T10:30:58Z</time>
      </trkpt>
      <trkpt lat="43.4417" lon="5.75683">
        <ele>699</ele>
        <time>2021-03-18T10:31:02Z</time>
      </trkpt>
      <trkpt lat="43.44163" lon="5.75682">
        <ele>700</ele>
        <time>2021-03-18T10:31:09Z</time>
      </trkpt>
      <trkpt lat="43.44161" lon="5.75681">
        <ele>700</ele>
        <time>2021-03-18T10:32:08Z</time>
      </trkpt>
      <trkpt lat="43.44158" lon="5.75679">
        <ele>701</ele>
        <time>2021-03-18T10:32:13Z</time>
      </trkpt>
      <trkpt lat="43.44157" lon="5.75677">
        <ele>700</ele>
        <time>2021-03-18T10:32:15Z</time>
      </trkpt>
      <trkpt lat="43.44154" lon="5.75677">
        <ele>699</ele>
        <time>2021-03-18T10:32:20Z</time>
      </trkpt>
      <trkpt lat="43.44151" lon="5.75676">
        <ele>699</ele>
        <time>2021-03-18T10:32:23Z</time>
      </trkpt>
      <trkpt lat="43.44136" lon="5.75669">
        <ele>701</ele>
        <time>2021-03-18T10:32:40Z</time>
      </trkpt>
      <trkpt lat="43.44133" lon="5.75667">
        <ele>701</ele>
        <time>2021-03-18T10:32:43Z</time>
      </trkpt>
      <trkpt lat="43.44127" lon="5.75666">
        <ele>702</ele>
        <time>2021-03-18T10:32:49Z</time>
      </trkpt>
      <trkpt lat="43.44113" lon="5.75657">
        <ele>703</ele>
        <time>2021-03-18T10:33:08Z</time>
      </trkpt>
      <trkpt lat="43.44111" lon="5.75656">
        <ele>704</ele>
        <time>2021-03-18T10:33:12Z</time>
      </trkpt>
      <trkpt lat="43.44109" lon="5.75654">
        <ele>704</ele>
        <time>2021-03-18T10:33:15Z</time>
      </trkpt>
      <trkpt lat="43.44097" lon="5.75653">
        <ele>705</ele>
        <time>2021-03-18T10:33:30Z</time>
      </trkpt>
      <trkpt lat="43.44094" lon="5.75654">
        <ele>706</ele>
        <time>2021-03-18T10:33:34Z</time>
      </trkpt>
      <trkpt lat="43.44091" lon="5.75655">
        <ele>706</ele>
        <time>2021-03-18T10:33:38Z</time>
      </trkpt>
      <trkpt lat="43.44089" lon="5.75657">
        <ele>705</ele>
        <time>2021-03-18T10:33:42Z</time>
      </trkpt>
      <trkpt lat="43.44075" lon="5.7567">
        <ele>706</ele>
        <time>2021-03-18T10:34:04Z</time>
      </trkpt>
      <trkpt lat="43.44074" lon="5.75674">
        <ele>707</ele>
        <time>2021-03-18T10:34:07Z</time>
      </trkpt>
      <trkpt lat="43.44065" lon="5.75678">
        <ele>706</ele>
        <time>2021-03-18T10:34:18Z</time>
      </trkpt>
      <trkpt lat="43.44063" lon="5.7568">
        <ele>707</ele>
        <time>2021-03-18T10:34:22Z</time>
      </trkpt>
      <trkpt lat="43.4406" lon="5.7568">
        <ele>708</ele>
        <time>2021-03-18T10:34:25Z</time>
      </trkpt>
      <trkpt lat="43.44056" lon="5.75685">
        <ele>710</ele>
        <time>2021-03-18T10:34:32Z</time>
      </trkpt>
      <trkpt lat="43.44037" lon="5.75696">
        <ele>715</ele>
        <time>2021-03-18T10:35:00Z</time>
      </trkpt>
      <trkpt lat="43.44035" lon="5.75699">
        <ele>715</ele>
        <time>2021-03-18T10:35:05Z</time>
      </trkpt>
      <trkpt lat="43.44031" lon="5.75703">
        <ele>714</ele>
        <time>2021-03-18T10:35:17Z</time>
      </trkpt>
      <trkpt lat="43.44029" lon="5.75705">
        <ele>715</ele>
        <time>2021-03-18T10:35:21Z</time>
      </trkpt>
      <trkpt lat="43.44026" lon="5.75707">
        <ele>716</ele>
        <time>2021-03-18T10:35:24Z</time>
      </trkpt>
      <trkpt lat="43.44024" lon="5.75708">
        <ele>717</ele>
        <time>2021-03-18T10:35:27Z</time>
      </trkpt>
      <trkpt lat="43.44022" lon="5.7571">
        <ele>718</ele>
        <time>2021-03-18T10:35:32Z</time>
      </trkpt>
      <trkpt lat="43.44019" lon="5.75711">
        <ele>718</ele>
        <time>2021-03-18T10:35:35Z</time>
      </trkpt>
      <trkpt lat="43.44017" lon="5.75712">
        <ele>718</ele>
        <time>2021-03-18T10:35:38Z</time>
      </trkpt>
      <trkpt lat="43.44015" lon="5.75714">
        <ele>718</ele>
        <time>2021-03-18T10:35:42Z</time>
      </trkpt>
      <trkpt lat="43.44012" lon="5.75715">
        <ele>718</ele>
        <time>2021-03-18T10:35:46Z</time>
      </trkpt>
      <trkpt lat="43.44011" lon="5.75717">
        <ele>718</ele>
        <time>2021-03-18T10:35:49Z</time>
      </trkpt>
      <trkpt lat="43.44004" lon="5.75725">
        <ele>721</ele>
        <time>2021-03-18T10:35:58Z</time>
      </trkpt>
      <trkpt lat="43.44002" lon="5.75728">
        <ele>721</ele>
        <time>2021-03-18T10:36:02Z</time>
      </trkpt>
      <trkpt lat="43.44" lon="5.75731">
        <ele>721</ele>
        <time>2021-03-18T10:36:06Z</time>
      </trkpt>
      <trkpt lat="43.43997" lon="5.75732">
        <ele>722</ele>
        <time>2021-03-18T10:36:10Z</time>
      </trkpt>
      <trkpt lat="43.43995" lon="5.75734">
        <ele>722</ele>
        <time>2021-03-18T10:36:14Z</time>
      </trkpt>
      <trkpt lat="43.43993" lon="5.75737">
        <ele>724</ele>
        <time>2021-03-18T10:36:18Z</time>
      </trkpt>
      <trkpt lat="43.43987" lon="5.75745">
        <ele>724</ele>
        <time>2021-03-18T10:36:29Z</time>
      </trkpt>
      <trkpt lat="43.43984" lon="5.75758">
        <ele>725</ele>
        <time>2021-03-18T10:36:43Z</time>
      </trkpt>
      <trkpt lat="43.43983" lon="5.75762">
        <ele>726</ele>
        <time>2021-03-18T10:36:52Z</time>
      </trkpt>
      <trkpt lat="43.43982" lon="5.75764">
        <ele>725</ele>
        <time>2021-03-18T10:36:56Z</time>
      </trkpt>
      <trkpt lat="43.43982" lon="5.75766">
        <ele>726</ele>
        <time>2021-03-18T10:37:00Z</time>
      </trkpt>
      <trkpt lat="43.43983" lon="5.75769">
        <ele>726</ele>
        <time>2021-03-18T10:37:10Z</time>
      </trkpt>
      <trkpt lat="43.43984" lon="5.7577">
        <ele>728</ele>
        <time>2021-03-18T10:38:53Z</time>
      </trkpt>
      <trkpt lat="43.43986" lon="5.75772">
        <ele>728</ele>
        <time>2021-03-18T10:38:56Z</time>
      </trkpt>
      <trkpt lat="43.4399" lon="5.75775">
        <ele>728</ele>
        <time>2021-03-18T10:39:01Z</time>
      </trkpt>
      <trkpt lat="43.43992" lon="5.75776">
        <ele>729</ele>
        <time>2021-03-18T10:39:18Z</time>
      </trkpt>
      <trkpt lat="43.43994" lon="5.75776">
        <ele>729</ele>
        <time>2021-03-18T10:39:26Z</time>
      </trkpt>
      <trkpt lat="43.44006" lon="5.7578">
        <ele>731</ele>
        <time>2021-03-18T10:39:46Z</time>
      </trkpt>
      <trkpt lat="43.44016" lon="5.75776">
        <ele>730</ele>
        <time>2021-03-18T10:39:55Z</time>
      </trkpt>
      <trkpt lat="43.44022" lon="5.75777">
        <ele>729</ele>
        <time>2021-03-18T10:40:00Z</time>
      </trkpt>
      <trkpt lat="43.44028" lon="5.75779">
        <ele>729</ele>
        <time>2021-03-18T10:40:06Z</time>
      </trkpt>
      <trkpt lat="43.4403" lon="5.7578">
        <ele>727</ele>
        <time>2021-03-18T10:40:20Z</time>
      </trkpt>
      <trkpt lat="43.44038" lon="5.75785">
        <ele>728</ele>
        <time>2021-03-18T10:40:28Z</time>
      </trkpt>
      <trkpt lat="43.4404" lon="5.75786">
        <ele>729</ele>
        <time>2021-03-18T10:40:30Z</time>
      </trkpt>
      <trkpt lat="43.44044" lon="5.75787">
        <ele>730</ele>
        <time>2021-03-18T10:40:33Z</time>
      </trkpt>
      <trkpt lat="43.44059" lon="5.75808">
        <ele>730</ele>
        <time>2021-03-18T10:40:51Z</time>
      </trkpt>
      <trkpt lat="43.44073" lon="5.7582">
        <ele>732</ele>
        <time>2021-03-18T10:41:06Z</time>
      </trkpt>
      <trkpt lat="43.44085" lon="5.75828">
        <ele>733</ele>
        <time>2021-03-18T10:41:22Z</time>
      </trkpt>
      <trkpt lat="43.44088" lon="5.75831">
        <ele>733</ele>
        <time>2021-03-18T10:41:32Z</time>
      </trkpt>
      <trkpt lat="43.44092" lon="5.7583">
        <ele>735</ele>
        <time>2021-03-18T10:41:37Z</time>
      </trkpt>
      <trkpt lat="43.44093" lon="5.7583">
        <ele>737</ele>
        <time>2021-03-18T10:41:54Z</time>
      </trkpt>
      <trkpt lat="43.44096" lon="5.75832">
        <ele>738</ele>
        <time>2021-03-18T10:42:07Z</time>
      </trkpt>
      <trkpt lat="43.44101" lon="5.75829">
        <ele>743</ele>
        <time>2021-03-18T10:42:43Z</time>
      </trkpt>
      <trkpt lat="43.44104" lon="5.75829">
        <ele>744</ele>
        <time>2021-03-18T10:42:50Z</time>
      </trkpt>
      <trkpt lat="43.44107" lon="5.7583">
        <ele>744</ele>
        <time>2021-03-18T10:42:54Z</time>
      </trkpt>
      <trkpt lat="43.44113" lon="5.75829">
        <ele>743</ele>
        <time>2021-03-18T10:43:05Z</time>
      </trkpt>
      <trkpt lat="43.44116" lon="5.75831">
        <ele>745</ele>
        <time>2021-03-18T10:43:13Z</time>
      </trkpt>
      <trkpt lat="43.44118" lon="5.75832">
        <ele>745</ele>
        <time>2021-03-18T10:43:17Z</time>
      </trkpt>
      <trkpt lat="43.44128" lon="5.75832">
        <ele>748</ele>
        <time>2021-03-18T10:43:32Z</time>
      </trkpt>
      <trkpt lat="43.44131" lon="5.75834">
        <ele>748</ele>
        <time>2021-03-18T10:43:37Z</time>
      </trkpt>
      <trkpt lat="43.44134" lon="5.75833">
        <ele>749</ele>
        <time>2021-03-18T10:43:42Z</time>
      </trkpt>
      <trkpt lat="43.44137" lon="5.75835">
        <ele>749</ele>
        <time>2021-03-18T10:43:47Z</time>
      </trkpt>
      <trkpt lat="43.44139" lon="5.75835">
        <ele>750</ele>
        <time>2021-03-18T10:43:52Z</time>
      </trkpt>
      <trkpt lat="43.44142" lon="5.75835">
        <ele>750</ele>
        <time>2021-03-18T10:43:57Z</time>
      </trkpt>
      <trkpt lat="43.44144" lon="5.75835">
        <ele>751</ele>
        <time>2021-03-18T10:44:03Z</time>
      </trkpt>
      <trkpt lat="43.44148" lon="5.75833">
        <ele>753</ele>
        <time>2021-03-18T10:44:08Z</time>
      </trkpt>
      <trkpt lat="43.44154" lon="5.75835">
        <ele>753</ele>
        <time>2021-03-18T10:44:16Z</time>
      </trkpt>
      <trkpt lat="43.44159" lon="5.7584">
        <ele>755</ele>
        <time>2021-03-18T10:44:23Z</time>
      </trkpt>
      <trkpt lat="43.44166" lon="5.75845">
        <ele>757</ele>
        <time>2021-03-18T10:44:31Z</time>
      </trkpt>
      <trkpt lat="43.44175" lon="5.75855">
        <ele>758</ele>
        <time>2021-03-18T10:44:45Z</time>
      </trkpt>
      <trkpt lat="43.44177" lon="5.75858">
        <ele>758</ele>
        <time>2021-03-18T10:44:49Z</time>
      </trkpt>
      <trkpt lat="43.44179" lon="5.75861">
        <ele>759</ele>
        <time>2021-03-18T10:44:54Z</time>
      </trkpt>
      <trkpt lat="43.44187" lon="5.75867">
        <ele>760</ele>
        <time>2021-03-18T10:45:05Z</time>
      </trkpt>
      <trkpt lat="43.44194" lon="5.75876">
        <ele>760</ele>
        <time>2021-03-18T10:45:16Z</time>
      </trkpt>
      <trkpt lat="43.44203" lon="5.75881">
        <ele>763</ele>
        <time>2021-03-18T10:45:33Z</time>
      </trkpt>
      <trkpt lat="43.44206" lon="5.7589">
        <ele>767</ele>
        <time>2021-03-18T10:45:49Z</time>
      </trkpt>
      <trkpt lat="43.44207" lon="5.75893">
        <ele>767</ele>
        <time>2021-03-18T10:45:53Z</time>
      </trkpt>
      <trkpt lat="43.44208" lon="5.75898">
        <ele>767</ele>
        <time>2021-03-18T10:45:57Z</time>
      </trkpt>
      <trkpt lat="43.44209" lon="5.75906">
        <ele>767</ele>
        <time>2021-03-18T10:46:07Z</time>
      </trkpt>
      <trkpt lat="43.44209" lon="5.7591">
        <ele>767</ele>
        <time>2021-03-18T10:46:12Z</time>
      </trkpt>
      <trkpt lat="43.4421" lon="5.75913">
        <ele>768</ele>
        <time>2021-03-18T10:46:15Z</time>
      </trkpt>
      <trkpt lat="43.44212" lon="5.75916">
        <ele>768</ele>
        <time>2021-03-18T10:46:19Z</time>
      </trkpt>
      <trkpt lat="43.44214" lon="5.75918">
        <ele>770</ele>
        <time>2021-03-18T10:46:26Z</time>
      </trkpt>
      <trkpt lat="43.44219" lon="5.7592">
        <ele>772</ele>
        <time>2021-03-18T10:46:36Z</time>
      </trkpt>
      <trkpt lat="43.44222" lon="5.75918">
        <ele>772</ele>
        <time>2021-03-18T10:46:42Z</time>
      </trkpt>
      <trkpt lat="43.44224" lon="5.75917">
        <ele>772</ele>
        <time>2021-03-18T10:46:51Z</time>
      </trkpt>
      <trkpt lat="43.4423" lon="5.75921">
        <ele>774</ele>
        <time>2021-03-18T10:47:02Z</time>
      </trkpt>
      <trkpt lat="43.4423" lon="5.75924">
        <ele>774</ele>
        <time>2021-03-18T10:47:05Z</time>
      </trkpt>
      <trkpt lat="43.44233" lon="5.75928">
        <ele>775</ele>
        <time>2021-03-18T10:47:11Z</time>
      </trkpt>
      <trkpt lat="43.44235" lon="5.75931">
        <ele>776</ele>
        <time>2021-03-18T10:47:15Z</time>
      </trkpt>
      <trkpt lat="43.44246" lon="5.75945">
        <ele>778</ele>
        <time>2021-03-18T10:47:38Z</time>
      </trkpt>
      <trkpt lat="43.44253" lon="5.7595">
        <ele>783</ele>
        <time>2021-03-18T10:47:56Z</time>
      </trkpt>
      <trkpt lat="43.44258" lon="5.75959">
        <ele>786</ele>
        <time>2021-03-18T10:48:13Z</time>
      </trkpt>
      <trkpt lat="43.44261" lon="5.75961">
        <ele>787</ele>
        <time>2021-03-18T10:48:20Z</time>
      </trkpt>
      <trkpt lat="43.44266" lon="5.7597">
        <ele>787</ele>
        <time>2021-03-18T10:48:39Z</time>
      </trkpt>
      <trkpt lat="43.44267" lon="5.75974">
        <ele>788</ele>
        <time>2021-03-18T10:48:46Z</time>
      </trkpt>
      <trkpt lat="43.44268" lon="5.75975">
        <ele>790</ele>
        <time>2021-03-18T10:49:11Z</time>
      </trkpt>
      <trkpt lat="43.44269" lon="5.75977">
        <ele>792</ele>
        <time>2021-03-18T10:50:23Z</time>
      </trkpt>
      <trkpt lat="43.44271" lon="5.75981">
        <ele>792</ele>
        <time>2021-03-18T10:50:28Z</time>
      </trkpt>
      <trkpt lat="43.44272" lon="5.75988">
        <ele>793</ele>
        <time>2021-03-18T10:52:14Z</time>
      </trkpt>
      <trkpt lat="43.44273" lon="5.75993">
        <ele>793</ele>
        <time>2021-03-18T10:52:18Z</time>
      </trkpt>
      <trkpt lat="43.44273" lon="5.75998">
        <ele>793</ele>
        <time>2021-03-18T10:52:24Z</time>
      </trkpt>
      <trkpt lat="43.44275" lon="5.76001">
        <ele>794</ele>
        <time>2021-03-18T10:52:29Z</time>
      </trkpt>
      <trkpt lat="43.44278" lon="5.76004">
        <ele>796</ele>
        <time>2021-03-18T10:52:35Z</time>
      </trkpt>
      <trkpt lat="43.4428" lon="5.76005">
        <ele>798</ele>
        <time>2021-03-18T10:52:40Z</time>
      </trkpt>
      <trkpt lat="43.44283" lon="5.76008">
        <ele>800</ele>
        <time>2021-03-18T10:52:47Z</time>
      </trkpt>
      <trkpt lat="43.44286" lon="5.76011">
        <ele>802</ele>
        <time>2021-03-18T10:52:54Z</time>
      </trkpt>
      <trkpt lat="43.44288" lon="5.76013">
        <ele>803</ele>
        <time>2021-03-18T10:53:01Z</time>
      </trkpt>
      <trkpt lat="43.44291" lon="5.76014">
        <ele>805</ele>
        <time>2021-03-18T10:53:07Z</time>
      </trkpt>
      <trkpt lat="43.44299" lon="5.76017">
        <ele>808</ele>
        <time>2021-03-18T10:53:29Z</time>
      </trkpt>
      <trkpt lat="43.44309" lon="5.76028">
        <ele>812</ele>
        <time>2021-03-18T10:53:57Z</time>
      </trkpt>
      <trkpt lat="43.44311" lon="5.76032">
        <ele>813</ele>
        <time>2021-03-18T10:54:02Z</time>
      </trkpt>
      <trkpt lat="43.44314" lon="5.76034">
        <ele>814</ele>
        <time>2021-03-18T10:54:07Z</time>
      </trkpt>
      <trkpt lat="43.44319" lon="5.76039">
        <ele>814</ele>
        <time>2021-03-18T10:54:18Z</time>
      </trkpt>
      <trkpt lat="43.44321" lon="5.76041">
        <ele>815</ele>
        <time>2021-03-18T10:54:27Z</time>
      </trkpt>
      <trkpt lat="43.44323" lon="5.76045">
        <ele>816</ele>
        <time>2021-03-18T10:54:33Z</time>
      </trkpt>
      <trkpt lat="43.44326" lon="5.76045">
        <ele>817</ele>
        <time>2021-03-18T10:54:42Z</time>
      </trkpt>
      <trkpt lat="43.44328" lon="5.76049">
        <ele>817</ele>
        <time>2021-03-18T10:54:47Z</time>
      </trkpt>
      <trkpt lat="43.4433" lon="5.76053">
        <ele>817</ele>
        <time>2021-03-18T10:54:51Z</time>
      </trkpt>
      <trkpt lat="43.44332" lon="5.76058">
        <ele>820</ele>
        <time>2021-03-18T10:54:59Z</time>
      </trkpt>
      <trkpt lat="43.44334" lon="5.76062">
        <ele>821</ele>
        <time>2021-03-18T10:55:06Z</time>
      </trkpt>
      <trkpt lat="43.44334" lon="5.76071">
        <ele>821</ele>
        <time>2021-03-18T10:55:13Z</time>
      </trkpt>
      <trkpt lat="43.44339" lon="5.76086">
        <ele>825</ele>
        <time>2021-03-18T10:55:33Z</time>
      </trkpt>
      <trkpt lat="43.44341" lon="5.76087">
        <ele>825</ele>
        <time>2021-03-18T10:55:39Z</time>
      </trkpt>
      <trkpt lat="43.44344" lon="5.76093">
        <ele>827</ele>
        <time>2021-03-18T10:55:49Z</time>
      </trkpt>
      <trkpt lat="43.44346" lon="5.76097">
        <ele>829</ele>
        <time>2021-03-18T10:55:57Z</time>
      </trkpt>
      <trkpt lat="43.44348" lon="5.76099">
        <ele>829</ele>
        <time>2021-03-18T10:56:03Z</time>
      </trkpt>
      <trkpt lat="43.44348" lon="5.76102">
        <ele>829</ele>
        <time>2021-03-18T10:56:30Z</time>
      </trkpt>
      <trkpt lat="43.44356" lon="5.76114">
        <ele>831</ele>
        <time>2021-03-18T10:56:53Z</time>
      </trkpt>
      <trkpt lat="43.44359" lon="5.76121">
        <ele>834</ele>
        <time>2021-03-18T10:57:02Z</time>
      </trkpt>
      <trkpt lat="43.44365" lon="5.76127">
        <ele>836</ele>
        <time>2021-03-18T10:57:16Z</time>
      </trkpt>
      <trkpt lat="43.44367" lon="5.7613">
        <ele>838</ele>
        <time>2021-03-18T10:57:21Z</time>
      </trkpt>
      <trkpt lat="43.44369" lon="5.76131">
        <ele>838</ele>
        <time>2021-03-18T10:57:27Z</time>
      </trkpt>
      <trkpt lat="43.44371" lon="5.76132">
        <ele>840</ele>
        <time>2021-03-18T10:57:33Z</time>
      </trkpt>
      <trkpt lat="43.44373" lon="5.76135">
        <ele>841</ele>
        <time>2021-03-18T10:57:39Z</time>
      </trkpt>
      <trkpt lat="43.44374" lon="5.76139">
        <ele>843</ele>
        <time>2021-03-18T10:57:42Z</time>
      </trkpt>
      <trkpt lat="43.44377" lon="5.76141">
        <ele>844</ele>
        <time>2021-03-18T10:57:49Z</time>
      </trkpt>
      <trkpt lat="43.44381" lon="5.76145">
        <ele>847</ele>
        <time>2021-03-18T10:58:03Z</time>
      </trkpt>
      <trkpt lat="43.44384" lon="5.76145">
        <ele>848</ele>
        <time>2021-03-18T10:58:09Z</time>
      </trkpt>
      <trkpt lat="43.44386" lon="5.76145">
        <ele>848</ele>
        <time>2021-03-18T10:58:13Z</time>
      </trkpt>
      <trkpt lat="43.44388" lon="5.76146">
        <ele>850</ele>
        <time>2021-03-18T10:58:25Z</time>
      </trkpt>
      <trkpt lat="43.44391" lon="5.76146">
        <ele>851</ele>
        <time>2021-03-18T10:58:34Z</time>
      </trkpt>
      <trkpt lat="43.44393" lon="5.76148">
        <ele>852</ele>
        <time>2021-03-18T10:58:38Z</time>
      </trkpt>
      <trkpt lat="43.44399" lon="5.76152">
        <ele>853</ele>
        <time>2021-03-18T10:58:53Z</time>
      </trkpt>
      <trkpt lat="43.44401" lon="5.7615">
        <ele>854</ele>
        <time>2021-03-18T10:59:01Z</time>
      </trkpt>
      <trkpt lat="43.44402" lon="5.76147">
        <ele>854</ele>
        <time>2021-03-18T10:59:05Z</time>
      </trkpt>
      <trkpt lat="43.44408" lon="5.76144">
        <ele>853</ele>
        <time>2021-03-18T10:59:13Z</time>
      </trkpt>
      <trkpt lat="43.44409" lon="5.7614">
        <ele>855</ele>
        <time>2021-03-18T10:59:18Z</time>
      </trkpt>
      <trkpt lat="43.44412" lon="5.76138">
        <ele>856</ele>
        <time>2021-03-18T10:59:23Z</time>
      </trkpt>
      <trkpt lat="43.44415" lon="5.76137">
        <ele>858</ele>
        <time>2021-03-18T10:59:32Z</time>
      </trkpt>
      <trkpt lat="43.44418" lon="5.76138">
        <ele>858</ele>
        <time>2021-03-18T10:59:38Z</time>
      </trkpt>
      <trkpt lat="43.4442" lon="5.76141">
        <ele>859</ele>
        <time>2021-03-18T10:59:43Z</time>
      </trkpt>
      <trkpt lat="43.44422" lon="5.7614">
        <ele>859</ele>
        <time>2021-03-18T10:59:50Z</time>
      </trkpt>
      <trkpt lat="43.44425" lon="5.7614">
        <ele>862</ele>
        <time>2021-03-18T10:59:58Z</time>
      </trkpt>
      <trkpt lat="43.44429" lon="5.76139">
        <ele>863</ele>
        <time>2021-03-18T11:00:08Z</time>
      </trkpt>
      <trkpt lat="43.44431" lon="5.76142">
        <ele>864</ele>
        <time>2021-03-18T11:00:11Z</time>
      </trkpt>
      <trkpt lat="43.44434" lon="5.76143">
        <ele>866</ele>
        <time>2021-03-18T11:00:17Z</time>
      </trkpt>
      <trkpt lat="43.44441" lon="5.76146">
        <ele>873</ele>
        <time>2021-03-18T11:00:37Z</time>
      </trkpt>
      <trkpt lat="43.44444" lon="5.76148">
        <ele>874</ele>
        <time>2021-03-18T11:01:23Z</time>
      </trkpt>
      <trkpt lat="43.44447" lon="5.76149">
        <ele>874</ele>
        <time>2021-03-18T11:01:30Z</time>
      </trkpt>
      <trkpt lat="43.44454" lon="5.76148">
        <ele>875</ele>
        <time>2021-03-18T11:01:40Z</time>
      </trkpt>
      <trkpt lat="43.44473" lon="5.76148">
        <ele>878</ele>
        <time>2021-03-18T11:02:02Z</time>
      </trkpt>
      <trkpt lat="43.44476" lon="5.76149">
        <ele>878</ele>
        <time>2021-03-18T11:02:05Z</time>
      </trkpt>
      <trkpt lat="43.44479" lon="5.76151">
        <ele>878</ele>
        <time>2021-03-18T11:02:08Z</time>
      </trkpt>
      <trkpt lat="43.44483" lon="5.76146">
        <ele>880</ele>
        <time>2021-03-18T11:02:15Z</time>
      </trkpt>
      <trkpt lat="43.44488" lon="5.76133">
        <ele>882</ele>
        <time>2021-03-18T11:02:24Z</time>
      </trkpt>
      <trkpt lat="43.44496" lon="5.76119">
        <ele>883</ele>
        <time>2021-03-18T11:02:37Z</time>
      </trkpt>
      <trkpt lat="43.44502" lon="5.76112">
        <ele>884</ele>
        <time>2021-03-18T11:02:45Z</time>
      </trkpt>
      <trkpt lat="43.44508" lon="5.76105">
        <ele>883</ele>
        <time>2021-03-18T11:02:52Z</time>
      </trkpt>
      <trkpt lat="43.44508" lon="5.76097">
        <ele>882</ele>
        <time>2021-03-18T11:02:58Z</time>
      </trkpt>
      <trkpt lat="43.4451" lon="5.76095">
        <ele>882</ele>
        <time>2021-03-18T11:03:02Z</time>
      </trkpt>
      <trkpt lat="43.44512" lon="5.76098">
        <ele>882</ele>
        <time>2021-03-18T11:03:07Z</time>
      </trkpt>
      <trkpt lat="43.44511" lon="5.76101">
        <ele>883</ele>
        <time>2021-03-18T11:03:10Z</time>
      </trkpt>
      <trkpt lat="43.44509" lon="5.76101">
        <ele>882</ele>
        <time>2021-03-18T11:04:47Z</time>
      </trkpt>
      <trkpt lat="43.44509" lon="5.76105">
        <ele>882</ele>
        <time>2021-03-18T11:04:51Z</time>
      </trkpt>
      <trkpt lat="43.44509" lon="5.76107">
        <ele>882</ele>
        <time>2021-03-18T11:04:57Z</time>
      </trkpt>
      <trkpt lat="43.44508" lon="5.76106">
        <ele>883</ele>
        <time>2021-03-18T11:05:25Z</time>
      </trkpt>
      <trkpt lat="43.44509" lon="5.76105">
        <ele>883</ele>
        <time>2021-03-18T11:05:41Z</time>
      </trkpt>
      <trkpt lat="43.44509" lon="5.76102">
        <ele>883</ele>
        <time>2021-03-18T11:09:25Z</time>
      </trkpt>
      <trkpt lat="43.44507" lon="5.761">
        <ele>884</ele>
        <time>2021-03-18T11:09:28Z</time>
      </trkpt>
      <trkpt lat="43.44506" lon="5.76104">
        <ele>884</ele>
        <time>2021-03-18T11:09:49Z</time>
      </trkpt>
      <trkpt lat="43.44504" lon="5.76105">
        <ele>885</ele>
        <time>2021-03-18T11:09:52Z</time>
      </trkpt>
      <trkpt lat="43.44498" lon="5.76108">
        <ele>883</ele>
        <time>2021-03-18T11:10:41Z</time>
      </trkpt>
      <trkpt lat="43.44496" lon="5.76107">
        <ele>883</ele>
        <time>2021-03-18T11:10:45Z</time>
      </trkpt>
      <trkpt lat="43.44494" lon="5.76105">
        <ele>882</ele>
        <time>2021-03-18T11:11:08Z</time>
      </trkpt>
      <trkpt lat="43.44488" lon="5.76104">
        <ele>881</ele>
        <time>2021-03-18T11:11:24Z</time>
      </trkpt>
      <trkpt lat="43.44486" lon="5.76103">
        <ele>880</ele>
        <time>2021-03-18T11:11:30Z</time>
      </trkpt>
      <trkpt lat="43.44484" lon="5.76101">
        <ele>878</ele>
        <time>2021-03-18T11:12:11Z</time>
      </trkpt>
      <trkpt lat="43.44482" lon="5.76103">
        <ele>878</ele>
        <time>2021-03-18T11:12:17Z</time>
      </trkpt>
      <trkpt lat="43.44477" lon="5.76099">
        <ele>880</ele>
        <time>2021-03-18T11:12:29Z</time>
      </trkpt>
      <trkpt lat="43.44475" lon="5.76098">
        <ele>880</ele>
        <time>2021-03-18T11:12:36Z</time>
      </trkpt>
      <trkpt lat="43.44473" lon="5.76099">
        <ele>879</ele>
        <time>2021-03-18T11:13:08Z</time>
      </trkpt>
      <trkpt lat="43.44471" lon="5.76102">
        <ele>879</ele>
        <time>2021-03-18T11:13:11Z</time>
      </trkpt>
      <trkpt lat="43.44461" lon="5.76109">
        <ele>879</ele>
        <time>2021-03-18T11:13:29Z</time>
      </trkpt>
      <trkpt lat="43.44459" lon="5.7611">
        <ele>878</ele>
        <time>2021-03-18T11:13:35Z</time>
      </trkpt>
      <trkpt lat="43.44456" lon="5.7611">
        <ele>876</ele>
        <time>2021-03-18T11:13:44Z</time>
      </trkpt>
      <trkpt lat="43.44455" lon="5.76109">
        <ele>875</ele>
        <time>2021-03-18T11:13:47Z</time>
      </trkpt>
      <trkpt lat="43.44454" lon="5.76106">
        <ele>873</ele>
        <time>2021-03-18T11:13:51Z</time>
      </trkpt>
      <trkpt lat="43.44452" lon="5.76106">
        <ele>873</ele>
        <time>2021-03-18T11:13:57Z</time>
      </trkpt>
      <trkpt lat="43.4445" lon="5.76109">
        <ele>872</ele>
        <time>2021-03-18T11:14:02Z</time>
      </trkpt>
      <trkpt lat="43.44448" lon="5.7611">
        <ele>870</ele>
        <time>2021-03-18T11:14:07Z</time>
      </trkpt>
      <trkpt lat="43.44437" lon="5.76116">
        <ele>869</ele>
        <time>2021-03-18T11:14:39Z</time>
      </trkpt>
      <trkpt lat="43.44431" lon="5.76118">
        <ele>868</ele>
        <time>2021-03-18T11:14:52Z</time>
      </trkpt>
      <trkpt lat="43.44429" lon="5.76119">
        <ele>866</ele>
        <time>2021-03-18T11:14:58Z</time>
      </trkpt>
      <trkpt lat="43.44427" lon="5.76121">
        <ele>865</ele>
        <time>2021-03-18T11:15:01Z</time>
      </trkpt>
      <trkpt lat="43.44426" lon="5.76124">
        <ele>863</ele>
        <time>2021-03-18T11:15:04Z</time>
      </trkpt>
      <trkpt lat="43.44422" lon="5.7613">
        <ele>862</ele>
        <time>2021-03-18T11:15:13Z</time>
      </trkpt>
      <trkpt lat="43.4442" lon="5.76133">
        <ele>862</ele>
        <time>2021-03-18T11:15:19Z</time>
      </trkpt>
      <trkpt lat="43.44417" lon="5.76139">
        <ele>861</ele>
        <time>2021-03-18T11:15:29Z</time>
      </trkpt>
      <trkpt lat="43.44414" lon="5.76141">
        <ele>860</ele>
        <time>2021-03-18T11:15:36Z</time>
      </trkpt>
      <trkpt lat="43.44412" lon="5.76142">
        <ele>861</ele>
        <time>2021-03-18T11:15:50Z</time>
      </trkpt>
      <trkpt lat="43.44406" lon="5.76149">
        <ele>859</ele>
        <time>2021-03-18T11:15:57Z</time>
      </trkpt>
      <trkpt lat="43.44402" lon="5.76154">
        <ele>858</ele>
        <time>2021-03-18T11:16:03Z</time>
      </trkpt>
      <trkpt lat="43.444" lon="5.76154">
        <ele>856</ele>
        <time>2021-03-18T11:16:09Z</time>
      </trkpt>
      <trkpt lat="43.44398" lon="5.76151">
        <ele>852</ele>
        <time>2021-03-18T11:16:41Z</time>
      </trkpt>
      <trkpt lat="43.44395" lon="5.76149">
        <ele>851</ele>
        <time>2021-03-18T11:16:45Z</time>
      </trkpt>
      <trkpt lat="43.44392" lon="5.76148">
        <ele>851</ele>
        <time>2021-03-18T11:16:50Z</time>
      </trkpt>
      <trkpt lat="43.4439" lon="5.76148">
        <ele>850</ele>
        <time>2021-03-18T11:16:56Z</time>
      </trkpt>
      <trkpt lat="43.44387" lon="5.76148">
        <ele>850</ele>
        <time>2021-03-18T11:17:05Z</time>
      </trkpt>
      <trkpt lat="43.44379" lon="5.76146">
        <ele>848</ele>
        <time>2021-03-18T11:17:18Z</time>
      </trkpt>
      <trkpt lat="43.44377" lon="5.76143">
        <ele>848</ele>
        <time>2021-03-18T11:17:24Z</time>
      </trkpt>
      <trkpt lat="43.44374" lon="5.76139">
        <ele>847</ele>
        <time>2021-03-18T11:17:30Z</time>
      </trkpt>
      <trkpt lat="43.44374" lon="5.76136">
        <ele>846</ele>
        <time>2021-03-18T11:17:33Z</time>
      </trkpt>
      <trkpt lat="43.44364" lon="5.76131">
        <ele>842</ele>
        <time>2021-03-18T11:18:00Z</time>
      </trkpt>
      <trkpt lat="43.44362" lon="5.76128">
        <ele>841</ele>
        <time>2021-03-18T11:18:06Z</time>
      </trkpt>
      <trkpt lat="43.4436" lon="5.76126">
        <ele>841</ele>
        <time>2021-03-18T11:18:12Z</time>
      </trkpt>
      <trkpt lat="43.44352" lon="5.76112">
        <ele>839</ele>
        <time>2021-03-18T11:18:35Z</time>
      </trkpt>
      <trkpt lat="43.44348" lon="5.76103">
        <ele>834</ele>
        <time>2021-03-18T11:19:00Z</time>
      </trkpt>
      <trkpt lat="43.44346" lon="5.761">
        <ele>831</ele>
        <time>2021-03-18T11:19:07Z</time>
      </trkpt>
      <trkpt lat="43.44341" lon="5.76094">
        <ele>830</ele>
        <time>2021-03-18T11:19:15Z</time>
      </trkpt>
      <trkpt lat="43.4434" lon="5.7609">
        <ele>829</ele>
        <time>2021-03-18T11:19:23Z</time>
      </trkpt>
      <trkpt lat="43.44337" lon="5.76088">
        <ele>828</ele>
        <time>2021-03-18T11:19:30Z</time>
      </trkpt>
      <trkpt lat="43.44336" lon="5.76085">
        <ele>827</ele>
        <time>2021-03-18T11:19:34Z</time>
      </trkpt>
      <trkpt lat="43.44334" lon="5.76082">
        <ele>826</ele>
        <time>2021-03-18T11:19:37Z</time>
      </trkpt>
      <trkpt lat="43.44333" lon="5.76078">
        <ele>826</ele>
        <time>2021-03-18T11:19:49Z</time>
      </trkpt>
      <trkpt lat="43.44332" lon="5.76063">
        <ele>824</ele>
        <time>2021-03-18T11:19:59Z</time>
      </trkpt>
      <trkpt lat="43.44329" lon="5.76059">
        <ele>823</ele>
        <time>2021-03-18T11:20:08Z</time>
      </trkpt>
      <trkpt lat="43.44328" lon="5.76056">
        <ele>822</ele>
        <time>2021-03-18T11:20:14Z</time>
      </trkpt>
      <trkpt lat="43.44326" lon="5.76053">
        <ele>821</ele>
        <time>2021-03-18T11:20:19Z</time>
      </trkpt>
      <trkpt lat="43.44325" lon="5.7605">
        <ele>820</ele>
        <time>2021-03-18T11:20:25Z</time>
      </trkpt>
      <trkpt lat="43.44324" lon="5.76045">
        <ele>817</ele>
        <time>2021-03-18T11:20:29Z</time>
      </trkpt>
      <trkpt lat="43.44323" lon="5.76042">
        <ele>816</ele>
        <time>2021-03-18T11:20:33Z</time>
      </trkpt>
      <trkpt lat="43.4432" lon="5.76041">
        <ele>815</ele>
        <time>2021-03-18T11:20:37Z</time>
      </trkpt>
      <trkpt lat="43.44318" lon="5.76039">
        <ele>815</ele>
        <time>2021-03-18T11:20:44Z</time>
      </trkpt>
      <trkpt lat="43.44313" lon="5.76035">
        <ele>812</ele>
        <time>2021-03-18T11:20:55Z</time>
      </trkpt>
      <trkpt lat="43.4431" lon="5.76027">
        <ele>811</ele>
        <time>2021-03-18T11:21:02Z</time>
      </trkpt>
      <trkpt lat="43.44307" lon="5.76025">
        <ele>810</ele>
        <time>2021-03-18T11:21:11Z</time>
      </trkpt>
      <trkpt lat="43.44305" lon="5.76025">
        <ele>808</ele>
        <time>2021-03-18T11:21:18Z</time>
      </trkpt>
      <trkpt lat="43.44302" lon="5.76021">
        <ele>808</ele>
        <time>2021-03-18T11:21:24Z</time>
      </trkpt>
      <trkpt lat="43.443" lon="5.76019">
        <ele>808</ele>
        <time>2021-03-18T11:21:28Z</time>
      </trkpt>
      <trkpt lat="43.44296" lon="5.76016">
        <ele>807</ele>
        <time>2021-03-18T11:21:37Z</time>
      </trkpt>
      <trkpt lat="43.44293" lon="5.76016">
        <ele>807</ele>
        <time>2021-03-18T11:21:41Z</time>
      </trkpt>
      <trkpt lat="43.44291" lon="5.76013">
        <ele>806</ele>
        <time>2021-03-18T11:21:48Z</time>
      </trkpt>
      <trkpt lat="43.44288" lon="5.76011">
        <ele>806</ele>
        <time>2021-03-18T11:21:54Z</time>
      </trkpt>
      <trkpt lat="43.44285" lon="5.76011">
        <ele>804</ele>
        <time>2021-03-18T11:22:03Z</time>
      </trkpt>
      <trkpt lat="43.44284" lon="5.76008">
        <ele>803</ele>
        <time>2021-03-18T11:22:10Z</time>
      </trkpt>
      <trkpt lat="43.44278" lon="5.76004">
        <ele>803</ele>
        <time>2021-03-18T11:22:20Z</time>
      </trkpt>
      <trkpt lat="43.44275" lon="5.76004">
        <ele>802</ele>
        <time>2021-03-18T11:22:28Z</time>
      </trkpt>
      <trkpt lat="43.44272" lon="5.76001">
        <ele>799</ele>
        <time>2021-03-18T11:22:38Z</time>
      </trkpt>
      <trkpt lat="43.4427" lon="5.75998">
        <ele>798</ele>
        <time>2021-03-18T11:22:42Z</time>
      </trkpt>
      <trkpt lat="43.4427" lon="5.7599">
        <ele>796</ele>
        <time>2021-03-18T11:22:52Z</time>
      </trkpt>
      <trkpt lat="43.44269" lon="5.75985">
        <ele>796</ele>
        <time>2021-03-18T11:22:56Z</time>
      </trkpt>
      <trkpt lat="43.44267" lon="5.75982">
        <ele>794</ele>
        <time>2021-03-18T11:23:00Z</time>
      </trkpt>
      <trkpt lat="43.44264" lon="5.7598">
        <ele>795</ele>
        <time>2021-03-18T11:23:06Z</time>
      </trkpt>
      <trkpt lat="43.44263" lon="5.75976">
        <ele>794</ele>
        <time>2021-03-18T11:23:17Z</time>
      </trkpt>
      <trkpt lat="43.44261" lon="5.75973">
        <ele>794</ele>
        <time>2021-03-18T11:23:22Z</time>
      </trkpt>
      <trkpt lat="43.4426" lon="5.75969">
        <ele>791</ele>
        <time>2021-03-18T11:23:29Z</time>
      </trkpt>
      <trkpt lat="43.4426" lon="5.75965">
        <ele>791</ele>
        <time>2021-03-18T11:23:36Z</time>
      </trkpt>
      <trkpt lat="43.44258" lon="5.75962">
        <ele>788</ele>
        <time>2021-03-18T11:23:40Z</time>
      </trkpt>
      <trkpt lat="43.44256" lon="5.75958">
        <ele>787</ele>
        <time>2021-03-18T11:23:47Z</time>
      </trkpt>
      <trkpt lat="43.44253" lon="5.75956">
        <ele>785</ele>
        <time>2021-03-18T11:23:52Z</time>
      </trkpt>
      <trkpt lat="43.44248" lon="5.75949">
        <ele>787</ele>
        <time>2021-03-18T11:24:05Z</time>
      </trkpt>
      <trkpt lat="43.44239" lon="5.75938">
        <ele>780</ele>
        <time>2021-03-18T11:24:24Z</time>
      </trkpt>
      <trkpt lat="43.44237" lon="5.75935">
        <ele>780</ele>
        <time>2021-03-18T11:24:27Z</time>
      </trkpt>
      <trkpt lat="43.44233" lon="5.7593">
        <ele>778</ele>
        <time>2021-03-18T11:24:33Z</time>
      </trkpt>
      <trkpt lat="43.44225" lon="5.7592">
        <ele>778</ele>
        <time>2021-03-18T11:24:44Z</time>
      </trkpt>
      <trkpt lat="43.4422" lon="5.75916">
        <ele>776</ele>
        <time>2021-03-18T11:24:55Z</time>
      </trkpt>
      <trkpt lat="43.44217" lon="5.75917">
        <ele>775</ele>
        <time>2021-03-18T11:25:04Z</time>
      </trkpt>
      <trkpt lat="43.44215" lon="5.75917">
        <ele>774</ele>
        <time>2021-03-18T11:25:12Z</time>
      </trkpt>
      <trkpt lat="43.44212" lon="5.75916">
        <ele>773</ele>
        <time>2021-03-18T11:25:15Z</time>
      </trkpt>
      <trkpt lat="43.44209" lon="5.75913">
        <ele>773</ele>
        <time>2021-03-18T11:25:19Z</time>
      </trkpt>
      <trkpt lat="43.44207" lon="5.7591">
        <ele>773</ele>
        <time>2021-03-18T11:25:23Z</time>
      </trkpt>
      <trkpt lat="43.44205" lon="5.75893">
        <ele>769</ele>
        <time>2021-03-18T11:25:37Z</time>
      </trkpt>
      <trkpt lat="43.44204" lon="5.75889">
        <ele>768</ele>
        <time>2021-03-18T11:25:40Z</time>
      </trkpt>
      <trkpt lat="43.44203" lon="5.75886">
        <ele>767</ele>
        <time>2021-03-18T11:25:44Z</time>
      </trkpt>
      <trkpt lat="43.44202" lon="5.75882">
        <ele>766</ele>
        <time>2021-03-18T11:25:50Z</time>
      </trkpt>
      <trkpt lat="43.44199" lon="5.7588">
        <ele>766</ele>
        <time>2021-03-18T11:25:55Z</time>
      </trkpt>
      <trkpt lat="43.44196" lon="5.75879">
        <ele>765</ele>
        <time>2021-03-18T11:26:00Z</time>
      </trkpt>
      <trkpt lat="43.4419" lon="5.75875">
        <ele>765</ele>
        <time>2021-03-18T11:26:07Z</time>
      </trkpt>
      <trkpt lat="43.44188" lon="5.75871">
        <ele>764</ele>
        <time>2021-03-18T11:26:10Z</time>
      </trkpt>
      <trkpt lat="43.44181" lon="5.75866">
        <ele>764</ele>
        <time>2021-03-18T11:26:19Z</time>
      </trkpt>
      <trkpt lat="43.44176" lon="5.75862">
        <ele>765</ele>
        <time>2021-03-18T11:26:25Z</time>
      </trkpt>
      <trkpt lat="43.44173" lon="5.7586">
        <ele>764</ele>
        <time>2021-03-18T11:26:29Z</time>
      </trkpt>
      <trkpt lat="43.44171" lon="5.75855">
        <ele>760</ele>
        <time>2021-03-18T11:26:37Z</time>
      </trkpt>
      <trkpt lat="43.44169" lon="5.75851">
        <ele>760</ele>
        <time>2021-03-18T11:26:41Z</time>
      </trkpt>
      <trkpt lat="43.44165" lon="5.75846">
        <ele>759</ele>
        <time>2021-03-18T11:26:47Z</time>
      </trkpt>
      <trkpt lat="43.4414" lon="5.75828">
        <ele>755</ele>
        <time>2021-03-18T11:27:17Z</time>
      </trkpt>
      <trkpt lat="43.44135" lon="5.75825">
        <ele>754</ele>
        <time>2021-03-18T11:27:22Z</time>
      </trkpt>
      <trkpt lat="43.44133" lon="5.75822">
        <ele>753</ele>
        <time>2021-03-18T11:27:30Z</time>
      </trkpt>
      <trkpt lat="43.44127" lon="5.7582">
        <ele>753</ele>
        <time>2021-03-18T11:27:37Z</time>
      </trkpt>
      <trkpt lat="43.44125" lon="5.7582">
        <ele>750</ele>
        <time>2021-03-18T11:27:45Z</time>
      </trkpt>
      <trkpt lat="43.44123" lon="5.75819">
        <ele>750</ele>
        <time>2021-03-18T11:27:48Z</time>
      </trkpt>
      <trkpt lat="43.44121" lon="5.75818">
        <ele>750</ele>
        <time>2021-03-18T11:27:51Z</time>
      </trkpt>
      <trkpt lat="43.44115" lon="5.75818">
        <ele>750</ele>
        <time>2021-03-18T11:28:01Z</time>
      </trkpt>
      <trkpt lat="43.44112" lon="5.75817">
        <ele>751</ele>
        <time>2021-03-18T11:28:06Z</time>
      </trkpt>
      <trkpt lat="43.4411" lon="5.75816">
        <ele>749</ele>
        <time>2021-03-18T11:28:10Z</time>
      </trkpt>
      <trkpt lat="43.44109" lon="5.75813">
        <ele>748</ele>
        <time>2021-03-18T11:28:17Z</time>
      </trkpt>
      <trkpt lat="43.44107" lon="5.75811">
        <ele>747</ele>
        <time>2021-03-18T11:28:20Z</time>
      </trkpt>
      <trkpt lat="43.44105" lon="5.75809">
        <ele>745</ele>
        <time>2021-03-18T11:28:24Z</time>
      </trkpt>
      <trkpt lat="43.44103" lon="5.75808">
        <ele>744</ele>
        <time>2021-03-18T11:28:27Z</time>
      </trkpt>
      <trkpt lat="43.44102" lon="5.75804">
        <ele>743</ele>
        <time>2021-03-18T11:28:45Z</time>
      </trkpt>
      <trkpt lat="43.441" lon="5.75802">
        <ele>743</ele>
        <time>2021-03-18T11:28:50Z</time>
      </trkpt>
      <trkpt lat="43.44097" lon="5.75802">
        <ele>742</ele>
        <time>2021-03-18T11:28:55Z</time>
      </trkpt>
      <trkpt lat="43.44095" lon="5.75799">
        <ele>741</ele>
        <time>2021-03-18T11:29:37Z</time>
      </trkpt>
      <trkpt lat="43.44094" lon="5.75791">
        <ele>739</ele>
        <time>2021-03-18T11:29:45Z</time>
      </trkpt>
      <trkpt lat="43.44091" lon="5.75789">
        <ele>738</ele>
        <time>2021-03-18T11:29:49Z</time>
      </trkpt>
      <trkpt lat="43.44079" lon="5.7578">
        <ele>736</ele>
        <time>2021-03-18T11:30:01Z</time>
      </trkpt>
      <trkpt lat="43.44076" lon="5.75781">
        <ele>735</ele>
        <time>2021-03-18T11:30:04Z</time>
      </trkpt>
      <trkpt lat="43.4407" lon="5.75779">
        <ele>735</ele>
        <time>2021-03-18T11:30:10Z</time>
      </trkpt>
      <trkpt lat="43.44068" lon="5.75778">
        <ele>735</ele>
        <time>2021-03-18T11:30:15Z</time>
      </trkpt>
      <trkpt lat="43.44059" lon="5.75781">
        <ele>735</ele>
        <time>2021-03-18T11:30:24Z</time>
      </trkpt>
      <trkpt lat="43.44055" lon="5.75781">
        <ele>734</ele>
        <time>2021-03-18T11:30:28Z</time>
      </trkpt>
      <trkpt lat="43.44053" lon="5.75779">
        <ele>733</ele>
        <time>2021-03-18T11:30:31Z</time>
      </trkpt>
      <trkpt lat="43.44052" lon="5.75776">
        <ele>733</ele>
        <time>2021-03-18T11:30:34Z</time>
      </trkpt>
      <trkpt lat="43.44049" lon="5.75776">
        <ele>732</ele>
        <time>2021-03-18T11:30:37Z</time>
      </trkpt>
      <trkpt lat="43.44045" lon="5.75774">
        <ele>730</ele>
        <time>2021-03-18T11:30:44Z</time>
      </trkpt>
      <trkpt lat="43.44042" lon="5.75773">
        <ele>730</ele>
        <time>2021-03-18T11:30:47Z</time>
      </trkpt>
      <trkpt lat="43.44026" lon="5.75778">
        <ele>727</ele>
        <time>2021-03-18T11:31:17Z</time>
      </trkpt>
      <trkpt lat="43.44024" lon="5.75777">
        <ele>727</ele>
        <time>2021-03-18T11:31:20Z</time>
      </trkpt>
      <trkpt lat="43.44018" lon="5.75777">
        <ele>726</ele>
        <time>2021-03-18T11:31:26Z</time>
      </trkpt>
      <trkpt lat="43.44012" lon="5.7578">
        <ele>726</ele>
        <time>2021-03-18T11:31:31Z</time>
      </trkpt>
      <trkpt lat="43.44002" lon="5.7578">
        <ele>725</ele>
        <time>2021-03-18T11:31:40Z</time>
      </trkpt>
      <trkpt lat="43.43998" lon="5.75779">
        <ele>725</ele>
        <time>2021-03-18T11:31:43Z</time>
      </trkpt>
      <trkpt lat="43.43995" lon="5.75776">
        <ele>725</ele>
        <time>2021-03-18T11:31:46Z</time>
      </trkpt>
      <trkpt lat="43.43991" lon="5.75776">
        <ele>725</ele>
        <time>2021-03-18T11:31:50Z</time>
      </trkpt>
      <trkpt lat="43.43986" lon="5.75774">
        <ele>724</ele>
        <time>2021-03-18T11:31:55Z</time>
      </trkpt>
      <trkpt lat="43.43975" lon="5.75777">
        <ele>723</ele>
        <time>2021-03-18T11:32:04Z</time>
      </trkpt>
      <trkpt lat="43.43972" lon="5.75779">
        <ele>723</ele>
        <time>2021-03-18T11:32:06Z</time>
      </trkpt>
      <trkpt lat="43.43965" lon="5.75781">
        <ele>722</ele>
        <time>2021-03-18T11:32:12Z</time>
      </trkpt>
      <trkpt lat="43.43961" lon="5.75782">
        <ele>722</ele>
        <time>2021-03-18T11:32:15Z</time>
      </trkpt>
      <trkpt lat="43.43958" lon="5.75785">
        <ele>723</ele>
        <time>2021-03-18T11:32:19Z</time>
      </trkpt>
      <trkpt lat="43.43955" lon="5.75787">
        <ele>722</ele>
        <time>2021-03-18T11:32:22Z</time>
      </trkpt>
      <trkpt lat="43.43951" lon="5.75788">
        <ele>721</ele>
        <time>2021-03-18T11:32:32Z</time>
      </trkpt>
      <trkpt lat="43.43949" lon="5.7579">
        <ele>721</ele>
        <time>2021-03-18T11:32:43Z</time>
      </trkpt>
      <trkpt lat="43.43947" lon="5.7579">
        <ele>720</ele>
        <time>2021-03-18T11:32:47Z</time>
      </trkpt>
      <trkpt lat="43.43941" lon="5.7579">
        <ele>719</ele>
        <time>2021-03-18T11:40:20Z</time>
      </trkpt>
      <trkpt lat="43.43938" lon="5.75786">
        <ele>714</ele>
        <time>2021-03-18T11:47:10Z</time>
      </trkpt>
      <trkpt lat="43.43948" lon="5.75784">
        <ele>714</ele>
        <time>2021-03-18T11:48:02Z</time>
      </trkpt>
      <trkpt lat="43.43948" lon="5.75793">
        <ele>715</ele>
        <time>2021-03-18T11:48:47Z</time>
      </trkpt>
      <trkpt lat="43.43943" lon="5.75798">
        <ele>716</ele>
        <time>2021-03-18T11:48:56Z</time>
      </trkpt>
      <trkpt lat="43.43945" lon="5.758">
        <ele>717</ele>
        <time>2021-03-18T11:56:35Z</time>
      </trkpt>
      <trkpt lat="43.43938" lon="5.75797">
        <ele>720</ele>
        <time>2021-03-18T12:00:21Z</time>
      </trkpt>
      <trkpt lat="43.43938" lon="5.75794">
        <ele>718</ele>
        <time>2021-03-18T12:04:01Z</time>
      </trkpt>
      <trkpt lat="43.43941" lon="5.75786">
        <ele>711</ele>
        <time>2021-03-18T12:12:32Z</time>
      </trkpt>
      <trkpt lat="43.43944" lon="5.75781">
        <ele>712</ele>
        <time>2021-03-18T12:17:44Z</time>
      </trkpt>
      <trkpt lat="43.4395" lon="5.75786">
        <ele>712</ele>
        <time>2021-03-18T12:20:54Z</time>
      </trkpt>
      <trkpt lat="43.43948" lon="5.75791">
        <ele>712</ele>
        <time>2021-03-18T12:22:07Z</time>
      </trkpt>
      <trkpt lat="43.43947" lon="5.75788">
        <ele>713</ele>
        <time>2021-03-18T12:23:09Z</time>
      </trkpt>
      <trkpt lat="43.43948" lon="5.75788">
        <ele>712</ele>
        <time>2021-03-18T12:24:54Z</time>
      </trkpt>
      <trkpt lat="43.43948" lon="5.75787">
        <ele>712</ele>
        <time>2021-03-18T12:25:52Z</time>
      </trkpt>
      <trkpt lat="43.43948" lon="5.75784">
        <ele>711</ele>
        <time>2021-03-18T12:31:21Z</time>
      </trkpt>
      <trkpt lat="43.43951" lon="5.75785">
        <ele>709</ele>
        <time>2021-03-18T12:31:31Z</time>
      </trkpt>
      <trkpt lat="43.43962" lon="5.75779">
        <ele>709</ele>
        <time>2021-03-18T12:31:43Z</time>
      </trkpt>
      <trkpt lat="43.43965" lon="5.75779">
        <ele>709</ele>
        <time>2021-03-18T12:31:46Z</time>
      </trkpt>
      <trkpt lat="43.43968" lon="5.75777">
        <ele>709</ele>
        <time>2021-03-18T12:31:49Z</time>
      </trkpt>
      <trkpt lat="43.43977" lon="5.75772">
        <ele>712</ele>
        <time>2021-03-18T12:31:59Z</time>
      </trkpt>
      <trkpt lat="43.43985" lon="5.75761">
        <ele>711</ele>
        <time>2021-03-18T12:32:10Z</time>
      </trkpt>
      <trkpt lat="43.43987" lon="5.75757">
        <ele>712</ele>
        <time>2021-03-18T12:32:14Z</time>
      </trkpt>
      <trkpt lat="43.43987" lon="5.75753">
        <ele>712</ele>
        <time>2021-03-18T12:32:17Z</time>
      </trkpt>
      <trkpt lat="43.43988" lon="5.75747">
        <ele>711</ele>
        <time>2021-03-18T12:32:22Z</time>
      </trkpt>
      <trkpt lat="43.43992" lon="5.75739">
        <ele>714</ele>
        <time>2021-03-18T12:32:30Z</time>
      </trkpt>
      <trkpt lat="43.44" lon="5.75731">
        <ele>716</ele>
        <time>2021-03-18T12:32:39Z</time>
      </trkpt>
      <trkpt lat="43.44002" lon="5.75729">
        <ele>717</ele>
        <time>2021-03-18T12:32:41Z</time>
      </trkpt>
      <trkpt lat="43.44003" lon="5.75727">
        <ele>717</ele>
        <time>2021-03-18T12:32:43Z</time>
      </trkpt>
      <trkpt lat="43.44005" lon="5.75725">
        <ele>716</ele>
        <time>2021-03-18T12:32:48Z</time>
      </trkpt>
      <trkpt lat="43.44007" lon="5.75723">
        <ele>715</ele>
        <time>2021-03-18T12:32:50Z</time>
      </trkpt>
      <trkpt lat="43.44013" lon="5.75718">
        <ele>713</ele>
        <time>2021-03-18T12:33:20Z</time>
      </trkpt>
      <trkpt lat="43.44014" lon="5.75717">
        <ele>713</ele>
        <time>2021-03-18T12:33:22Z</time>
      </trkpt>
      <trkpt lat="43.44016" lon="5.75712">
        <ele>712</ele>
        <time>2021-03-18T12:33:26Z</time>
      </trkpt>
      <trkpt lat="43.44018" lon="5.75711">
        <ele>712</ele>
        <time>2021-03-18T12:33:28Z</time>
      </trkpt>
      <trkpt lat="43.4402" lon="5.7571">
        <ele>712</ele>
        <time>2021-03-18T12:33:30Z</time>
      </trkpt>
      <trkpt lat="43.44025" lon="5.75707">
        <ele>711</ele>
        <time>2021-03-18T12:33:34Z</time>
      </trkpt>
      <trkpt lat="43.44027" lon="5.75706">
        <ele>710</ele>
        <time>2021-03-18T12:33:36Z</time>
      </trkpt>
      <trkpt lat="43.4403" lon="5.75705">
        <ele>709</ele>
        <time>2021-03-18T12:33:38Z</time>
      </trkpt>
      <trkpt lat="43.44041" lon="5.75695">
        <ele>706</ele>
        <time>2021-03-18T12:33:52Z</time>
      </trkpt>
      <trkpt lat="43.4405" lon="5.7569">
        <ele>706</ele>
        <time>2021-03-18T12:34:02Z</time>
      </trkpt>
      <trkpt lat="43.44054" lon="5.75686">
        <ele>705</ele>
        <time>2021-03-18T12:34:27Z</time>
      </trkpt>
      <trkpt lat="43.44055" lon="5.75683">
        <ele>705</ele>
        <time>2021-03-18T12:34:33Z</time>
      </trkpt>
      <trkpt lat="43.44062" lon="5.75681">
        <ele>704</ele>
        <time>2021-03-18T12:34:48Z</time>
      </trkpt>
      <trkpt lat="43.44064" lon="5.75679">
        <ele>702</ele>
        <time>2021-03-18T12:34:53Z</time>
      </trkpt>
      <trkpt lat="43.44066" lon="5.75677">
        <ele>702</ele>
        <time>2021-03-18T12:34:56Z</time>
      </trkpt>
      <trkpt lat="43.44069" lon="5.75674">
        <ele>701</ele>
        <time>2021-03-18T12:35:00Z</time>
      </trkpt>
      <trkpt lat="43.44073" lon="5.75674">
        <ele>700</ele>
        <time>2021-03-18T12:35:04Z</time>
      </trkpt>
      <trkpt lat="43.44075" lon="5.7567">
        <ele>700</ele>
        <time>2021-03-18T12:35:09Z</time>
      </trkpt>
      <trkpt lat="43.44078" lon="5.75668">
        <ele>698</ele>
        <time>2021-03-18T12:35:14Z</time>
      </trkpt>
      <trkpt lat="43.4408" lon="5.75666">
        <ele>697</ele>
        <time>2021-03-18T12:35:18Z</time>
      </trkpt>
      <trkpt lat="43.44086" lon="5.75662">
        <ele>694</ele>
        <time>2021-03-18T12:35:31Z</time>
      </trkpt>
      <trkpt lat="43.44089" lon="5.75661">
        <ele>694</ele>
        <time>2021-03-18T12:35:35Z</time>
      </trkpt>
      <trkpt lat="43.44091" lon="5.7566">
        <ele>694</ele>
        <time>2021-03-18T12:35:39Z</time>
      </trkpt>
      <trkpt lat="43.44093" lon="5.75658">
        <ele>693</ele>
        <time>2021-03-18T12:35:42Z</time>
      </trkpt>
      <trkpt lat="43.44098" lon="5.75656">
        <ele>693</ele>
        <time>2021-03-18T12:35:48Z</time>
      </trkpt>
      <trkpt lat="43.44103" lon="5.75653">
        <ele>691</ele>
        <time>2021-03-18T12:35:59Z</time>
      </trkpt>
      <trkpt lat="43.44104" lon="5.75655">
        <ele>692</ele>
        <time>2021-03-18T12:36:26Z</time>
      </trkpt>
      <trkpt lat="43.44107" lon="5.75655">
        <ele>692</ele>
        <time>2021-03-18T12:36:30Z</time>
      </trkpt>
      <trkpt lat="43.44112" lon="5.75659">
        <ele>692</ele>
        <time>2021-03-18T12:36:36Z</time>
      </trkpt>
      <trkpt lat="43.44144" lon="5.75672">
        <ele>692</ele>
        <time>2021-03-18T12:37:04Z</time>
      </trkpt>
      <trkpt lat="43.44151" lon="5.75673">
        <ele>691</ele>
        <time>2021-03-18T12:37:09Z</time>
      </trkpt>
      <trkpt lat="43.44154" lon="5.75674">
        <ele>691</ele>
        <time>2021-03-18T12:37:11Z</time>
      </trkpt>
      <trkpt lat="43.4416" lon="5.75679">
        <ele>690</ele>
        <time>2021-03-18T12:37:17Z</time>
      </trkpt>
      <trkpt lat="43.44163" lon="5.75679">
        <ele>689</ele>
        <time>2021-03-18T12:37:22Z</time>
      </trkpt>
      <trkpt lat="43.44165" lon="5.75679">
        <ele>689</ele>
        <time>2021-03-18T12:37:24Z</time>
      </trkpt>
      <trkpt lat="43.44168" lon="5.7568">
        <ele>690</ele>
        <time>2021-03-18T12:37:27Z</time>
      </trkpt>
      <trkpt lat="43.44181" lon="5.75672">
        <ele>688</ele>
        <time>2021-03-18T12:37:41Z</time>
      </trkpt>
      <trkpt lat="43.44186" lon="5.75666">
        <ele>688</ele>
        <time>2021-03-18T12:37:48Z</time>
      </trkpt>
      <trkpt lat="43.44199" lon="5.75658">
        <ele>688</ele>
        <time>2021-03-18T12:37:59Z</time>
      </trkpt>
      <trkpt lat="43.44209" lon="5.75652">
        <ele>687</ele>
        <time>2021-03-18T12:38:07Z</time>
      </trkpt>
      <trkpt lat="43.44211" lon="5.75649">
        <ele>687</ele>
        <time>2021-03-18T12:38:09Z</time>
      </trkpt>
      <trkpt lat="43.4422" lon="5.75646">
        <ele>686</ele>
        <time>2021-03-18T12:38:16Z</time>
      </trkpt>
      <trkpt lat="43.44233" lon="5.75651">
        <ele>685</ele>
        <time>2021-03-18T12:38:26Z</time>
      </trkpt>
      <trkpt lat="43.44237" lon="5.75657">
        <ele>684</ele>
        <time>2021-03-18T12:38:32Z</time>
      </trkpt>
      <trkpt lat="43.44239" lon="5.75659">
        <ele>683</ele>
        <time>2021-03-18T12:38:34Z</time>
      </trkpt>
      <trkpt lat="43.44243" lon="5.75664">
        <ele>682</ele>
        <time>2021-03-18T12:38:40Z</time>
      </trkpt>
      <trkpt lat="43.44245" lon="5.75667">
        <ele>683</ele>
        <time>2021-03-18T12:38:43Z</time>
      </trkpt>
      <trkpt lat="43.44254" lon="5.75685">
        <ele>682</ele>
        <time>2021-03-18T12:39:00Z</time>
      </trkpt>
      <trkpt lat="43.44256" lon="5.75692">
        <ele>680</ele>
        <time>2021-03-18T12:39:06Z</time>
      </trkpt>
      <trkpt lat="43.44257" lon="5.75695">
        <ele>680</ele>
        <time>2021-03-18T12:39:09Z</time>
      </trkpt>
      <trkpt lat="43.44259" lon="5.75698">
        <ele>679</ele>
        <time>2021-03-18T12:39:12Z</time>
      </trkpt>
      <trkpt lat="43.44264" lon="5.75699">
        <ele>680</ele>
        <time>2021-03-18T12:39:18Z</time>
      </trkpt>
      <trkpt lat="43.44272" lon="5.75694">
        <ele>680</ele>
        <time>2021-03-18T12:39:29Z</time>
      </trkpt>
      <trkpt lat="43.44275" lon="5.75692">
        <ele>678</ele>
        <time>2021-03-18T12:39:34Z</time>
      </trkpt>
      <trkpt lat="43.44278" lon="5.75691">
        <ele>677</ele>
        <time>2021-03-18T12:39:38Z</time>
      </trkpt>
      <trkpt lat="43.4428" lon="5.75689">
        <ele>676</ele>
        <time>2021-03-18T12:39:41Z</time>
      </trkpt>
      <trkpt lat="43.44283" lon="5.75687">
        <ele>676</ele>
        <time>2021-03-18T12:39:44Z</time>
      </trkpt>
      <trkpt lat="43.44293" lon="5.75678">
        <ele>673</ele>
        <time>2021-03-18T12:39:57Z</time>
      </trkpt>
      <trkpt lat="43.44298" lon="5.75674">
        <ele>673</ele>
        <time>2021-03-18T12:40:03Z</time>
      </trkpt>
      <trkpt lat="43.44305" lon="5.75674">
        <ele>672</ele>
        <time>2021-03-18T12:40:09Z</time>
      </trkpt>
      <trkpt lat="43.44321" lon="5.75678">
        <ele>666</ele>
        <time>2021-03-18T12:40:35Z</time>
      </trkpt>
      <trkpt lat="43.44329" lon="5.75683">
        <ele>665</ele>
        <time>2021-03-18T12:40:44Z</time>
      </trkpt>
      <trkpt lat="43.44332" lon="5.75688">
        <ele>665</ele>
        <time>2021-03-18T12:40:48Z</time>
      </trkpt>
      <trkpt lat="43.44335" lon="5.75689">
        <ele>665</ele>
        <time>2021-03-18T12:40:50Z</time>
      </trkpt>
      <trkpt lat="43.44338" lon="5.75689">
        <ele>665</ele>
        <time>2021-03-18T12:40:53Z</time>
      </trkpt>
      <trkpt lat="43.44345" lon="5.75688">
        <ele>663</ele>
        <time>2021-03-18T12:40:59Z</time>
      </trkpt>
      <trkpt lat="43.44348" lon="5.75686">
        <ele>662</ele>
        <time>2021-03-18T12:41:02Z</time>
      </trkpt>
      <trkpt lat="43.44351" lon="5.75683">
        <ele>662</ele>
        <time>2021-03-18T12:41:05Z</time>
      </trkpt>
      <trkpt lat="43.44361" lon="5.75665">
        <ele>661</ele>
        <time>2021-03-18T12:41:23Z</time>
      </trkpt>
      <trkpt lat="43.44365" lon="5.75664">
        <ele>660</ele>
        <time>2021-03-18T12:41:27Z</time>
      </trkpt>
      <trkpt lat="43.44367" lon="5.75661">
        <ele>660</ele>
        <time>2021-03-18T12:41:30Z</time>
      </trkpt>
      <trkpt lat="43.44372" lon="5.75657">
        <ele>659</ele>
        <time>2021-03-18T12:41:36Z</time>
      </trkpt>
      <trkpt lat="43.44375" lon="5.75657">
        <ele>658</ele>
        <time>2021-03-18T12:41:38Z</time>
      </trkpt>
      <trkpt lat="43.44378" lon="5.75654">
        <ele>656</ele>
        <time>2021-03-18T12:41:43Z</time>
      </trkpt>
      <trkpt lat="43.4438" lon="5.7565">
        <ele>655</ele>
        <time>2021-03-18T12:41:46Z</time>
      </trkpt>
      <trkpt lat="43.44382" lon="5.75649">
        <ele>654</ele>
        <time>2021-03-18T12:41:49Z</time>
      </trkpt>
      <trkpt lat="43.44385" lon="5.75648">
        <ele>654</ele>
        <time>2021-03-18T12:41:52Z</time>
      </trkpt>
      <trkpt lat="43.44387" lon="5.7565">
        <ele>654</ele>
        <time>2021-03-18T12:41:54Z</time>
      </trkpt>
      <trkpt lat="43.4439" lon="5.75651">
        <ele>653</ele>
        <time>2021-03-18T12:41:57Z</time>
      </trkpt>
      <trkpt lat="43.44392" lon="5.75648">
        <ele>652</ele>
        <time>2021-03-18T12:42:00Z</time>
      </trkpt>
      <trkpt lat="43.444" lon="5.75648">
        <ele>652</ele>
        <time>2021-03-18T12:42:10Z</time>
      </trkpt>
      <trkpt lat="43.44403" lon="5.75649">
        <ele>651</ele>
        <time>2021-03-18T12:42:14Z</time>
      </trkpt>
      <trkpt lat="43.44417" lon="5.75651">
        <ele>652</ele>
        <time>2021-03-18T12:42:31Z</time>
      </trkpt>
      <trkpt lat="43.44422" lon="5.75656">
        <ele>650</ele>
        <time>2021-03-18T12:42:36Z</time>
      </trkpt>
      <trkpt lat="43.44426" lon="5.7566">
        <ele>650</ele>
        <time>2021-03-18T12:42:42Z</time>
      </trkpt>
      <trkpt lat="43.44429" lon="5.75665">
        <ele>648</ele>
        <time>2021-03-18T12:42:49Z</time>
      </trkpt>
      <trkpt lat="43.4443" lon="5.75667">
        <ele>648</ele>
        <time>2021-03-18T12:42:53Z</time>
      </trkpt>
      <trkpt lat="43.44433" lon="5.75664">
        <ele>648</ele>
        <time>2021-03-18T12:42:57Z</time>
      </trkpt>
      <trkpt lat="43.44436" lon="5.75666">
        <ele>648</ele>
        <time>2021-03-18T12:43:02Z</time>
      </trkpt>
      <trkpt lat="43.44445" lon="5.75672">
        <ele>648</ele>
        <time>2021-03-18T12:43:18Z</time>
      </trkpt>
      <trkpt lat="43.44449" lon="5.75674">
        <ele>646</ele>
        <time>2021-03-18T12:43:23Z</time>
      </trkpt>
      <trkpt lat="43.44453" lon="5.75675">
        <ele>646</ele>
        <time>2021-03-18T12:43:28Z</time>
      </trkpt>
      <trkpt lat="43.44458" lon="5.75673">
        <ele>646</ele>
        <time>2021-03-18T12:43:33Z</time>
      </trkpt>
      <trkpt lat="43.44462" lon="5.75673">
        <ele>647</ele>
        <time>2021-03-18T12:43:36Z</time>
      </trkpt>
      <trkpt lat="43.44465" lon="5.75671">
        <ele>647</ele>
        <time>2021-03-18T12:43:39Z</time>
      </trkpt>
      <trkpt lat="43.44476" lon="5.75668">
        <ele>646</ele>
        <time>2021-03-18T12:43:48Z</time>
      </trkpt>
      <trkpt lat="43.44482" lon="5.75667">
        <ele>647</ele>
        <time>2021-03-18T12:43:54Z</time>
      </trkpt>
      <trkpt lat="43.44485" lon="5.75667">
        <ele>647</ele>
        <time>2021-03-18T12:43:57Z</time>
      </trkpt>
      <trkpt lat="43.44489" lon="5.75666">
        <ele>647</ele>
        <time>2021-03-18T12:44:01Z</time>
      </trkpt>
      <trkpt lat="43.44492" lon="5.75666">
        <ele>647</ele>
        <time>2021-03-18T12:44:05Z</time>
      </trkpt>
      <trkpt lat="43.44495" lon="5.75667">
        <ele>646</ele>
        <time>2021-03-18T12:44:09Z</time>
      </trkpt>
      <trkpt lat="43.44499" lon="5.75668">
        <ele>645</ele>
        <time>2021-03-18T12:44:14Z</time>
      </trkpt>
      <trkpt lat="43.44501" lon="5.7567">
        <ele>644</ele>
        <time>2021-03-18T12:44:17Z</time>
      </trkpt>
      <trkpt lat="43.44504" lon="5.7567">
        <ele>644</ele>
        <time>2021-03-18T12:44:20Z</time>
      </trkpt>
      <trkpt lat="43.4451" lon="5.75669">
        <ele>643</ele>
        <time>2021-03-18T12:44:25Z</time>
      </trkpt>
      <trkpt lat="43.44512" lon="5.75666">
        <ele>643</ele>
        <time>2021-03-18T12:44:29Z</time>
      </trkpt>
      <trkpt lat="43.44516" lon="5.75667">
        <ele>641</ele>
        <time>2021-03-18T12:44:33Z</time>
      </trkpt>
      <trkpt lat="43.44519" lon="5.75666">
        <ele>641</ele>
        <time>2021-03-18T12:44:36Z</time>
      </trkpt>
      <trkpt lat="43.44523" lon="5.75665">
        <ele>639</ele>
        <time>2021-03-18T12:44:40Z</time>
      </trkpt>
      <trkpt lat="43.44525" lon="5.75667">
        <ele>638</ele>
        <time>2021-03-18T12:44:43Z</time>
      </trkpt>
      <trkpt lat="43.44528" lon="5.75668">
        <ele>637</ele>
        <time>2021-03-18T12:44:47Z</time>
      </trkpt>
      <trkpt lat="43.44531" lon="5.75671">
        <ele>637</ele>
        <time>2021-03-18T12:44:50Z</time>
      </trkpt>
      <trkpt lat="43.44537" lon="5.75668">
        <ele>635</ele>
        <time>2021-03-18T12:44:57Z</time>
      </trkpt>
      <trkpt lat="43.44539" lon="5.75667">
        <ele>635</ele>
        <time>2021-03-18T12:45:00Z</time>
      </trkpt>
      <trkpt lat="43.44549" lon="5.75662">
        <ele>634</ele>
        <time>2021-03-18T12:45:11Z</time>
      </trkpt>
      <trkpt lat="43.44552" lon="5.75663">
        <ele>633</ele>
        <time>2021-03-18T12:45:15Z</time>
      </trkpt>
      <trkpt lat="43.44563" lon="5.7566">
        <ele>631</ele>
        <time>2021-03-18T12:45:24Z</time>
      </trkpt>
      <trkpt lat="43.44565" lon="5.7566">
        <ele>631</ele>
        <time>2021-03-18T12:45:28Z</time>
      </trkpt>
      <trkpt lat="43.44567" lon="5.75663">
        <ele>631</ele>
        <time>2021-03-18T12:45:43Z</time>
      </trkpt>
      <trkpt lat="43.44569" lon="5.75663">
        <ele>630</ele>
        <time>2021-03-18T12:46:28Z</time>
      </trkpt>
      <trkpt lat="43.44593" lon="5.75672">
        <ele>629</ele>
        <time>2021-03-18T12:46:45Z</time>
      </trkpt>
      <trkpt lat="43.44599" lon="5.75673">
        <ele>628</ele>
        <time>2021-03-18T12:46:50Z</time>
      </trkpt>
      <trkpt lat="43.44602" lon="5.7567">
        <ele>627</ele>
        <time>2021-03-18T12:46:54Z</time>
      </trkpt>
      <trkpt lat="43.44604" lon="5.75666">
        <ele>627</ele>
        <time>2021-03-18T12:46:57Z</time>
      </trkpt>
      <trkpt lat="43.44612" lon="5.75648">
        <ele>626</ele>
        <time>2021-03-18T12:47:09Z</time>
      </trkpt>
      <trkpt lat="43.44615" lon="5.75643">
        <ele>626</ele>
        <time>2021-03-18T12:47:12Z</time>
      </trkpt>
      <trkpt lat="43.44629" lon="5.75632">
        <ele>625</ele>
        <time>2021-03-18T12:47:23Z</time>
      </trkpt>
      <trkpt lat="43.44638" lon="5.75629">
        <ele>625</ele>
        <time>2021-03-18T12:47:29Z</time>
      </trkpt>
      <trkpt lat="43.44642" lon="5.75627">
        <ele>626</ele>
        <time>2021-03-18T12:47:32Z</time>
      </trkpt>
      <trkpt lat="43.4465" lon="5.75627">
        <ele>626</ele>
        <time>2021-03-18T12:47:37Z</time>
      </trkpt>
      <trkpt lat="43.44652" lon="5.75626">
        <ele>626</ele>
        <time>2021-03-18T12:47:39Z</time>
      </trkpt>
      <trkpt lat="43.44661" lon="5.75617">
        <ele>627</ele>
        <time>2021-03-18T12:47:47Z</time>
      </trkpt>
      <trkpt lat="43.4468" lon="5.75605">
        <ele>626</ele>
        <time>2021-03-18T12:48:04Z</time>
      </trkpt>
      <trkpt lat="43.44686" lon="5.75601">
        <ele>625</ele>
        <time>2021-03-18T12:48:08Z</time>
      </trkpt>
      <trkpt lat="43.44699" lon="5.75594">
        <ele>625</ele>
        <time>2021-03-18T12:48:19Z</time>
      </trkpt>
      <trkpt lat="43.44727" lon="5.75587">
        <ele>623</ele>
        <time>2021-03-18T12:48:48Z</time>
      </trkpt>
      <trkpt lat="43.44728" lon="5.75587">
        <ele>619</ele>
        <time>2021-03-18T12:50:11Z</time>
      </trkpt>
      <trkpt lat="43.44727" lon="5.75582">
        <ele>618</ele>
        <time>2021-03-18T12:52:01Z</time>
      </trkpt>
      <trkpt lat="43.44727" lon="5.75578">
        <ele>618</ele>
        <time>2021-03-18T12:52:05Z</time>
      </trkpt>
      <trkpt lat="43.44729" lon="5.75575">
        <ele>618</ele>
        <time>2021-03-18T12:52:11Z</time>
      </trkpt>
      <trkpt lat="43.44731" lon="5.7557">
        <ele>618</ele>
        <time>2021-03-18T12:52:16Z</time>
      </trkpt>
      <trkpt lat="43.44732" lon="5.75565">
        <ele>618</ele>
        <time>2021-03-18T12:52:22Z</time>
      </trkpt>
      <trkpt lat="43.44732" lon="5.7556">
        <ele>618</ele>
        <time>2021-03-18T12:52:30Z</time>
      </trkpt>
      <trkpt lat="43.4473" lon="5.75555">
        <ele>618</ele>
        <time>2021-03-18T12:52:34Z</time>
      </trkpt>
      <trkpt lat="43.44731" lon="5.75546">
        <ele>619</ele>
        <time>2021-03-18T12:52:40Z</time>
      </trkpt>
      <trkpt lat="43.4473" lon="5.75541">
        <ele>619</ele>
        <time>2021-03-18T12:52:44Z</time>
      </trkpt>
      <trkpt lat="43.44727" lon="5.75537">
        <ele>620</ele>
        <time>2021-03-18T12:52:51Z</time>
      </trkpt>
      <trkpt lat="43.44724" lon="5.75533">
        <ele>619</ele>
        <time>2021-03-18T12:52:56Z</time>
      </trkpt>
      <trkpt lat="43.44719" lon="5.75529">
        <ele>619</ele>
        <time>2021-03-18T12:53:02Z</time>
      </trkpt>
      <trkpt lat="43.44716" lon="5.75526">
        <ele>620</ele>
        <time>2021-03-18T12:53:07Z</time>
      </trkpt>
      <trkpt lat="43.44712" lon="5.75525">
        <ele>618</ele>
        <time>2021-03-18T12:53:13Z</time>
      </trkpt>
      <trkpt lat="43.44705" lon="5.75523">
        <ele>616</ele>
        <time>2021-03-18T12:53:24Z</time>
      </trkpt>
      <trkpt lat="43.44696" lon="5.75529">
        <ele>613</ele>
        <time>2021-03-18T12:53:36Z</time>
      </trkpt>
      <trkpt lat="43.44692" lon="5.75528">
        <ele>613</ele>
        <time>2021-03-18T12:53:41Z</time>
      </trkpt>
      <trkpt lat="43.44686" lon="5.75527">
        <ele>613</ele>
        <time>2021-03-18T12:53:46Z</time>
      </trkpt>
      <trkpt lat="43.4468" lon="5.7553">
        <ele>613</ele>
        <time>2021-03-18T12:53:52Z</time>
      </trkpt>
      <trkpt lat="43.44678" lon="5.75531">
        <ele>612</ele>
        <time>2021-03-18T12:53:56Z</time>
      </trkpt>
      <trkpt lat="43.44674" lon="5.7553">
        <ele>612</ele>
        <time>2021-03-18T12:53:59Z</time>
      </trkpt>
      <trkpt lat="43.44671" lon="5.75528">
        <ele>611</ele>
        <time>2021-03-18T12:54:04Z</time>
      </trkpt>
      <trkpt lat="43.44667" lon="5.7553">
        <ele>610</ele>
        <time>2021-03-18T12:54:08Z</time>
      </trkpt>
      <trkpt lat="43.44656" lon="5.75532">
        <ele>608</ele>
        <time>2021-03-18T12:54:17Z</time>
      </trkpt>
      <trkpt lat="43.44649" lon="5.75531">
        <ele>608</ele>
        <time>2021-03-18T12:54:24Z</time>
      </trkpt>
      <trkpt lat="43.44646" lon="5.75531">
        <ele>607</ele>
        <time>2021-03-18T12:54:28Z</time>
      </trkpt>
      <trkpt lat="43.44639" lon="5.7553">
        <ele>607</ele>
        <time>2021-03-18T12:54:36Z</time>
      </trkpt>
      <trkpt lat="43.44636" lon="5.7553">
        <ele>607</ele>
        <time>2021-03-18T12:54:39Z</time>
      </trkpt>
      <trkpt lat="43.44633" lon="5.7553">
        <ele>607</ele>
        <time>2021-03-18T12:54:43Z</time>
      </trkpt>
      <trkpt lat="43.44623" lon="5.75533">
        <ele>603</ele>
        <time>2021-03-18T12:54:56Z</time>
      </trkpt>
      <trkpt lat="43.44607" lon="5.75531">
        <ele>600</ele>
        <time>2021-03-18T12:55:17Z</time>
      </trkpt>
      <trkpt lat="43.44604" lon="5.7553">
        <ele>600</ele>
        <time>2021-03-18T12:55:21Z</time>
      </trkpt>
      <trkpt lat="43.44601" lon="5.7553">
        <ele>600</ele>
        <time>2021-03-18T12:55:23Z</time>
      </trkpt>
      <trkpt lat="43.44598" lon="5.75528">
        <ele>600</ele>
        <time>2021-03-18T12:55:26Z</time>
      </trkpt>
      <trkpt lat="43.44596" lon="5.75525">
        <ele>599</ele>
        <time>2021-03-18T12:55:28Z</time>
      </trkpt>
      <trkpt lat="43.44589" lon="5.75522">
        <ele>597</ele>
        <time>2021-03-18T12:55:35Z</time>
      </trkpt>
      <trkpt lat="43.44587" lon="5.75521">
        <ele>596</ele>
        <time>2021-03-18T12:55:38Z</time>
      </trkpt>
      <trkpt lat="43.44585" lon="5.75521">
        <ele>595</ele>
        <time>2021-03-18T12:55:41Z</time>
      </trkpt>
      <trkpt lat="43.44581" lon="5.75523">
        <ele>594</ele>
        <time>2021-03-18T12:55:46Z</time>
      </trkpt>
      <trkpt lat="43.44579" lon="5.75525">
        <ele>594</ele>
        <time>2021-03-18T12:55:49Z</time>
      </trkpt>
      <trkpt lat="43.44577" lon="5.75525">
        <ele>593</ele>
        <time>2021-03-18T12:55:52Z</time>
      </trkpt>
      <trkpt lat="43.44574" lon="5.75528">
        <ele>592</ele>
        <time>2021-03-18T12:55:56Z</time>
      </trkpt>
      <trkpt lat="43.44571" lon="5.75529">
        <ele>591</ele>
        <time>2021-03-18T12:55:59Z</time>
      </trkpt>
      <trkpt lat="43.44568" lon="5.7553">
        <ele>591</ele>
        <time>2021-03-18T12:56:02Z</time>
      </trkpt>
      <trkpt lat="43.44565" lon="5.75527">
        <ele>592</ele>
        <time>2021-03-18T12:56:07Z</time>
      </trkpt>
      <trkpt lat="43.44549" lon="5.75525">
        <ele>593</ele>
        <time>2021-03-18T12:56:26Z</time>
      </trkpt>
      <trkpt lat="43.44546" lon="5.75522">
        <ele>593</ele>
        <time>2021-03-18T12:56:30Z</time>
      </trkpt>
      <trkpt lat="43.44543" lon="5.75519">
        <ele>592</ele>
        <time>2021-03-18T12:56:35Z</time>
      </trkpt>
      <trkpt lat="43.44538" lon="5.75511">
        <ele>592</ele>
        <time>2021-03-18T12:56:43Z</time>
      </trkpt>
      <trkpt lat="43.44534" lon="5.75508">
        <ele>591</ele>
        <time>2021-03-18T12:56:47Z</time>
      </trkpt>
      <trkpt lat="43.44531" lon="5.75507">
        <ele>591</ele>
        <time>2021-03-18T12:56:51Z</time>
      </trkpt>
      <trkpt lat="43.4453" lon="5.75504">
        <ele>590</ele>
        <time>2021-03-18T12:56:55Z</time>
      </trkpt>
      <trkpt lat="43.44527" lon="5.755">
        <ele>588</ele>
        <time>2021-03-18T12:57:00Z</time>
      </trkpt>
      <trkpt lat="43.44525" lon="5.75496">
        <ele>586</ele>
        <time>2021-03-18T12:57:03Z</time>
      </trkpt>
      <trkpt lat="43.44522" lon="5.75494">
        <ele>586</ele>
        <time>2021-03-18T12:57:06Z</time>
      </trkpt>
      <trkpt lat="43.44512" lon="5.75479">
        <ele>584</ele>
        <time>2021-03-18T12:57:21Z</time>
      </trkpt>
      <trkpt lat="43.44508" lon="5.75472">
        <ele>584</ele>
        <time>2021-03-18T12:57:26Z</time>
      </trkpt>
      <trkpt lat="43.44506" lon="5.75463">
        <ele>583</ele>
        <time>2021-03-18T12:57:32Z</time>
      </trkpt>
      <trkpt lat="43.44504" lon="5.75459">
        <ele>583</ele>
        <time>2021-03-18T12:57:36Z</time>
      </trkpt>
      <trkpt lat="43.4449" lon="5.75434">
        <ele>585</ele>
        <time>2021-03-18T12:58:00Z</time>
      </trkpt>
      <trkpt lat="43.44488" lon="5.75423">
        <ele>584</ele>
        <time>2021-03-18T12:58:09Z</time>
      </trkpt>
      <trkpt lat="43.44487" lon="5.75419">
        <ele>584</ele>
        <time>2021-03-18T12:58:13Z</time>
      </trkpt>
      <trkpt lat="43.44479" lon="5.75411">
        <ele>585</ele>
        <time>2021-03-18T12:58:21Z</time>
      </trkpt>
      <trkpt lat="43.44476" lon="5.75411">
        <ele>584</ele>
        <time>2021-03-18T12:58:24Z</time>
      </trkpt>
      <trkpt lat="43.44473" lon="5.75409">
        <ele>583</ele>
        <time>2021-03-18T12:58:29Z</time>
      </trkpt>
      <trkpt lat="43.44471" lon="5.75406">
        <ele>583</ele>
        <time>2021-03-18T12:58:32Z</time>
      </trkpt>
      <trkpt lat="43.44468" lon="5.75405">
        <ele>582</ele>
        <time>2021-03-18T12:58:36Z</time>
      </trkpt>
      <trkpt lat="43.44458" lon="5.75403">
        <ele>581</ele>
        <time>2021-03-18T12:58:47Z</time>
      </trkpt>
      <trkpt lat="43.44446" lon="5.75401">
        <ele>578</ele>
        <time>2021-03-18T12:59:02Z</time>
      </trkpt>
      <trkpt lat="43.44443" lon="5.75402">
        <ele>578</ele>
        <time>2021-03-18T12:59:06Z</time>
      </trkpt>
      <trkpt lat="43.44439" lon="5.75402">
        <ele>578</ele>
        <time>2021-03-18T12:59:09Z</time>
      </trkpt>
      <trkpt lat="43.44432" lon="5.75399">
        <ele>577</ele>
        <time>2021-03-18T12:59:14Z</time>
      </trkpt>
      <trkpt lat="43.44429" lon="5.75398">
        <ele>576</ele>
        <time>2021-03-18T12:59:18Z</time>
      </trkpt>
      <trkpt lat="43.44408" lon="5.75395">
        <ele>574</ele>
        <time>2021-03-18T12:59:40Z</time>
      </trkpt>
      <trkpt lat="43.44406" lon="5.75393">
        <ele>575</ele>
        <time>2021-03-18T12:59:44Z</time>
      </trkpt>
      <trkpt lat="43.44394" lon="5.75366">
        <ele>572</ele>
        <time>2021-03-18T13:00:05Z</time>
      </trkpt>
      <trkpt lat="43.44393" lon="5.75362">
        <ele>570</ele>
        <time>2021-03-18T13:00:10Z</time>
      </trkpt>
      <trkpt lat="43.44391" lon="5.75359">
        <ele>570</ele>
        <time>2021-03-18T13:00:13Z</time>
      </trkpt>
      <trkpt lat="43.44386" lon="5.75355">
        <ele>568</ele>
        <time>2021-03-18T13:00:20Z</time>
      </trkpt>
      <trkpt lat="43.44385" lon="5.75352">
        <ele>568</ele>
        <time>2021-03-18T13:00:25Z</time>
      </trkpt>
      <trkpt lat="43.44384" lon="5.75347">
        <ele>568</ele>
        <time>2021-03-18T13:00:28Z</time>
      </trkpt>
      <trkpt lat="43.44382" lon="5.75344">
        <ele>566</ele>
        <time>2021-03-18T13:00:32Z</time>
      </trkpt>
      <trkpt lat="43.44379" lon="5.75342">
        <ele>565</ele>
        <time>2021-03-18T13:00:35Z</time>
      </trkpt>
      <trkpt lat="43.44378" lon="5.75339">
        <ele>564</ele>
        <time>2021-03-18T13:00:39Z</time>
      </trkpt>
      <trkpt lat="43.44376" lon="5.75336">
        <ele>563</ele>
        <time>2021-03-18T13:00:44Z</time>
      </trkpt>
      <trkpt lat="43.44374" lon="5.75333">
        <ele>563</ele>
        <time>2021-03-18T13:00:49Z</time>
      </trkpt>
      <trkpt lat="43.4437" lon="5.7533">
        <ele>562</ele>
        <time>2021-03-18T13:00:58Z</time>
      </trkpt>
      <trkpt lat="43.44368" lon="5.75325">
        <ele>561</ele>
        <time>2021-03-18T13:01:07Z</time>
      </trkpt>
      <trkpt lat="43.44357" lon="5.7532">
        <ele>561</ele>
        <time>2021-03-18T13:01:23Z</time>
      </trkpt>
      <trkpt lat="43.44355" lon="5.75319">
        <ele>559</ele>
        <time>2021-03-18T13:01:28Z</time>
      </trkpt>
      <trkpt lat="43.44351" lon="5.75319">
        <ele>558</ele>
        <time>2021-03-18T13:01:34Z</time>
      </trkpt>
      <trkpt lat="43.44344" lon="5.75321">
        <ele>554</ele>
        <time>2021-03-18T13:01:43Z</time>
      </trkpt>
      <trkpt lat="43.44341" lon="5.75319">
        <ele>553</ele>
        <time>2021-03-18T13:01:48Z</time>
      </trkpt>
      <trkpt lat="43.44337" lon="5.75317">
        <ele>552</ele>
        <time>2021-03-18T13:01:52Z</time>
      </trkpt>
      <trkpt lat="43.4433" lon="5.75316">
        <ele>550</ele>
        <time>2021-03-18T13:01:59Z</time>
      </trkpt>
      <trkpt lat="43.44327" lon="5.75316">
        <ele>548</ele>
        <time>2021-03-18T13:02:02Z</time>
      </trkpt>
      <trkpt lat="43.44324" lon="5.75317">
        <ele>548</ele>
        <time>2021-03-18T13:02:05Z</time>
      </trkpt>
      <trkpt lat="43.44315" lon="5.75321">
        <ele>548</ele>
        <time>2021-03-18T13:02:17Z</time>
      </trkpt>
      <trkpt lat="43.44309" lon="5.75321">
        <ele>546</ele>
        <time>2021-03-18T13:02:23Z</time>
      </trkpt>
      <trkpt lat="43.44306" lon="5.75324">
        <ele>546</ele>
        <time>2021-03-18T13:02:26Z</time>
      </trkpt>
      <trkpt lat="43.44303" lon="5.75324">
        <ele>546</ele>
        <time>2021-03-18T13:02:29Z</time>
      </trkpt>
      <trkpt lat="43.443" lon="5.75322">
        <ele>546</ele>
        <time>2021-03-18T13:02:32Z</time>
      </trkpt>
      <trkpt lat="43.44299" lon="5.75319">
        <ele>546</ele>
        <time>2021-03-18T13:02:36Z</time>
      </trkpt>
      <trkpt lat="43.44298" lon="5.75314">
        <ele>546</ele>
        <time>2021-03-18T13:02:40Z</time>
      </trkpt>
      <trkpt lat="43.44293" lon="5.75309">
        <ele>547</ele>
        <time>2021-03-18T13:02:45Z</time>
      </trkpt>
      <trkpt lat="43.44292" lon="5.75305">
        <ele>545</ele>
        <time>2021-03-18T13:02:48Z</time>
      </trkpt>
      <trkpt lat="43.44292" lon="5.75301">
        <ele>545</ele>
        <time>2021-03-18T13:02:51Z</time>
      </trkpt>
      <trkpt lat="43.44293" lon="5.75294">
        <ele>542</ele>
        <time>2021-03-18T13:02:55Z</time>
      </trkpt>
      <trkpt lat="43.44293" lon="5.75286">
        <ele>537</ele>
        <time>2021-03-18T13:03:05Z</time>
      </trkpt>
      <trkpt lat="43.44296" lon="5.75286">
        <ele>537</ele>
        <time>2021-03-18T13:03:08Z</time>
      </trkpt>
      <trkpt lat="43.44297" lon="5.75282">
        <ele>537</ele>
        <time>2021-03-18T13:03:11Z</time>
      </trkpt>
      <trkpt lat="43.44298" lon="5.75279">
        <ele>537</ele>
        <time>2021-03-18T13:03:14Z</time>
      </trkpt>
      <trkpt lat="43.44303" lon="5.75274">
        <ele>538</ele>
        <time>2021-03-18T13:03:20Z</time>
      </trkpt>
      <trkpt lat="43.44304" lon="5.75271">
        <ele>537</ele>
        <time>2021-03-18T13:03:24Z</time>
      </trkpt>
      <trkpt lat="43.44305" lon="5.75267">
        <ele>535</ele>
        <time>2021-03-18T13:03:27Z</time>
      </trkpt>
      <trkpt lat="43.44305" lon="5.75264">
        <ele>534</ele>
        <time>2021-03-18T13:03:46Z</time>
      </trkpt>
      <trkpt lat="43.44307" lon="5.75262">
        <ele>529</ele>
        <time>2021-03-18T13:04:02Z</time>
      </trkpt>
      <trkpt lat="43.44308" lon="5.75258">
        <ele>529</ele>
        <time>2021-03-18T13:05:59Z</time>
      </trkpt>
      <trkpt lat="43.44309" lon="5.75255">
        <ele>529</ele>
        <time>2021-03-18T13:06:04Z</time>
      </trkpt>
      <trkpt lat="43.44308" lon="5.75251">
        <ele>529</ele>
        <time>2021-03-18T13:06:07Z</time>
      </trkpt>
      <trkpt lat="43.44311" lon="5.75247">
        <ele>529</ele>
        <time>2021-03-18T13:06:10Z</time>
      </trkpt>
      <trkpt lat="43.44315" lon="5.75247">
        <ele>529</ele>
        <time>2021-03-18T13:06:13Z</time>
      </trkpt>
      <trkpt lat="43.44317" lon="5.75245">
        <ele>529</ele>
        <time>2021-03-18T13:06:19Z</time>
      </trkpt>
      <trkpt lat="43.44319" lon="5.75241">
        <ele>529</ele>
        <time>2021-03-18T13:06:23Z</time>
      </trkpt>
      <trkpt lat="43.44322" lon="5.75237">
        <ele>529</ele>
        <time>2021-03-18T13:06:27Z</time>
      </trkpt>
      <trkpt lat="43.44328" lon="5.75227">
        <ele>528</ele>
        <time>2021-03-18T13:06:37Z</time>
      </trkpt>
      <trkpt lat="43.44336" lon="5.75221">
        <ele>526</ele>
        <time>2021-03-18T13:06:45Z</time>
      </trkpt>
      <trkpt lat="43.44341" lon="5.75214">
        <ele>524</ele>
        <time>2021-03-18T13:06:51Z</time>
      </trkpt>
      <trkpt lat="43.44344" lon="5.75213">
        <ele>524</ele>
        <time>2021-03-18T13:06:56Z</time>
      </trkpt>
      <trkpt lat="43.44362" lon="5.75206">
        <ele>519</ele>
        <time>2021-03-18T13:07:22Z</time>
      </trkpt>
      <trkpt lat="43.44364" lon="5.75202">
        <ele>518</ele>
        <time>2021-03-18T13:07:28Z</time>
      </trkpt>
      <trkpt lat="43.44367" lon="5.75202">
        <ele>518</ele>
        <time>2021-03-18T13:07:34Z</time>
      </trkpt>
      <trkpt lat="43.44372" lon="5.75201">
        <ele>519</ele>
        <time>2021-03-18T13:07:38Z</time>
      </trkpt>
      <trkpt lat="43.44375" lon="5.75199">
        <ele>519</ele>
        <time>2021-03-18T13:07:42Z</time>
      </trkpt>
      <trkpt lat="43.44383" lon="5.75194">
        <ele>517</ele>
        <time>2021-03-18T13:07:51Z</time>
      </trkpt>
      <trkpt lat="43.44387" lon="5.75192">
        <ele>518</ele>
        <time>2021-03-18T13:07:55Z</time>
      </trkpt>
      <trkpt lat="43.44392" lon="5.75189">
        <ele>516</ele>
        <time>2021-03-18T13:08:03Z</time>
      </trkpt>
      <trkpt lat="43.44396" lon="5.75186">
        <ele>515</ele>
        <time>2021-03-18T13:08:06Z</time>
      </trkpt>
      <trkpt lat="43.44401" lon="5.75178">
        <ele>516</ele>
        <time>2021-03-18T13:08:14Z</time>
      </trkpt>
      <trkpt lat="43.44404" lon="5.75173">
        <ele>516</ele>
        <time>2021-03-18T13:08:19Z</time>
      </trkpt>
      <trkpt lat="43.44407" lon="5.75168">
        <ele>515</ele>
        <time>2021-03-18T13:08:23Z</time>
      </trkpt>
      <trkpt lat="43.44409" lon="5.75165">
        <ele>514</ele>
        <time>2021-03-18T13:08:27Z</time>
      </trkpt>
      <trkpt lat="43.44409" lon="5.75159">
        <ele>511</ele>
        <time>2021-03-18T13:08:32Z</time>
      </trkpt>
      <trkpt lat="43.44411" lon="5.75156">
        <ele>511</ele>
        <time>2021-03-18T13:08:34Z</time>
      </trkpt>
      <trkpt lat="43.44412" lon="5.75151">
        <ele>510</ele>
        <time>2021-03-18T13:08:38Z</time>
      </trkpt>
      <trkpt lat="43.44416" lon="5.75142">
        <ele>507</ele>
        <time>2021-03-18T13:08:46Z</time>
      </trkpt>
      <trkpt lat="43.44417" lon="5.75137">
        <ele>507</ele>
        <time>2021-03-18T13:08:50Z</time>
      </trkpt>
      <trkpt lat="43.44417" lon="5.75131">
        <ele>506</ele>
        <time>2021-03-18T13:08:55Z</time>
      </trkpt>
      <trkpt lat="43.44418" lon="5.75125">
        <ele>505</ele>
        <time>2021-03-18T13:09:00Z</time>
      </trkpt>
      <trkpt lat="43.44418" lon="5.75121">
        <ele>504</ele>
        <time>2021-03-18T13:09:04Z</time>
      </trkpt>
      <trkpt lat="43.44418" lon="5.75116">
        <ele>504</ele>
        <time>2021-03-18T13:09:07Z</time>
      </trkpt>
      <trkpt lat="43.44415" lon="5.75113">
        <ele>502</ele>
        <time>2021-03-18T13:09:11Z</time>
      </trkpt>
      <trkpt lat="43.44415" lon="5.75108">
        <ele>501</ele>
        <time>2021-03-18T13:09:16Z</time>
      </trkpt>
      <trkpt lat="43.44411" lon="5.75097">
        <ele>501</ele>
        <time>2021-03-18T13:09:23Z</time>
      </trkpt>
      <trkpt lat="43.44411" lon="5.75093">
        <ele>500</ele>
        <time>2021-03-18T13:09:26Z</time>
      </trkpt>
      <trkpt lat="43.4441" lon="5.7509">
        <ele>500</ele>
        <time>2021-03-18T13:09:29Z</time>
      </trkpt>
      <trkpt lat="43.44409" lon="5.75087">
        <ele>500</ele>
        <time>2021-03-18T13:09:31Z</time>
      </trkpt>
      <trkpt lat="43.44408" lon="5.75081">
        <ele>500</ele>
        <time>2021-03-18T13:09:36Z</time>
      </trkpt>
      <trkpt lat="43.44407" lon="5.75076">
        <ele>499</ele>
        <time>2021-03-18T13:09:40Z</time>
      </trkpt>
      <trkpt lat="43.44405" lon="5.75072">
        <ele>497</ele>
        <time>2021-03-18T13:09:44Z</time>
      </trkpt>
      <trkpt lat="43.44407" lon="5.75069">
        <ele>497</ele>
        <time>2021-03-18T13:09:46Z</time>
      </trkpt>
      <trkpt lat="43.44407" lon="5.75065">
        <ele>494</ele>
        <time>2021-03-18T13:09:51Z</time>
      </trkpt>
      <trkpt lat="43.44408" lon="5.75061">
        <ele>494</ele>
        <time>2021-03-18T13:09:55Z</time>
      </trkpt>
      <trkpt lat="43.44409" lon="5.75047">
        <ele>491</ele>
        <time>2021-03-18T13:10:08Z</time>
      </trkpt>
      <trkpt lat="43.4441" lon="5.75043">
        <ele>489</ele>
        <time>2021-03-18T13:10:15Z</time>
      </trkpt>
      <trkpt lat="43.44408" lon="5.75036">
        <ele>489</ele>
        <time>2021-03-18T13:10:22Z</time>
      </trkpt>
      <trkpt lat="43.44407" lon="5.75032">
        <ele>488</ele>
        <time>2021-03-18T13:10:25Z</time>
      </trkpt>
      <trkpt lat="43.44408" lon="5.75019">
        <ele>486</ele>
        <time>2021-03-18T13:10:37Z</time>
      </trkpt>
      <trkpt lat="43.4441" lon="5.75015">
        <ele>486</ele>
        <time>2021-03-18T13:10:40Z</time>
      </trkpt>
      <trkpt lat="43.44412" lon="5.75012">
        <ele>486</ele>
        <time>2021-03-18T13:10:42Z</time>
      </trkpt>
      <trkpt lat="43.44411" lon="5.75007">
        <ele>486</ele>
        <time>2021-03-18T13:10:46Z</time>
      </trkpt>
      <trkpt lat="43.44412" lon="5.75004">
        <ele>484</ele>
        <time>2021-03-18T13:10:50Z</time>
      </trkpt>
      <trkpt lat="43.44412" lon="5.74999">
        <ele>484</ele>
        <time>2021-03-18T13:10:53Z</time>
      </trkpt>
      <trkpt lat="43.44411" lon="5.74992">
        <ele>483</ele>
        <time>2021-03-18T13:10:59Z</time>
      </trkpt>
      <trkpt lat="43.44412" lon="5.74988">
        <ele>482</ele>
        <time>2021-03-18T13:11:02Z</time>
      </trkpt>
      <trkpt lat="43.44415" lon="5.74977">
        <ele>483</ele>
        <time>2021-03-18T13:11:12Z</time>
      </trkpt>
      <trkpt lat="43.44413" lon="5.74972">
        <ele>482</ele>
        <time>2021-03-18T13:11:18Z</time>
      </trkpt>
      <trkpt lat="43.44413" lon="5.74967">
        <ele>482</ele>
        <time>2021-03-18T13:11:21Z</time>
      </trkpt>
      <trkpt lat="43.44414" lon="5.74963">
        <ele>482</ele>
        <time>2021-03-18T13:11:24Z</time>
      </trkpt>
      <trkpt lat="43.44414" lon="5.74958">
        <ele>482</ele>
        <time>2021-03-18T13:11:29Z</time>
      </trkpt>
      <trkpt lat="43.44415" lon="5.74952">
        <ele>480</ele>
        <time>2021-03-18T13:11:35Z</time>
      </trkpt>
      <trkpt lat="43.44414" lon="5.74944">
        <ele>479</ele>
        <time>2021-03-18T13:11:41Z</time>
      </trkpt>
      <trkpt lat="43.44415" lon="5.7494">
        <ele>478</ele>
        <time>2021-03-18T13:11:44Z</time>
      </trkpt>
      <trkpt lat="43.44416" lon="5.74935">
        <ele>478</ele>
        <time>2021-03-18T13:11:48Z</time>
      </trkpt>
      <trkpt lat="43.44417" lon="5.74925">
        <ele>477</ele>
        <time>2021-03-18T13:11:55Z</time>
      </trkpt>
      <trkpt lat="43.44418" lon="5.7492">
        <ele>477</ele>
        <time>2021-03-18T13:11:59Z</time>
      </trkpt>
      <trkpt lat="43.4442" lon="5.74914">
        <ele>476</ele>
        <time>2021-03-18T13:12:02Z</time>
      </trkpt>
      <trkpt lat="43.44421" lon="5.7491">
        <ele>477</ele>
        <time>2021-03-18T13:12:06Z</time>
      </trkpt>
      <trkpt lat="43.44423" lon="5.74907">
        <ele>477</ele>
        <time>2021-03-18T13:12:10Z</time>
      </trkpt>
      <trkpt lat="43.44425" lon="5.74903">
        <ele>475</ele>
        <time>2021-03-18T13:12:15Z</time>
      </trkpt>
      <trkpt lat="43.44435" lon="5.74884">
        <ele>472</ele>
        <time>2021-03-18T13:12:39Z</time>
      </trkpt>
      <trkpt lat="43.44436" lon="5.7488">
        <ele>471</ele>
        <time>2021-03-18T13:12:44Z</time>
      </trkpt>
      <trkpt lat="43.44437" lon="5.74876">
        <ele>471</ele>
        <time>2021-03-18T13:12:52Z</time>
      </trkpt>
      <trkpt lat="43.44439" lon="5.74873">
        <ele>470</ele>
        <time>2021-03-18T13:12:57Z</time>
      </trkpt>
      <trkpt lat="43.4444" lon="5.7487">
        <ele>471</ele>
        <time>2021-03-18T13:13:00Z</time>
      </trkpt>
      <trkpt lat="43.44441" lon="5.74865">
        <ele>471</ele>
        <time>2021-03-18T13:13:14Z</time>
      </trkpt>
      <trkpt lat="43.44442" lon="5.74861">
        <ele>470</ele>
        <time>2021-03-18T13:13:18Z</time>
      </trkpt>
      <trkpt lat="43.44441" lon="5.74857">
        <ele>469</ele>
        <time>2021-03-18T13:13:25Z</time>
      </trkpt>
      <trkpt lat="43.4444" lon="5.74824">
        <ele>464</ele>
        <time>2021-03-18T13:13:58Z</time>
      </trkpt>
      <trkpt lat="43.44442" lon="5.74817">
        <ele>464</ele>
        <time>2021-03-18T13:14:04Z</time>
      </trkpt>
      <trkpt lat="43.44444" lon="5.74811">
        <ele>464</ele>
        <time>2021-03-18T13:14:10Z</time>
      </trkpt>
      <trkpt lat="43.44448" lon="5.74803">
        <ele>462</ele>
        <time>2021-03-18T13:14:19Z</time>
      </trkpt>
      <trkpt lat="43.4445" lon="5.74797">
        <ele>461</ele>
        <time>2021-03-18T13:14:25Z</time>
      </trkpt>
      <trkpt lat="43.4445" lon="5.74791">
        <ele>459</ele>
        <time>2021-03-18T13:14:31Z</time>
      </trkpt>
      <trkpt lat="43.44453" lon="5.74787">
        <ele>458</ele>
        <time>2021-03-18T13:14:36Z</time>
      </trkpt>
      <trkpt lat="43.44457" lon="5.74784">
        <ele>457</ele>
        <time>2021-03-18T13:14:41Z</time>
      </trkpt>
      <trkpt lat="43.44458" lon="5.74779">
        <ele>456</ele>
        <time>2021-03-18T13:14:46Z</time>
      </trkpt>
      <trkpt lat="43.44458" lon="5.74775">
        <ele>455</ele>
        <time>2021-03-18T13:14:55Z</time>
      </trkpt>
      <trkpt lat="43.44461" lon="5.74771">
        <ele>454</ele>
        <time>2021-03-18T13:15:00Z</time>
      </trkpt>
      <trkpt lat="43.44463" lon="5.74766">
        <ele>452</ele>
        <time>2021-03-18T13:15:06Z</time>
      </trkpt>
      <trkpt lat="43.44466" lon="5.74763">
        <ele>451</ele>
        <time>2021-03-18T13:15:11Z</time>
      </trkpt>
      <trkpt lat="43.44469" lon="5.74759">
        <ele>449</ele>
        <time>2021-03-18T13:15:17Z</time>
      </trkpt>
      <trkpt lat="43.44477" lon="5.74743">
        <ele>448</ele>
        <time>2021-03-18T13:15:42Z</time>
      </trkpt>
      <trkpt lat="43.4448" lon="5.7474">
        <ele>446</ele>
        <time>2021-03-18T13:15:54Z</time>
      </trkpt>
      <trkpt lat="43.44483" lon="5.74738">
        <ele>446</ele>
        <time>2021-03-18T13:15:58Z</time>
      </trkpt>
      <trkpt lat="43.44485" lon="5.74735">
        <ele>444</ele>
        <time>2021-03-18T13:16:13Z</time>
      </trkpt>
      <trkpt lat="43.44492" lon="5.74724">
        <ele>445</ele>
        <time>2021-03-18T13:16:32Z</time>
      </trkpt>
      <trkpt lat="43.44495" lon="5.74722">
        <ele>446</ele>
        <time>2021-03-18T13:16:36Z</time>
      </trkpt>
      <trkpt lat="43.44498" lon="5.74719">
        <ele>445</ele>
        <time>2021-03-18T13:16:41Z</time>
      </trkpt>
      <trkpt lat="43.44501" lon="5.74714">
        <ele>444</ele>
        <time>2021-03-18T13:16:49Z</time>
      </trkpt>
      <trkpt lat="43.44503" lon="5.7471">
        <ele>444</ele>
        <time>2021-03-18T13:16:55Z</time>
      </trkpt>
      <trkpt lat="43.44506" lon="5.74705">
        <ele>443</ele>
        <time>2021-03-18T13:16:59Z</time>
      </trkpt>
      <trkpt lat="43.44511" lon="5.74702">
        <ele>443</ele>
        <time>2021-03-18T13:17:04Z</time>
      </trkpt>
      <trkpt lat="43.44517" lon="5.74695">
        <ele>442</ele>
        <time>2021-03-18T13:17:15Z</time>
      </trkpt>
      <trkpt lat="43.44521" lon="5.74691">
        <ele>440</ele>
        <time>2021-03-18T13:17:20Z</time>
      </trkpt>
      <trkpt lat="43.44522" lon="5.74686">
        <ele>439</ele>
        <time>2021-03-18T13:17:25Z</time>
      </trkpt>
      <trkpt lat="43.44526" lon="5.74684">
        <ele>437</ele>
        <time>2021-03-18T13:17:33Z</time>
      </trkpt>
      <trkpt lat="43.44539" lon="5.74671">
        <ele>439</ele>
        <time>2021-03-18T13:17:51Z</time>
      </trkpt>
      <trkpt lat="43.44546" lon="5.74664">
        <ele>438</ele>
        <time>2021-03-18T13:18:01Z</time>
      </trkpt>
      <trkpt lat="43.44548" lon="5.7466">
        <ele>437</ele>
        <time>2021-03-18T13:18:08Z</time>
      </trkpt>
      <trkpt lat="43.44551" lon="5.74657">
        <ele>436</ele>
        <time>2021-03-18T13:18:12Z</time>
      </trkpt>
      <trkpt lat="43.44555" lon="5.74656">
        <ele>435</ele>
        <time>2021-03-18T13:18:18Z</time>
      </trkpt>
      <trkpt lat="43.44556" lon="5.74652">
        <ele>433</ele>
        <time>2021-03-18T13:18:27Z</time>
      </trkpt>
      <trkpt lat="43.44559" lon="5.7465">
        <ele>430</ele>
        <time>2021-03-18T13:18:32Z</time>
      </trkpt>
      <trkpt lat="43.44563" lon="5.74651">
        <ele>430</ele>
        <time>2021-03-18T13:18:39Z</time>
      </trkpt>
      <trkpt lat="43.44565" lon="5.74645">
        <ele>429</ele>
        <time>2021-03-18T13:18:46Z</time>
      </trkpt>
      <trkpt lat="43.44568" lon="5.74631">
        <ele>425</ele>
        <time>2021-03-18T13:19:06Z</time>
      </trkpt>
      <trkpt lat="43.44581" lon="5.74617">
        <ele>422</ele>
        <time>2021-03-18T13:19:26Z</time>
      </trkpt>
      <trkpt lat="43.44598" lon="5.74604">
        <ele>421</ele>
        <time>2021-03-18T13:19:52Z</time>
      </trkpt>
      <trkpt lat="43.446" lon="5.74599">
        <ele>420</ele>
        <time>2021-03-18T13:19:57Z</time>
      </trkpt>
      <trkpt lat="43.44603" lon="5.74596">
        <ele>418</ele>
        <time>2021-03-18T13:20:04Z</time>
      </trkpt>
      <trkpt lat="43.44605" lon="5.74595">
        <ele>416</ele>
        <time>2021-03-18T13:20:57Z</time>
      </trkpt>
      <trkpt lat="43.44612" lon="5.74593">
        <ele>418</ele>
        <time>2021-03-18T13:21:21Z</time>
      </trkpt>
      <trkpt lat="43.44611" lon="5.74589">
        <ele>420</ele>
        <time>2021-03-18T13:21:58Z</time>
      </trkpt>
      <trkpt lat="43.44613" lon="5.74583">
        <ele>420</ele>
        <time>2021-03-18T13:22:02Z</time>
      </trkpt>
      <trkpt lat="43.44616" lon="5.74581">
        <ele>421</ele>
        <time>2021-03-18T13:22:04Z</time>
      </trkpt>
      <trkpt lat="43.44623" lon="5.74554">
        <ele>418</ele>
        <time>2021-03-18T13:22:30Z</time>
      </trkpt>
      <trkpt lat="43.44629" lon="5.74546">
        <ele>417</ele>
        <time>2021-03-18T13:22:39Z</time>
      </trkpt>
      <trkpt lat="43.44635" lon="5.74547">
        <ele>418</ele>
        <time>2021-03-18T13:22:42Z</time>
      </trkpt>
      <trkpt lat="43.44639" lon="5.74549">
        <ele>419</ele>
        <time>2021-03-18T13:22:44Z</time>
      </trkpt>
      <trkpt lat="43.44644" lon="5.74551">
        <ele>421</ele>
        <time>2021-03-18T13:22:48Z</time>
      </trkpt>
      <trkpt lat="43.4465" lon="5.74548">
        <ele>420</ele>
        <time>2021-03-18T13:22:54Z</time>
      </trkpt>
      <trkpt lat="43.44656" lon="5.74548">
        <ele>417</ele>
        <time>2021-03-18T13:23:01Z</time>
      </trkpt>
      <trkpt lat="43.4466" lon="5.74548">
        <ele>417</ele>
        <time>2021-03-18T13:23:04Z</time>
      </trkpt>
      <trkpt lat="43.44663" lon="5.74545">
        <ele>417</ele>
        <time>2021-03-18T13:23:09Z</time>
      </trkpt>
      <trkpt lat="43.44665" lon="5.74541">
        <ele>417</ele>
        <time>2021-03-18T13:23:14Z</time>
      </trkpt>
      <trkpt lat="43.44667" lon="5.74539">
        <ele>417</ele>
        <time>2021-03-18T13:23:21Z</time>
      </trkpt>
      <trkpt lat="43.44669" lon="5.74539">
        <ele>418</ele>
        <time>2021-03-18T13:23:35Z</time>
      </trkpt>
      <trkpt lat="43.44671" lon="5.74535">
        <ele>419</ele>
        <time>2021-03-18T13:29:28Z</time>
      </trkpt>
      <trkpt lat="43.44672" lon="5.74531">
        <ele>415</ele>
        <time>2021-03-18T13:30:05Z</time>
      </trkpt>
      <trkpt lat="43.44673" lon="5.74526">
        <ele>414</ele>
        <time>2021-03-18T13:30:15Z</time>
      </trkpt>
      <trkpt lat="43.44673" lon="5.7452">
        <ele>413</ele>
        <time>2021-03-18T13:30:22Z</time>
      </trkpt>
      <trkpt lat="43.44675" lon="5.74515">
        <ele>415</ele>
        <time>2021-03-18T13:30:31Z</time>
      </trkpt>
      <trkpt lat="43.4468" lon="5.74512">
        <ele>415</ele>
        <time>2021-03-18T13:30:35Z</time>
      </trkpt>
      <trkpt lat="43.44684" lon="5.74512">
        <ele>415</ele>
        <time>2021-03-18T13:30:39Z</time>
      </trkpt>
      <trkpt lat="43.44691" lon="5.74512">
        <ele>417</ele>
        <time>2021-03-18T13:30:46Z</time>
      </trkpt>
      <trkpt lat="43.44694" lon="5.74511">
        <ele>417</ele>
        <time>2021-03-18T13:30:49Z</time>
      </trkpt>
      <trkpt lat="43.44697" lon="5.7451">
        <ele>416</ele>
        <time>2021-03-18T13:31:00Z</time>
      </trkpt>
      <trkpt lat="43.447" lon="5.74506">
        <ele>417</ele>
        <time>2021-03-18T13:31:05Z</time>
      </trkpt>
      <trkpt lat="43.44706" lon="5.74499">
        <ele>416</ele>
        <time>2021-03-18T13:31:13Z</time>
      </trkpt>
      <trkpt lat="43.4471" lon="5.745">
        <ele>415</ele>
        <time>2021-03-18T13:31:16Z</time>
      </trkpt>
      <trkpt lat="43.44714" lon="5.74499">
        <ele>414</ele>
        <time>2021-03-18T13:31:21Z</time>
      </trkpt>
      <trkpt lat="43.44722" lon="5.74494">
        <ele>413</ele>
        <time>2021-03-18T13:31:32Z</time>
      </trkpt>
      <trkpt lat="43.44725" lon="5.74495">
        <ele>413</ele>
        <time>2021-03-18T13:31:36Z</time>
      </trkpt>
      <trkpt lat="43.4473" lon="5.7449">
        <ele>412</ele>
        <time>2021-03-18T13:31:43Z</time>
      </trkpt>
      <trkpt lat="43.44738" lon="5.74482">
        <ele>412</ele>
        <time>2021-03-18T13:31:53Z</time>
      </trkpt>
      <trkpt lat="43.4474" lon="5.74477">
        <ele>412</ele>
        <time>2021-03-18T13:31:58Z</time>
      </trkpt>
      <trkpt lat="43.44742" lon="5.74472">
        <ele>413</ele>
        <time>2021-03-18T13:32:02Z</time>
      </trkpt>
      <trkpt lat="43.44745" lon="5.74468">
        <ele>413</ele>
        <time>2021-03-18T13:32:06Z</time>
      </trkpt>
      <trkpt lat="43.44748" lon="5.74465">
        <ele>412</ele>
        <time>2021-03-18T13:32:11Z</time>
      </trkpt>
      <trkpt lat="43.44747" lon="5.74461">
        <ele>411</ele>
        <time>2021-03-18T13:32:17Z</time>
      </trkpt>
      <trkpt lat="43.44747" lon="5.74456">
        <ele>408</ele>
        <time>2021-03-18T13:32:22Z</time>
      </trkpt>
      <trkpt lat="43.44747" lon="5.74451">
        <ele>407</ele>
        <time>2021-03-18T13:32:27Z</time>
      </trkpt>
      <trkpt lat="43.44749" lon="5.74446">
        <ele>406</ele>
        <time>2021-03-18T13:32:32Z</time>
      </trkpt>
      <trkpt lat="43.44751" lon="5.7444">
        <ele>405</ele>
        <time>2021-03-18T13:32:36Z</time>
      </trkpt>
      <trkpt lat="43.44752" lon="5.74435">
        <ele>405</ele>
        <time>2021-03-18T13:32:40Z</time>
      </trkpt>
      <trkpt lat="43.44752" lon="5.74431">
        <ele>405</ele>
        <time>2021-03-18T13:32:45Z</time>
      </trkpt>
      <trkpt lat="43.44754" lon="5.74426">
        <ele>406</ele>
        <time>2021-03-18T13:32:49Z</time>
      </trkpt>
      <trkpt lat="43.44754" lon="5.7442">
        <ele>405</ele>
        <time>2021-03-18T13:32:56Z</time>
      </trkpt>
      <trkpt lat="43.44756" lon="5.74414">
        <ele>405</ele>
        <time>2021-03-18T13:32:59Z</time>
      </trkpt>
      <trkpt lat="43.44761" lon="5.74407">
        <ele>405</ele>
        <time>2021-03-18T13:33:04Z</time>
      </trkpt>
      <trkpt lat="43.44763" lon="5.74404">
        <ele>406</ele>
        <time>2021-03-18T13:33:07Z</time>
      </trkpt>
      <trkpt lat="43.44765" lon="5.74399">
        <ele>406</ele>
        <time>2021-03-18T13:33:11Z</time>
      </trkpt>
      <trkpt lat="43.44769" lon="5.74391">
        <ele>405</ele>
        <time>2021-03-18T13:33:18Z</time>
      </trkpt>
      <trkpt lat="43.44768" lon="5.74386">
        <ele>404</ele>
        <time>2021-03-18T13:33:24Z</time>
      </trkpt>
      <trkpt lat="43.4477" lon="5.74381">
        <ele>404</ele>
        <time>2021-03-18T13:33:29Z</time>
      </trkpt>
      <trkpt lat="43.44772" lon="5.74377">
        <ele>404</ele>
        <time>2021-03-18T13:33:34Z</time>
      </trkpt>
      <trkpt lat="43.44774" lon="5.74374">
        <ele>404</ele>
        <time>2021-03-18T13:33:38Z</time>
      </trkpt>
      <trkpt lat="43.44777" lon="5.74357">
        <ele>402</ele>
        <time>2021-03-18T13:33:52Z</time>
      </trkpt>
      <trkpt lat="43.44778" lon="5.74353">
        <ele>402</ele>
        <time>2021-03-18T13:33:57Z</time>
      </trkpt>
      <trkpt lat="43.44784" lon="5.74338">
        <ele>401</ele>
        <time>2021-03-18T13:34:10Z</time>
      </trkpt>
      <trkpt lat="43.44784" lon="5.74333">
        <ele>400</ele>
        <time>2021-03-18T13:34:14Z</time>
      </trkpt>
      <trkpt lat="43.44785" lon="5.74328">
        <ele>400</ele>
        <time>2021-03-18T13:34:19Z</time>
      </trkpt>
      <trkpt lat="43.44789" lon="5.74318">
        <ele>400</ele>
        <time>2021-03-18T13:34:29Z</time>
      </trkpt>
      <trkpt lat="43.44794" lon="5.7431">
        <ele>400</ele>
        <time>2021-03-18T13:34:36Z</time>
      </trkpt>
      <trkpt lat="43.44796" lon="5.74307">
        <ele>401</ele>
        <time>2021-03-18T13:34:40Z</time>
      </trkpt>
      <trkpt lat="43.44801" lon="5.74292">
        <ele>400</ele>
        <time>2021-03-18T13:34:50Z</time>
      </trkpt>
      <trkpt lat="43.4481" lon="5.74274">
        <ele>398</ele>
        <time>2021-03-18T13:35:03Z</time>
      </trkpt>
      <trkpt lat="43.44813" lon="5.74272">
        <ele>397</ele>
        <time>2021-03-18T13:35:06Z</time>
      </trkpt>
      <trkpt lat="43.44815" lon="5.74267">
        <ele>398</ele>
        <time>2021-03-18T13:35:11Z</time>
      </trkpt>
      <trkpt lat="43.44825" lon="5.74258">
        <ele>397</ele>
        <time>2021-03-18T13:35:21Z</time>
      </trkpt>
      <trkpt lat="43.44831" lon="5.7425">
        <ele>395</ele>
        <time>2021-03-18T13:35:30Z</time>
      </trkpt>
      <trkpt lat="43.44834" lon="5.74246">
        <ele>395</ele>
        <time>2021-03-18T13:35:34Z</time>
      </trkpt>
      <trkpt lat="43.44839" lon="5.74238">
        <ele>392</ele>
        <time>2021-03-18T13:35:43Z</time>
      </trkpt>
      <trkpt lat="43.44843" lon="5.74228">
        <ele>392</ele>
        <time>2021-03-18T13:35:52Z</time>
      </trkpt>
      <trkpt lat="43.44847" lon="5.74222">
        <ele>391</ele>
        <time>2021-03-18T13:35:59Z</time>
      </trkpt>
      <trkpt lat="43.44849" lon="5.74218">
        <ele>390</ele>
        <time>2021-03-18T13:36:02Z</time>
      </trkpt>
      <trkpt lat="43.44851" lon="5.74214">
        <ele>389</ele>
        <time>2021-03-18T13:36:10Z</time>
      </trkpt>
      <trkpt lat="43.44852" lon="5.74209">
        <ele>390</ele>
        <time>2021-03-18T13:36:12Z</time>
      </trkpt>
      <trkpt lat="43.44857" lon="5.74192">
        <ele>391</ele>
        <time>2021-03-18T13:36:28Z</time>
      </trkpt>
      <trkpt lat="43.44857" lon="5.74186">
        <ele>391</ele>
        <time>2021-03-18T13:36:32Z</time>
      </trkpt>
      <trkpt lat="43.44859" lon="5.74175">
        <ele>392</ele>
        <time>2021-03-18T13:36:40Z</time>
      </trkpt>
      <trkpt lat="43.4486" lon="5.74158">
        <ele>393</ele>
        <time>2021-03-18T13:36:51Z</time>
      </trkpt>
      <trkpt lat="43.44859" lon="5.74153">
        <ele>393</ele>
        <time>2021-03-18T13:36:55Z</time>
      </trkpt>
      <trkpt lat="43.44862" lon="5.7414">
        <ele>393</ele>
        <time>2021-03-18T13:37:03Z</time>
      </trkpt>
      <trkpt lat="43.44863" lon="5.74128">
        <ele>391</ele>
        <time>2021-03-18T13:37:11Z</time>
      </trkpt>
      <trkpt lat="43.4486" lon="5.74117">
        <ele>387</ele>
        <time>2021-03-18T13:37:22Z</time>
      </trkpt>
      <trkpt lat="43.44859" lon="5.74112">
        <ele>386</ele>
        <time>2021-03-18T13:37:27Z</time>
      </trkpt>
      <trkpt lat="43.44859" lon="5.74107">
        <ele>387</ele>
        <time>2021-03-18T13:37:32Z</time>
      </trkpt>
      <trkpt lat="43.44862" lon="5.74101">
        <ele>387</ele>
        <time>2021-03-18T13:37:35Z</time>
      </trkpt>
      <trkpt lat="43.44868" lon="5.74089">
        <ele>386</ele>
        <time>2021-03-18T13:37:45Z</time>
      </trkpt>
      <trkpt lat="43.44868" lon="5.74083">
        <ele>385</ele>
        <time>2021-03-18T13:37:50Z</time>
      </trkpt>
      <trkpt lat="43.44871" lon="5.74076">
        <ele>385</ele>
        <time>2021-03-18T13:37:54Z</time>
      </trkpt>
      <trkpt lat="43.4487" lon="5.74071">
        <ele>383</ele>
        <time>2021-03-18T13:38:04Z</time>
      </trkpt>
      <trkpt lat="43.44866" lon="5.74063">
        <ele>381</ele>
        <time>2021-03-18T13:38:20Z</time>
      </trkpt>
      <trkpt lat="43.44865" lon="5.74055">
        <ele>381</ele>
        <time>2021-03-18T13:38:25Z</time>
      </trkpt>
      <trkpt lat="43.44868" lon="5.7404">
        <ele>382</ele>
        <time>2021-03-18T13:38:34Z</time>
      </trkpt>
      <trkpt lat="43.4487" lon="5.74035">
        <ele>381</ele>
        <time>2021-03-18T13:38:38Z</time>
      </trkpt>
      <trkpt lat="43.44872" lon="5.7403">
        <ele>381</ele>
        <time>2021-03-18T13:38:40Z</time>
      </trkpt>
      <trkpt lat="43.44872" lon="5.74024">
        <ele>381</ele>
        <time>2021-03-18T13:38:45Z</time>
      </trkpt>
      <trkpt lat="43.44873" lon="5.74018">
        <ele>382</ele>
        <time>2021-03-18T13:38:50Z</time>
      </trkpt>
      <trkpt lat="43.44874" lon="5.74012">
        <ele>381</ele>
        <time>2021-03-18T13:38:55Z</time>
      </trkpt>
      <trkpt lat="43.44875" lon="5.74006">
        <ele>382</ele>
        <time>2021-03-18T13:39:02Z</time>
      </trkpt>
      <trkpt lat="43.44883" lon="5.7399">
        <ele>381</ele>
        <time>2021-03-18T13:39:13Z</time>
      </trkpt>
      <trkpt lat="43.44887" lon="5.73977">
        <ele>380</ele>
        <time>2021-03-18T13:39:20Z</time>
      </trkpt>
      <trkpt lat="43.44899" lon="5.73965">
        <ele>377</ele>
        <time>2021-03-18T13:39:35Z</time>
      </trkpt>
      <trkpt lat="43.44903" lon="5.73964">
        <ele>377</ele>
        <time>2021-03-18T13:39:38Z</time>
      </trkpt>
      <trkpt lat="43.44913" lon="5.73966">
        <ele>376</ele>
        <time>2021-03-18T13:39:46Z</time>
      </trkpt>
      <trkpt lat="43.44917" lon="5.73966">
        <ele>375</ele>
        <time>2021-03-18T13:39:50Z</time>
      </trkpt>
      <trkpt lat="43.44925" lon="5.73963">
        <ele>375</ele>
        <time>2021-03-18T13:40:03Z</time>
      </trkpt>
      <trkpt lat="43.44928" lon="5.73969">
        <ele>375</ele>
        <time>2021-03-18T13:40:08Z</time>
      </trkpt>
      <trkpt lat="43.4493" lon="5.73971">
        <ele>373</ele>
        <time>2021-03-18T13:40:10Z</time>
      </trkpt>
      <trkpt lat="43.44938" lon="5.73979">
        <ele>371</ele>
        <time>2021-03-18T13:40:17Z</time>
      </trkpt>
      <trkpt lat="43.44953" lon="5.74">
        <ele>366</ele>
        <time>2021-03-18T13:40:39Z</time>
      </trkpt>
      <trkpt lat="43.44956" lon="5.74004">
        <ele>366</ele>
        <time>2021-03-18T13:40:42Z</time>
      </trkpt>
      <trkpt lat="43.44957" lon="5.74007">
        <ele>367</ele>
        <time>2021-03-18T13:40:45Z</time>
      </trkpt>
      <trkpt lat="43.4496" lon="5.74009">
        <ele>366</ele>
        <time>2021-03-18T13:40:48Z</time>
      </trkpt>
      <trkpt lat="43.44968" lon="5.74018">
        <ele>367</ele>
        <time>2021-03-18T13:40:59Z</time>
      </trkpt>
      <trkpt lat="43.44973" lon="5.74024">
        <ele>367</ele>
        <time>2021-03-18T13:41:05Z</time>
      </trkpt>
      <trkpt lat="43.44976" lon="5.74027">
        <ele>367</ele>
        <time>2021-03-18T13:41:08Z</time>
      </trkpt>
      <trkpt lat="43.4498" lon="5.74036">
        <ele>367</ele>
        <time>2021-03-18T13:41:20Z</time>
      </trkpt>
      <trkpt lat="43.44989" lon="5.74041">
        <ele>367</ele>
        <time>2021-03-18T13:41:32Z</time>
      </trkpt>
      <trkpt lat="43.44997" lon="5.74047">
        <ele>367</ele>
        <time>2021-03-18T13:41:41Z</time>
      </trkpt>
      <trkpt lat="43.45015" lon="5.7407">
        <ele>366</ele>
        <time>2021-03-18T13:42:02Z</time>
      </trkpt>
      <trkpt lat="43.45023" lon="5.74085">
        <ele>366</ele>
        <time>2021-03-18T13:42:14Z</time>
      </trkpt>
      <trkpt lat="43.45026" lon="5.74088">
        <ele>366</ele>
        <time>2021-03-18T13:42:18Z</time>
      </trkpt>
      <trkpt lat="43.45028" lon="5.74092">
        <ele>366</ele>
        <time>2021-03-18T13:42:27Z</time>
      </trkpt>
      <trkpt lat="43.45037" lon="5.74098">
        <ele>366</ele>
        <time>2021-03-18T13:42:40Z</time>
      </trkpt>
      <trkpt lat="43.45041" lon="5.74099">
        <ele>366</ele>
        <time>2021-03-18T13:42:44Z</time>
      </trkpt>
      <trkpt lat="43.45044" lon="5.74102">
        <ele>366</ele>
        <time>2021-03-18T13:42:49Z</time>
      </trkpt>
      <trkpt lat="43.45061" lon="5.74117">
        <ele>362</ele>
        <time>2021-03-18T13:43:09Z</time>
      </trkpt>
      <trkpt lat="43.45064" lon="5.74118">
        <ele>362</ele>
        <time>2021-03-18T13:43:12Z</time>
      </trkpt>
      <trkpt lat="43.45075" lon="5.74114">
        <ele>361</ele>
        <time>2021-03-18T13:43:26Z</time>
      </trkpt>
      <trkpt lat="43.45079" lon="5.74114">
        <ele>361</ele>
        <time>2021-03-18T13:43:31Z</time>
      </trkpt>
      <trkpt lat="43.45083" lon="5.74112">
        <ele>360</ele>
        <time>2021-03-18T13:43:36Z</time>
      </trkpt>
      <trkpt lat="43.45087" lon="5.74112">
        <ele>360</ele>
        <time>2021-03-18T13:43:41Z</time>
      </trkpt>
      <trkpt lat="43.45094" lon="5.74112">
        <ele>359</ele>
        <time>2021-03-18T13:43:51Z</time>
      </trkpt>
      <trkpt lat="43.4511" lon="5.7412">
        <ele>356</ele>
        <time>2021-03-18T13:44:08Z</time>
      </trkpt>
      <trkpt lat="43.45116" lon="5.74123">
        <ele>355</ele>
        <time>2021-03-18T13:44:15Z</time>
      </trkpt>
      <trkpt lat="43.4512" lon="5.74125">
        <ele>356</ele>
        <time>2021-03-18T13:44:21Z</time>
      </trkpt>
      <trkpt lat="43.45128" lon="5.74125">
        <ele>359</ele>
        <time>2021-03-18T13:44:30Z</time>
      </trkpt>
      <trkpt lat="43.45132" lon="5.74127">
        <ele>360</ele>
        <time>2021-03-18T13:44:33Z</time>
      </trkpt>
      <trkpt lat="43.45142" lon="5.74146">
        <ele>356</ele>
        <time>2021-03-18T13:44:49Z</time>
      </trkpt>
      <trkpt lat="43.45145" lon="5.74149">
        <ele>355</ele>
        <time>2021-03-18T13:44:52Z</time>
      </trkpt>
      <trkpt lat="43.45147" lon="5.74153">
        <ele>354</ele>
        <time>2021-03-18T13:44:55Z</time>
      </trkpt>
      <trkpt lat="43.45149" lon="5.74159">
        <ele>355</ele>
        <time>2021-03-18T13:44:59Z</time>
      </trkpt>
      <trkpt lat="43.45152" lon="5.74162">
        <ele>356</ele>
        <time>2021-03-18T13:45:05Z</time>
      </trkpt>
      <trkpt lat="43.45171" lon="5.74166">
        <ele>357</ele>
        <time>2021-03-18T13:45:23Z</time>
      </trkpt>
      <trkpt lat="43.45175" lon="5.74168">
        <ele>358</ele>
        <time>2021-03-18T13:45:26Z</time>
      </trkpt>
      <trkpt lat="43.45179" lon="5.7417">
        <ele>357</ele>
        <time>2021-03-18T13:45:30Z</time>
      </trkpt>
      <trkpt lat="43.45185" lon="5.74171">
        <ele>357</ele>
        <time>2021-03-18T13:45:36Z</time>
      </trkpt>
      <trkpt lat="43.45195" lon="5.74173">
        <ele>357</ele>
        <time>2021-03-18T13:45:46Z</time>
      </trkpt>
      <trkpt lat="43.45202" lon="5.74178">
        <ele>356</ele>
        <time>2021-03-18T13:45:54Z</time>
      </trkpt>
      <trkpt lat="43.45207" lon="5.74186">
        <ele>355</ele>
        <time>2021-03-18T13:46:01Z</time>
      </trkpt>
      <trkpt lat="43.45215" lon="5.74193">
        <ele>356</ele>
        <time>2021-03-18T13:46:10Z</time>
      </trkpt>
      <trkpt lat="43.45218" lon="5.74194">
        <ele>356</ele>
        <time>2021-03-18T13:46:15Z</time>
      </trkpt>
      <trkpt lat="43.45222" lon="5.74195">
        <ele>356</ele>
        <time>2021-03-18T13:46:19Z</time>
      </trkpt>
      <trkpt lat="43.45225" lon="5.74197">
        <ele>355</ele>
        <time>2021-03-18T13:46:23Z</time>
      </trkpt>
      <trkpt lat="43.4523" lon="5.74199">
        <ele>355</ele>
        <time>2021-03-18T13:46:28Z</time>
      </trkpt>
      <trkpt lat="43.45234" lon="5.742">
        <ele>353</ele>
        <time>2021-03-18T13:46:35Z</time>
      </trkpt>
      <trkpt lat="43.4524" lon="5.74204">
        <ele>352</ele>
        <time>2021-03-18T13:46:56Z</time>
      </trkpt>
      <trkpt lat="43.45242" lon="5.74207">
        <ele>350</ele>
        <time>2021-03-18T13:47:33Z</time>
      </trkpt>
      <trkpt lat="43.45245" lon="5.74215">
        <ele>348</ele>
        <time>2021-03-18T13:47:42Z</time>
      </trkpt>
      <trkpt lat="43.45248" lon="5.74233">
        <ele>349</ele>
        <time>2021-03-18T13:47:59Z</time>
      </trkpt>
      <trkpt lat="43.45249" lon="5.74237">
        <ele>349</ele>
        <time>2021-03-18T13:48:02Z</time>
      </trkpt>
      <trkpt lat="43.45248" lon="5.74243">
        <ele>349</ele>
        <time>2021-03-18T13:48:07Z</time>
      </trkpt>
      <trkpt lat="43.45247" lon="5.74246">
        <ele>348</ele>
        <time>2021-03-18T13:48:12Z</time>
      </trkpt>
      <trkpt lat="43.45247" lon="5.7425">
        <ele>347</ele>
        <time>2021-03-18T13:48:15Z</time>
      </trkpt>
      <trkpt lat="43.45246" lon="5.74259">
        <ele>347</ele>
        <time>2021-03-18T13:48:23Z</time>
      </trkpt>
      <trkpt lat="43.45247" lon="5.74264">
        <ele>347</ele>
        <time>2021-03-18T13:48:26Z</time>
      </trkpt>
      <trkpt lat="43.4525" lon="5.74277">
        <ele>348</ele>
        <time>2021-03-18T13:48:35Z</time>
      </trkpt>
      <trkpt lat="43.45251" lon="5.74282">
        <ele>348</ele>
        <time>2021-03-18T13:48:39Z</time>
      </trkpt>
      <trkpt lat="43.4525" lon="5.74288">
        <ele>349</ele>
        <time>2021-03-18T13:48:43Z</time>
      </trkpt>
      <trkpt lat="43.45253" lon="5.74301">
        <ele>350</ele>
        <time>2021-03-18T13:48:54Z</time>
      </trkpt>
      <trkpt lat="43.45255" lon="5.74305">
        <ele>349</ele>
        <time>2021-03-18T13:49:00Z</time>
      </trkpt>
      <trkpt lat="43.45256" lon="5.74309">
        <ele>349</ele>
        <time>2021-03-18T13:49:03Z</time>
      </trkpt>
      <trkpt lat="43.45256" lon="5.74314">
        <ele>349</ele>
        <time>2021-03-18T13:49:06Z</time>
      </trkpt>
      <trkpt lat="43.45256" lon="5.74324">
        <ele>350</ele>
        <time>2021-03-18T13:49:13Z</time>
      </trkpt>
      <trkpt lat="43.45258" lon="5.74331">
        <ele>350</ele>
        <time>2021-03-18T13:49:19Z</time>
      </trkpt>
      <trkpt lat="43.45258" lon="5.74337">
        <ele>350</ele>
        <time>2021-03-18T13:49:23Z</time>
      </trkpt>
      <trkpt lat="43.45259" lon="5.74342">
        <ele>351</ele>
        <time>2021-03-18T13:49:26Z</time>
      </trkpt>
      <trkpt lat="43.45259" lon="5.74347">
        <ele>351</ele>
        <time>2021-03-18T13:49:30Z</time>
      </trkpt>
      <trkpt lat="43.45259" lon="5.74364">
        <ele>352</ele>
        <time>2021-03-18T13:49:42Z</time>
      </trkpt>
      <trkpt lat="43.45261" lon="5.74368">
        <ele>353</ele>
        <time>2021-03-18T13:49:46Z</time>
      </trkpt>
      <trkpt lat="43.45262" lon="5.74378">
        <ele>352</ele>
        <time>2021-03-18T13:49:54Z</time>
      </trkpt>
      <trkpt lat="43.45263" lon="5.74384">
        <ele>351</ele>
        <time>2021-03-18T13:49:58Z</time>
      </trkpt>
      <trkpt lat="43.45263" lon="5.74391">
        <ele>350</ele>
        <time>2021-03-18T13:50:02Z</time>
      </trkpt>
      <trkpt lat="43.45264" lon="5.74396">
        <ele>350</ele>
        <time>2021-03-18T13:50:05Z</time>
      </trkpt>
      <trkpt lat="43.45265" lon="5.74401">
        <ele>350</ele>
        <time>2021-03-18T13:50:09Z</time>
      </trkpt>
      <trkpt lat="43.45267" lon="5.7441">
        <ele>353</ele>
        <time>2021-03-18T13:50:17Z</time>
      </trkpt>
      <trkpt lat="43.45268" lon="5.74419">
        <ele>352</ele>
        <time>2021-03-18T13:50:27Z</time>
      </trkpt>
      <trkpt lat="43.45268" lon="5.74425">
        <ele>353</ele>
        <time>2021-03-18T13:50:31Z</time>
      </trkpt>
      <trkpt lat="43.45272" lon="5.74433">
        <ele>353</ele>
        <time>2021-03-18T13:50:40Z</time>
      </trkpt>
      <trkpt lat="43.45278" lon="5.7444">
        <ele>353</ele>
        <time>2021-03-18T13:50:47Z</time>
      </trkpt>
      <trkpt lat="43.45281" lon="5.74443">
        <ele>354</ele>
        <time>2021-03-18T13:50:52Z</time>
      </trkpt>
      <trkpt lat="43.45285" lon="5.74446">
        <ele>354</ele>
        <time>2021-03-18T13:50:56Z</time>
      </trkpt>
      <trkpt lat="43.45292" lon="5.74452">
        <ele>355</ele>
        <time>2021-03-18T13:51:06Z</time>
      </trkpt>
      <trkpt lat="43.45299" lon="5.74459">
        <ele>357</ele>
        <time>2021-03-18T13:51:12Z</time>
      </trkpt>
      <trkpt lat="43.45319" lon="5.74477">
        <ele>354</ele>
        <time>2021-03-18T13:51:32Z</time>
      </trkpt>
      <trkpt lat="43.45334" lon="5.74501">
        <ele>355</ele>
        <time>2021-03-18T13:51:53Z</time>
      </trkpt>
      <trkpt lat="43.4534" lon="5.74506">
        <ele>354</ele>
        <time>2021-03-18T13:52:00Z</time>
      </trkpt>
      <trkpt lat="43.45345" lon="5.74511">
        <ele>355</ele>
        <time>2021-03-18T13:52:07Z</time>
      </trkpt>
      <trkpt lat="43.45346" lon="5.74516">
        <ele>356</ele>
        <time>2021-03-18T13:52:10Z</time>
      </trkpt>
      <trkpt lat="43.45348" lon="5.74518">
        <ele>355</ele>
        <time>2021-03-18T13:52:14Z</time>
      </trkpt>
      <trkpt lat="43.4535" lon="5.74522">
        <ele>355</ele>
        <time>2021-03-18T13:52:18Z</time>
      </trkpt>
      <trkpt lat="43.45352" lon="5.74527">
        <ele>354</ele>
        <time>2021-03-18T13:52:21Z</time>
      </trkpt>
      <trkpt lat="43.45362" lon="5.74539">
        <ele>352</ele>
        <time>2021-03-18T13:52:32Z</time>
      </trkpt>
      <trkpt lat="43.45375" lon="5.74549">
        <ele>353</ele>
        <time>2021-03-18T13:52:46Z</time>
      </trkpt>
      <trkpt lat="43.45386" lon="5.74553">
        <ele>356</ele>
        <time>2021-03-18T13:52:57Z</time>
      </trkpt>
      <trkpt lat="43.45413" lon="5.74571">
        <ele>357</ele>
        <time>2021-03-18T13:53:23Z</time>
      </trkpt>
      <trkpt lat="43.45417" lon="5.74572">
        <ele>357</ele>
        <time>2021-03-18T13:53:26Z</time>
      </trkpt>
      <trkpt lat="43.45422" lon="5.74579">
        <ele>357</ele>
        <time>2021-03-18T13:53:33Z</time>
      </trkpt>
      <trkpt lat="43.45425" lon="5.74581">
        <ele>358</ele>
        <time>2021-03-18T13:53:37Z</time>
      </trkpt>
      <trkpt lat="43.45453" lon="5.74613">
        <ele>358</ele>
        <time>2021-03-18T13:54:09Z</time>
      </trkpt>
      <trkpt lat="43.45456" lon="5.74615">
        <ele>357</ele>
        <time>2021-03-18T13:54:12Z</time>
      </trkpt>
      <trkpt lat="43.45459" lon="5.74617">
        <ele>357</ele>
        <time>2021-03-18T13:54:15Z</time>
      </trkpt>
      <trkpt lat="43.45469" lon="5.74629">
        <ele>358</ele>
        <time>2021-03-18T13:54:28Z</time>
      </trkpt>
      <trkpt lat="43.45477" lon="5.74639">
        <ele>358</ele>
        <time>2021-03-18T13:54:37Z</time>
      </trkpt>
      <trkpt lat="43.45505" lon="5.74668">
        <ele>356</ele>
        <time>2021-03-18T13:55:07Z</time>
      </trkpt>
      <trkpt lat="43.45511" lon="5.74673">
        <ele>356</ele>
        <time>2021-03-18T13:55:14Z</time>
      </trkpt>
      <trkpt lat="43.45518" lon="5.74684">
        <ele>356</ele>
        <time>2021-03-18T13:55:23Z</time>
      </trkpt>
      <trkpt lat="43.45524" lon="5.747">
        <ele>356</ele>
        <time>2021-03-18T13:55:34Z</time>
      </trkpt>
      <trkpt lat="43.45527" lon="5.7472">
        <ele>356</ele>
        <time>2021-03-18T13:55:46Z</time>
      </trkpt>
      <trkpt lat="43.45528" lon="5.74731">
        <ele>356</ele>
        <time>2021-03-18T13:55:55Z</time>
      </trkpt>
      <trkpt lat="43.45525" lon="5.74768">
        <ele>355</ele>
        <time>2021-03-18T13:56:25Z</time>
      </trkpt>
      <trkpt lat="43.45524" lon="5.74783">
        <ele>355</ele>
        <time>2021-03-18T13:56:39Z</time>
      </trkpt>
      <trkpt lat="43.45523" lon="5.74795">
        <ele>357</ele>
        <time>2021-03-18T13:56:50Z</time>
      </trkpt>
      <trkpt lat="43.45523" lon="5.74801">
        <ele>358</ele>
        <time>2021-03-18T13:56:54Z</time>
      </trkpt>
      <trkpt lat="43.45529" lon="5.74817">
        <ele>358</ele>
        <time>2021-03-18T13:57:06Z</time>
      </trkpt>
      <trkpt lat="43.45531" lon="5.7482">
        <ele>358</ele>
        <time>2021-03-18T13:57:10Z</time>
      </trkpt>
      <trkpt lat="43.45538" lon="5.74826">
        <ele>359</ele>
        <time>2021-03-18T13:57:19Z</time>
      </trkpt>
      <trkpt lat="43.45543" lon="5.74833">
        <ele>361</ele>
        <time>2021-03-18T13:57:26Z</time>
      </trkpt>
      <trkpt lat="43.45545" lon="5.74837">
        <ele>363</ele>
        <time>2021-03-18T13:57:29Z</time>
      </trkpt>
      <trkpt lat="43.45547" lon="5.74842">
        <ele>363</ele>
        <time>2021-03-18T13:57:34Z</time>
      </trkpt>
      <trkpt lat="43.45554" lon="5.74856">
        <ele>362</ele>
        <time>2021-03-18T13:57:44Z</time>
      </trkpt>
      <trkpt lat="43.45555" lon="5.74861">
        <ele>362</ele>
        <time>2021-03-18T13:57:47Z</time>
      </trkpt>
      <trkpt lat="43.4556" lon="5.74871">
        <ele>361</ele>
        <time>2021-03-18T13:57:55Z</time>
      </trkpt>
      <trkpt lat="43.45561" lon="5.74877">
        <ele>361</ele>
        <time>2021-03-18T13:57:59Z</time>
      </trkpt>
      <trkpt lat="43.45563" lon="5.74882">
        <ele>361</ele>
        <time>2021-03-18T13:58:04Z</time>
      </trkpt>
      <trkpt lat="43.45567" lon="5.74885">
        <ele>361</ele>
        <time>2021-03-18T13:58:09Z</time>
      </trkpt>
      <trkpt lat="43.4557" lon="5.7489">
        <ele>360</ele>
        <time>2021-03-18T13:58:13Z</time>
      </trkpt>
      <trkpt lat="43.45573" lon="5.74895">
        <ele>360</ele>
        <time>2021-03-18T13:58:17Z</time>
      </trkpt>
      <trkpt lat="43.45575" lon="5.749">
        <ele>361</ele>
        <time>2021-03-18T13:58:21Z</time>
      </trkpt>
      <trkpt lat="43.45578" lon="5.74904">
        <ele>360</ele>
        <time>2021-03-18T13:58:25Z</time>
      </trkpt>
      <trkpt lat="43.45584" lon="5.74912">
        <ele>360</ele>
        <time>2021-03-18T13:58:33Z</time>
      </trkpt>
      <trkpt lat="43.45589" lon="5.7492">
        <ele>361</ele>
        <time>2021-03-18T13:58:42Z</time>
      </trkpt>
      <trkpt lat="43.45592" lon="5.74923">
        <ele>362</ele>
        <time>2021-03-18T13:58:46Z</time>
      </trkpt>
      <trkpt lat="43.45597" lon="5.74924">
        <ele>362</ele>
        <time>2021-03-18T13:58:51Z</time>
      </trkpt>
      <trkpt lat="43.45609" lon="5.74932">
        <ele>364</ele>
        <time>2021-03-18T13:59:05Z</time>
      </trkpt>
      <trkpt lat="43.45612" lon="5.74936">
        <ele>364</ele>
        <time>2021-03-18T13:59:09Z</time>
      </trkpt>
      <trkpt lat="43.45624" lon="5.74944">
        <ele>368</ele>
        <time>2021-03-18T13:59:21Z</time>
      </trkpt>
      <trkpt lat="43.45654" lon="5.74973">
        <ele>370</ele>
        <time>2021-03-18T13:59:51Z</time>
      </trkpt>
      <trkpt lat="43.45658" lon="5.74975">
        <ele>371</ele>
        <time>2021-03-18T13:59:54Z</time>
      </trkpt>
      <trkpt lat="43.45666" lon="5.74985">
        <ele>368</ele>
        <time>2021-03-18T14:00:01Z</time>
      </trkpt>
      <trkpt lat="43.45671" lon="5.74995">
        <ele>367</ele>
        <time>2021-03-18T14:00:08Z</time>
      </trkpt>
      <trkpt lat="43.45675" lon="5.74997">
        <ele>367</ele>
        <time>2021-03-18T14:00:11Z</time>
      </trkpt>
      <trkpt lat="43.45681" lon="5.7501">
        <ele>367</ele>
        <time>2021-03-18T14:00:21Z</time>
      </trkpt>
      <trkpt lat="43.45689" lon="5.75026">
        <ele>366</ele>
        <time>2021-03-18T14:00:31Z</time>
      </trkpt>
      <trkpt lat="43.45689" lon="5.75032">
        <ele>367</ele>
        <time>2021-03-18T14:00:34Z</time>
      </trkpt>
      <trkpt lat="43.4569" lon="5.75041">
        <ele>367</ele>
        <time>2021-03-18T14:00:39Z</time>
      </trkpt>
      <trkpt lat="43.45692" lon="5.75065">
        <ele>368</ele>
        <time>2021-03-18T14:00:57Z</time>
      </trkpt>
      <trkpt lat="43.45694" lon="5.75071">
        <ele>367</ele>
        <time>2021-03-18T14:01:01Z</time>
      </trkpt>
      <trkpt lat="43.45696" lon="5.75077">
        <ele>368</ele>
        <time>2021-03-18T14:01:06Z</time>
      </trkpt>
      <trkpt lat="43.45697" lon="5.75082">
        <ele>368</ele>
        <time>2021-03-18T14:01:09Z</time>
      </trkpt>
      <trkpt lat="43.45697" lon="5.75088">
        <ele>368</ele>
        <time>2021-03-18T14:01:13Z</time>
      </trkpt>
      <trkpt lat="43.457" lon="5.75106">
        <ele>366</ele>
        <time>2021-03-18T14:01:26Z</time>
      </trkpt>
      <trkpt lat="43.45699" lon="5.75112">
        <ele>364</ele>
        <time>2021-03-18T14:01:31Z</time>
      </trkpt>
      <trkpt lat="43.45698" lon="5.75118">
        <ele>365</ele>
        <time>2021-03-18T14:01:36Z</time>
      </trkpt>
      <trkpt lat="43.45698" lon="5.75124">
        <ele>366</ele>
        <time>2021-03-18T14:01:41Z</time>
      </trkpt>
      <trkpt lat="43.45699" lon="5.75131">
        <ele>367</ele>
        <time>2021-03-18T14:01:46Z</time>
      </trkpt>
      <trkpt lat="43.457" lon="5.75142">
        <ele>368</ele>
        <time>2021-03-18T14:01:55Z</time>
      </trkpt>
      <trkpt lat="43.45699" lon="5.75154">
        <ele>369</ele>
        <time>2021-03-18T14:02:04Z</time>
      </trkpt>
      <trkpt lat="43.45699" lon="5.75161">
        <ele>370</ele>
        <time>2021-03-18T14:02:10Z</time>
      </trkpt>
      <trkpt lat="43.457" lon="5.75172">
        <ele>370</ele>
        <time>2021-03-18T14:02:17Z</time>
      </trkpt>
      <trkpt lat="43.45701" lon="5.75178">
        <ele>371</ele>
        <time>2021-03-18T14:02:23Z</time>
      </trkpt>
      <trkpt lat="43.45702" lon="5.75184">
        <ele>372</ele>
        <time>2021-03-18T14:02:30Z</time>
      </trkpt>
      <trkpt lat="43.45701" lon="5.75191">
        <ele>373</ele>
        <time>2021-03-18T14:02:36Z</time>
      </trkpt>
      <trkpt lat="43.45702" lon="5.75197">
        <ele>375</ele>
        <time>2021-03-18T14:02:41Z</time>
      </trkpt>
      <trkpt lat="43.45699" lon="5.75203">
        <ele>376</ele>
        <time>2021-03-18T14:02:45Z</time>
      </trkpt>
      <trkpt lat="43.45699" lon="5.75208">
        <ele>376</ele>
        <time>2021-03-18T14:02:49Z</time>
      </trkpt>
      <trkpt lat="43.45694" lon="5.75222">
        <ele>376</ele>
        <time>2021-03-18T14:03:03Z</time>
      </trkpt>
      <trkpt lat="43.45694" lon="5.75229">
        <ele>377</ele>
        <time>2021-03-18T14:03:08Z</time>
      </trkpt>
      <trkpt lat="43.45694" lon="5.75234">
        <ele>376</ele>
        <time>2021-03-18T14:03:12Z</time>
      </trkpt>
      <trkpt lat="43.45693" lon="5.7524">
        <ele>376</ele>
        <time>2021-03-18T14:03:16Z</time>
      </trkpt>
      <trkpt lat="43.45691" lon="5.75245">
        <ele>375</ele>
        <time>2021-03-18T14:03:22Z</time>
      </trkpt>
      <trkpt lat="43.4569" lon="5.75255">
        <ele>378</ele>
        <time>2021-03-18T14:03:31Z</time>
      </trkpt>
      <trkpt lat="43.45688" lon="5.7526">
        <ele>379</ele>
        <time>2021-03-18T14:03:36Z</time>
      </trkpt>
      <trkpt lat="43.45686" lon="5.75278">
        <ele>383</ele>
        <time>2021-03-18T14:03:53Z</time>
      </trkpt>
      <trkpt lat="43.45684" lon="5.75283">
        <ele>383</ele>
        <time>2021-03-18T14:03:58Z</time>
      </trkpt>
      <trkpt lat="43.45685" lon="5.75289">
        <ele>384</ele>
        <time>2021-03-18T14:04:02Z</time>
      </trkpt>
      <trkpt lat="43.45684" lon="5.75295">
        <ele>384</ele>
        <time>2021-03-18T14:04:06Z</time>
      </trkpt>
      <trkpt lat="43.45687" lon="5.75306">
        <ele>385</ele>
        <time>2021-03-18T14:04:18Z</time>
      </trkpt>
      <trkpt lat="43.45688" lon="5.75313">
        <ele>387</ele>
        <time>2021-03-18T14:04:23Z</time>
      </trkpt>
      <trkpt lat="43.45692" lon="5.75317">
        <ele>389</ele>
        <time>2021-03-18T14:04:28Z</time>
      </trkpt>
      <trkpt lat="43.45692" lon="5.75314">
        <ele>389</ele>
        <time>2021-03-18T14:05:53Z</time>
      </trkpt>
      <trkpt lat="43.45694" lon="5.75317">
        <ele>385</ele>
        <time>2021-03-18T14:06:45Z</time>
      </trkpt>
      <trkpt lat="43.45695" lon="5.75316">
        <ele>386</ele>
        <time>2021-03-18T14:08:40Z</time>
      </trkpt>
      <trkpt lat="43.45695" lon="5.75319">
        <ele>382</ele>
        <time>2021-03-18T14:11:08Z</time>
      </trkpt>
      <trkpt lat="43.45693" lon="5.75322">
        <ele>382</ele>
        <time>2021-03-18T14:13:03Z</time>
      </trkpt>
      <trkpt lat="43.4569" lon="5.75325">
        <ele>382</ele>
        <time>2021-03-18T14:13:07Z</time>
      </trkpt>
      <trkpt lat="43.45689" lon="5.75321">
        <ele>387</ele>
        <time>2021-03-18T14:13:50Z</time>
      </trkpt>
      <trkpt lat="43.45691" lon="5.75318">
        <ele>382</ele>
        <time>2021-03-18T14:14:32Z</time>
      </trkpt>
      <trkpt lat="43.45693" lon="5.75319">
        <ele>385</ele>
        <time>2021-03-18T14:15:09Z</time>
      </trkpt>
      <trkpt lat="43.45693" lon="5.75316">
        <ele>386</ele>
        <time>2021-03-18T14:15:44Z</time>
      </trkpt>
      <trkpt lat="43.45694" lon="5.75318">
        <ele>384</ele>
        <time>2021-03-18T14:16:48Z</time>
      </trkpt>
      <trkpt lat="43.45702" lon="5.7532">
        <ele>384</ele>
        <time>2021-03-18T14:17:14Z</time>
      </trkpt>
      <trkpt lat="43.45705" lon="5.75316">
        <ele>383</ele>
        <time>2021-03-18T14:17:18Z</time>
      </trkpt>
      <trkpt lat="43.45708" lon="5.75312">
        <ele>382</ele>
        <time>2021-03-18T14:17:23Z</time>
      </trkpt>
      <trkpt lat="43.4571" lon="5.75308">
        <ele>383</ele>
        <time>2021-03-18T14:17:28Z</time>
      </trkpt>
      <trkpt lat="43.45715" lon="5.75299">
        <ele>383</ele>
        <time>2021-03-18T14:17:36Z</time>
      </trkpt>
      <trkpt lat="43.45718" lon="5.75295">
        <ele>382</ele>
        <time>2021-03-18T14:17:42Z</time>
      </trkpt>
      <trkpt lat="43.45721" lon="5.75289">
        <ele>381</ele>
        <time>2021-03-18T14:17:46Z</time>
      </trkpt>
      <trkpt lat="43.45722" lon="5.75285">
        <ele>380</ele>
        <time>2021-03-18T14:17:50Z</time>
      </trkpt>
      <trkpt lat="43.45727" lon="5.75271">
        <ele>378</ele>
        <time>2021-03-18T14:18:01Z</time>
      </trkpt>
      <trkpt lat="43.45727" lon="5.75259">
        <ele>377</ele>
        <time>2021-03-18T14:18:10Z</time>
      </trkpt>
      <trkpt lat="43.45729" lon="5.75254">
        <ele>378</ele>
        <time>2021-03-18T14:18:14Z</time>
      </trkpt>
      <trkpt lat="43.45729" lon="5.75219">
        <ele>379</ele>
        <time>2021-03-18T14:18:38Z</time>
      </trkpt>
      <trkpt lat="43.4573" lon="5.75209">
        <ele>377</ele>
        <time>2021-03-18T14:18:45Z</time>
      </trkpt>
      <trkpt lat="43.45731" lon="5.75205">
        <ele>377</ele>
        <time>2021-03-18T14:18:47Z</time>
      </trkpt>
      <trkpt lat="43.45736" lon="5.75195">
        <ele>376</ele>
        <time>2021-03-18T14:18:53Z</time>
      </trkpt>
      <trkpt lat="43.45738" lon="5.75185">
        <ele>375</ele>
        <time>2021-03-18T14:19:00Z</time>
      </trkpt>
      <trkpt lat="43.45746" lon="5.7517">
        <ele>374</ele>
        <time>2021-03-18T14:19:12Z</time>
      </trkpt>
      <trkpt lat="43.45749" lon="5.75165">
        <ele>373</ele>
        <time>2021-03-18T14:19:15Z</time>
      </trkpt>
      <trkpt lat="43.45754" lon="5.75161">
        <ele>372</ele>
        <time>2021-03-18T14:19:18Z</time>
      </trkpt>
      <trkpt lat="43.45787" lon="5.75141">
        <ele>373</ele>
        <time>2021-03-18T14:19:50Z</time>
      </trkpt>
      <trkpt lat="43.45791" lon="5.7514">
        <ele>372</ele>
        <time>2021-03-18T14:19:53Z</time>
      </trkpt>
      <trkpt lat="43.45796" lon="5.75135">
        <ele>371</ele>
        <time>2021-03-18T14:19:59Z</time>
      </trkpt>
      <trkpt lat="43.458" lon="5.75131">
        <ele>370</ele>
        <time>2021-03-18T14:20:03Z</time>
      </trkpt>
      <trkpt lat="43.45806" lon="5.75124">
        <ele>370</ele>
        <time>2021-03-18T14:20:11Z</time>
      </trkpt>
      <trkpt lat="43.4582" lon="5.75114">
        <ele>370</ele>
        <time>2021-03-18T14:20:25Z</time>
      </trkpt>
      <trkpt lat="43.45823" lon="5.75109">
        <ele>371</ele>
        <time>2021-03-18T14:20:30Z</time>
      </trkpt>
      <trkpt lat="43.45825" lon="5.75104">
        <ele>372</ele>
        <time>2021-03-18T14:20:36Z</time>
      </trkpt>
      <trkpt lat="43.4583" lon="5.75096">
        <ele>371</ele>
        <time>2021-03-18T14:20:43Z</time>
      </trkpt>
      <trkpt lat="43.45834" lon="5.75087">
        <ele>369</ele>
        <time>2021-03-18T14:20:52Z</time>
      </trkpt>
      <trkpt lat="43.45848" lon="5.7507">
        <ele>363</ele>
        <time>2021-03-18T14:21:07Z</time>
      </trkpt>
      <trkpt lat="43.45854" lon="5.75067">
        <ele>363</ele>
        <time>2021-03-18T14:21:12Z</time>
      </trkpt>
      <trkpt lat="43.45858" lon="5.75064">
        <ele>363</ele>
        <time>2021-03-18T14:21:17Z</time>
      </trkpt>
      <trkpt lat="43.45875" lon="5.75059">
        <ele>365</ele>
        <time>2021-03-18T14:21:31Z</time>
      </trkpt>
      <trkpt lat="43.45878" lon="5.75057">
        <ele>365</ele>
        <time>2021-03-18T14:21:35Z</time>
      </trkpt>
      <trkpt lat="43.45881" lon="5.75054">
        <ele>365</ele>
        <time>2021-03-18T14:21:39Z</time>
      </trkpt>
      <trkpt lat="43.45894" lon="5.75047">
        <ele>363</ele>
        <time>2021-03-18T14:21:50Z</time>
      </trkpt>
      <trkpt lat="43.45898" lon="5.75045">
        <ele>362</ele>
        <time>2021-03-18T14:21:53Z</time>
      </trkpt>
      <trkpt lat="43.45903" lon="5.75041">
        <ele>363</ele>
        <time>2021-03-18T14:21:57Z</time>
      </trkpt>
      <trkpt lat="43.4593" lon="5.75025">
        <ele>363</ele>
        <time>2021-03-18T14:22:24Z</time>
      </trkpt>
      <trkpt lat="43.45937" lon="5.7502">
        <ele>362</ele>
        <time>2021-03-18T14:22:32Z</time>
      </trkpt>
      <trkpt lat="43.45942" lon="5.75016">
        <ele>362</ele>
        <time>2021-03-18T14:22:37Z</time>
      </trkpt>
      <trkpt lat="43.45947" lon="5.75012">
        <ele>359</ele>
        <time>2021-03-18T14:22:42Z</time>
      </trkpt>
      <trkpt lat="43.45956" lon="5.75005">
        <ele>359</ele>
        <time>2021-03-18T14:22:50Z</time>
      </trkpt>
      <trkpt lat="43.45977" lon="5.74989">
        <ele>357</ele>
        <time>2021-03-18T14:23:12Z</time>
      </trkpt>
      <trkpt lat="43.45987" lon="5.74991">
        <ele>355</ele>
        <time>2021-03-18T14:23:21Z</time>
      </trkpt>
      <trkpt lat="43.45991" lon="5.74997">
        <ele>355</ele>
        <time>2021-03-18T14:23:26Z</time>
      </trkpt>
      <trkpt lat="43.45995" lon="5.75002">
        <ele>353</ele>
        <time>2021-03-18T14:23:34Z</time>
      </trkpt>
      <trkpt lat="43.46005" lon="5.75015">
        <ele>352</ele>
        <time>2021-03-18T14:23:45Z</time>
      </trkpt>
      <trkpt lat="43.46009" lon="5.75024">
        <ele>353</ele>
        <time>2021-03-18T14:23:51Z</time>
      </trkpt>
      <trkpt lat="43.4601" lon="5.75028">
        <ele>353</ele>
        <time>2021-03-18T14:23:55Z</time>
      </trkpt>
      <trkpt lat="43.46018" lon="5.75038">
        <ele>354</ele>
        <time>2021-03-18T14:24:06Z</time>
      </trkpt>
      <trkpt lat="43.46028" lon="5.75047">
        <ele>353</ele>
        <time>2021-03-18T14:24:19Z</time>
      </trkpt>
      <trkpt lat="43.46038" lon="5.75053">
        <ele>349</ele>
        <time>2021-03-18T14:24:31Z</time>
      </trkpt>
      <trkpt lat="43.46053" lon="5.7505">
        <ele>345</ele>
        <time>2021-03-18T14:24:47Z</time>
      </trkpt>
      <trkpt lat="43.46064" lon="5.75042">
        <ele>345</ele>
        <time>2021-03-18T14:25:00Z</time>
      </trkpt>
      <trkpt lat="43.46071" lon="5.75037">
        <ele>344</ele>
        <time>2021-03-18T14:25:07Z</time>
      </trkpt>
      <trkpt lat="43.46075" lon="5.75033">
        <ele>345</ele>
        <time>2021-03-18T14:25:10Z</time>
      </trkpt>
      <trkpt lat="43.46098" lon="5.75003">
        <ele>343</ele>
        <time>2021-03-18T14:25:40Z</time>
      </trkpt>
      <trkpt lat="43.46101" lon="5.74999">
        <ele>343</ele>
        <time>2021-03-18T14:25:43Z</time>
      </trkpt>
      <trkpt lat="43.46108" lon="5.74985">
        <ele>342</ele>
        <time>2021-03-18T14:25:54Z</time>
      </trkpt>
      <trkpt lat="43.46118" lon="5.74971">
        <ele>339</ele>
        <time>2021-03-18T14:26:07Z</time>
      </trkpt>
      <trkpt lat="43.46121" lon="5.74966">
        <ele>338</ele>
        <time>2021-03-18T14:26:10Z</time>
      </trkpt>
      <trkpt lat="43.46122" lon="5.74962">
        <ele>337</ele>
        <time>2021-03-18T14:26:14Z</time>
      </trkpt>
      <trkpt lat="43.4613" lon="5.74933">
        <ele>333</ele>
        <time>2021-03-18T14:26:35Z</time>
      </trkpt>
      <trkpt lat="43.46131" lon="5.74924">
        <ele>332</ele>
        <time>2021-03-18T14:26:41Z</time>
      </trkpt>
      <trkpt lat="43.46131" lon="5.74918">
        <ele>332</ele>
        <time>2021-03-18T14:26:45Z</time>
      </trkpt>
      <trkpt lat="43.46131" lon="5.74914">
        <ele>332</ele>
        <time>2021-03-18T14:26:50Z</time>
      </trkpt>
      <trkpt lat="43.46132" lon="5.74907">
        <ele>333</ele>
        <time>2021-03-18T14:26:54Z</time>
      </trkpt>
      <trkpt lat="43.46129" lon="5.74897">
        <ele>332</ele>
        <time>2021-03-18T14:27:02Z</time>
      </trkpt>
      <trkpt lat="43.46129" lon="5.74891">
        <ele>331</ele>
        <time>2021-03-18T14:27:05Z</time>
      </trkpt>
      <trkpt lat="43.46131" lon="5.74873">
        <ele>334</ele>
        <time>2021-03-18T14:27:17Z</time>
      </trkpt>
      <trkpt lat="43.46131" lon="5.74856">
        <ele>332</ele>
        <time>2021-03-18T14:27:27Z</time>
      </trkpt>
      <trkpt lat="43.46128" lon="5.74847">
        <ele>332</ele>
        <time>2021-03-18T14:27:33Z</time>
      </trkpt>
      <trkpt lat="43.46132" lon="5.74813">
        <ele>329</ele>
        <time>2021-03-18T14:27:57Z</time>
      </trkpt>
      <trkpt lat="43.46139" lon="5.74797">
        <ele>328</ele>
        <time>2021-03-18T14:28:09Z</time>
      </trkpt>
      <trkpt lat="43.46141" lon="5.74795">
        <ele>328</ele>
        <time>2021-03-18T14:28:12Z</time>
      </trkpt>
      <trkpt lat="43.46148" lon="5.74793">
        <ele>328</ele>
        <time>2021-03-18T14:28:17Z</time>
      </trkpt>
      <trkpt lat="43.46151" lon="5.74794">
        <ele>328</ele>
        <time>2021-03-18T14:28:20Z</time>
      </trkpt>
      <trkpt lat="43.46157" lon="5.7479">
        <ele>329</ele>
        <time>2021-03-18T14:28:40Z</time>
      </trkpt>
      <trkpt lat="43.46168" lon="5.74788">
        <ele>328</ele>
        <time>2021-03-18T14:28:51Z</time>
      </trkpt>
      <trkpt lat="43.46174" lon="5.74784">
        <ele>329</ele>
        <time>2021-03-18T14:28:58Z</time>
      </trkpt>
      <trkpt lat="43.46179" lon="5.74783">
        <ele>329</ele>
        <time>2021-03-18T14:29:03Z</time>
      </trkpt>
      <trkpt lat="43.46187" lon="5.74777">
        <ele>328</ele>
        <time>2021-03-18T14:29:13Z</time>
      </trkpt>
      <trkpt lat="43.46202" lon="5.74767">
        <ele>326</ele>
        <time>2021-03-18T14:29:27Z</time>
      </trkpt>
      <trkpt lat="43.46219" lon="5.74758">
        <ele>326</ele>
        <time>2021-03-18T14:29:41Z</time>
      </trkpt>
      <trkpt lat="43.46221" lon="5.74753">
        <ele>320</ele>
        <time>2021-03-18T14:30:10Z</time>
      </trkpt>
      <trkpt lat="43.46224" lon="5.74754">
        <ele>320</ele>
        <time>2021-03-18T14:30:14Z</time>
      </trkpt>
      <trkpt lat="43.46241" lon="5.74752">
        <ele>320</ele>
        <time>2021-03-18T14:30:28Z</time>
      </trkpt>
      <trkpt lat="43.46257" lon="5.74743">
        <ele>321</ele>
        <time>2021-03-18T14:30:43Z</time>
      </trkpt>
      <trkpt lat="43.4626" lon="5.74741">
        <ele>321</ele>
        <time>2021-03-18T14:30:46Z</time>
      </trkpt>
      <trkpt lat="43.46264" lon="5.74738">
        <ele>321</ele>
        <time>2021-03-18T14:30:49Z</time>
      </trkpt>
      <trkpt lat="43.46269" lon="5.74737">
        <ele>321</ele>
        <time>2021-03-18T14:30:52Z</time>
      </trkpt>
      <trkpt lat="43.46281" lon="5.74732">
        <ele>321</ele>
        <time>2021-03-18T14:31:02Z</time>
      </trkpt>
      <trkpt lat="43.46287" lon="5.74732">
        <ele>321</ele>
        <time>2021-03-18T14:31:07Z</time>
      </trkpt>
      <trkpt lat="43.46291" lon="5.7473">
        <ele>321</ele>
        <time>2021-03-18T14:31:10Z</time>
      </trkpt>
      <trkpt lat="43.46294" lon="5.74728">
        <ele>321</ele>
        <time>2021-03-18T14:31:14Z</time>
      </trkpt>
      <trkpt lat="43.46306" lon="5.74725">
        <ele>319</ele>
        <time>2021-03-18T14:31:23Z</time>
      </trkpt>
      <trkpt lat="43.46316" lon="5.7472">
        <ele>318</ele>
        <time>2021-03-18T14:31:33Z</time>
      </trkpt>
      <trkpt lat="43.46357" lon="5.74709">
        <ele>318</ele>
        <time>2021-03-18T14:32:05Z</time>
      </trkpt>
      <trkpt lat="43.46366" lon="5.74709">
        <ele>318</ele>
        <time>2021-03-18T14:32:12Z</time>
      </trkpt>
      <trkpt lat="43.4637" lon="5.74705">
        <ele>318</ele>
        <time>2021-03-18T14:32:16Z</time>
      </trkpt>
      <trkpt lat="43.46382" lon="5.74702">
        <ele>316</ele>
        <time>2021-03-18T14:32:27Z</time>
      </trkpt>
      <trkpt lat="43.46385" lon="5.74701">
        <ele>316</ele>
        <time>2021-03-18T14:32:30Z</time>
      </trkpt>
      <trkpt lat="43.46417" lon="5.74687">
        <ele>313</ele>
        <time>2021-03-18T14:33:01Z</time>
      </trkpt>
      <trkpt lat="43.46429" lon="5.74679">
        <ele>311</ele>
        <time>2021-03-18T14:33:12Z</time>
      </trkpt>
      <trkpt lat="43.46442" lon="5.74672">
        <ele>309</ele>
        <time>2021-03-18T14:33:21Z</time>
      </trkpt>
      <trkpt lat="43.46446" lon="5.7467">
        <ele>309</ele>
        <time>2021-03-18T14:33:25Z</time>
      </trkpt>
      <trkpt lat="43.46461" lon="5.74664">
        <ele>309</ele>
        <time>2021-03-18T14:33:38Z</time>
      </trkpt>
      <trkpt lat="43.465" lon="5.74652">
        <ele>305</ele>
        <time>2021-03-18T14:34:11Z</time>
      </trkpt>
      <trkpt lat="43.46504" lon="5.74651">
        <ele>305</ele>
        <time>2021-03-18T14:34:16Z</time>
      </trkpt>
      <trkpt lat="43.46507" lon="5.74648">
        <ele>306</ele>
        <time>2021-03-18T14:34:19Z</time>
      </trkpt>
      <trkpt lat="43.46518" lon="5.74643">
        <ele>306</ele>
        <time>2021-03-18T14:34:30Z</time>
      </trkpt>
      <trkpt lat="43.46531" lon="5.74641">
        <ele>307</ele>
        <time>2021-03-18T14:34:40Z</time>
      </trkpt>
      <trkpt lat="43.46562" lon="5.74626">
        <ele>302</ele>
        <time>2021-03-18T14:35:10Z</time>
      </trkpt>
      <trkpt lat="43.46584" lon="5.74617">
        <ele>302</ele>
        <time>2021-03-18T14:35:30Z</time>
      </trkpt>
      <trkpt lat="43.46589" lon="5.74618">
        <ele>302</ele>
        <time>2021-03-18T14:35:33Z</time>
      </trkpt>
      <trkpt lat="43.46603" lon="5.74611">
        <ele>301</ele>
        <time>2021-03-18T14:35:48Z</time>
      </trkpt>
      <trkpt lat="43.46607" lon="5.74611">
        <ele>301</ele>
        <time>2021-03-18T14:35:51Z</time>
      </trkpt>
      <trkpt lat="43.46614" lon="5.74606">
        <ele>301</ele>
        <time>2021-03-18T14:35:58Z</time>
      </trkpt>
      <trkpt lat="43.46622" lon="5.74603">
        <ele>300</ele>
        <time>2021-03-18T14:36:03Z</time>
      </trkpt>
      <trkpt lat="43.46632" lon="5.74599">
        <ele>300</ele>
        <time>2021-03-18T14:36:12Z</time>
      </trkpt>
      <trkpt lat="43.46646" lon="5.74596">
        <ele>297</ele>
        <time>2021-03-18T14:36:24Z</time>
      </trkpt>
      <trkpt lat="43.46659" lon="5.74594">
        <ele>296</ele>
        <time>2021-03-18T14:36:35Z</time>
      </trkpt>
      <trkpt lat="43.46663" lon="5.74593">
        <ele>296</ele>
        <time>2021-03-18T14:36:39Z</time>
      </trkpt>
      <trkpt lat="43.46668" lon="5.74594">
        <ele>295</ele>
        <time>2021-03-18T14:36:44Z</time>
      </trkpt>
      <trkpt lat="43.46676" lon="5.746">
        <ele>298</ele>
        <time>2021-03-18T14:36:54Z</time>
      </trkpt>
      <trkpt lat="43.4668" lon="5.74599">
        <ele>298</ele>
        <time>2021-03-18T14:36:58Z</time>
      </trkpt>
      <trkpt lat="43.46684" lon="5.74596">
        <ele>297</ele>
        <time>2021-03-18T14:37:02Z</time>
      </trkpt>
      <trkpt lat="43.46687" lon="5.74594">
        <ele>297</ele>
        <time>2021-03-18T14:37:09Z</time>
      </trkpt>
      <trkpt lat="43.467" lon="5.74578">
        <ele>295</ele>
        <time>2021-03-18T14:37:18Z</time>
      </trkpt>
      <trkpt lat="43.46704" lon="5.74571">
        <ele>295</ele>
        <time>2021-03-18T14:37:23Z</time>
      </trkpt>
      <trkpt lat="43.46706" lon="5.74565">
        <ele>295</ele>
        <time>2021-03-18T14:37:26Z</time>
      </trkpt>
      <trkpt lat="43.46707" lon="5.7456">
        <ele>296</ele>
        <time>2021-03-18T14:37:29Z</time>
      </trkpt>
      <trkpt lat="43.46714" lon="5.74542">
        <ele>296</ele>
        <time>2021-03-18T14:37:43Z</time>
      </trkpt>
      <trkpt lat="43.46716" lon="5.74537">
        <ele>296</ele>
        <time>2021-03-18T14:37:45Z</time>
      </trkpt>
      <trkpt lat="43.46717" lon="5.74535">
        <ele>297</ele>
        <time>2021-03-18T14:37:48Z</time>
      </trkpt>
      <trkpt lat="43.46719" lon="5.74529">
        <ele>296</ele>
        <time>2021-03-18T14:37:53Z</time>
      </trkpt>
      <trkpt lat="43.46721" lon="5.74527">
        <ele>295</ele>
        <time>2021-03-18T14:37:56Z</time>
      </trkpt>
      <trkpt lat="43.46723" lon="5.74527">
        <ele>295</ele>
        <time>2021-03-18T14:37:58Z</time>
      </trkpt>
      <trkpt lat="43.46725" lon="5.74526">
        <ele>294</ele>
        <time>2021-03-18T14:38:00Z</time>
      </trkpt>
    </trkseg>
  </trk>
</gpx>